[[{"header":{"parameterUnit":"m.s-1","parameterCategory":1,"la1":30.6,"la2":28.766,"lo1":-90.7593,"lo2":-88.6598,"dy":0.0162,"dx":0.0183,"nx":116,"ny":114,"refTime":"2023-07-26T06:00:00:Z","depth":0,"parameterNumber":2,"parameterNumberName":"U-component_of_WINDS"},"data":[0.0,0.0,0.0,0.0,0.0,0.0,0.0,0.0,0.0,0.0,0.0,0.0,0.0,0.0,0.0,0.0,0.0,0.0,0.0,0.0,0.0,0.0,0.0,0.0,0.0,0.0,0.0,0.0,0.0,0.0,0.0,0.0,0.0,0.0,0.0,0.0,0.0,0.0,0.0,0.0,0.0,0.0,0.0,0.0,0.0,0.0,0.0,0.0,0.0,0.0,0.0,0.0,0.0,0.0,0.0,0.0,0.0,0.0,0.0,0.0,0.0,0.0,0.0,0.0,0.0,0.0,0.0,0.0,0.0,0.0,0.0,0.0,0.0,0.0,0.0,0.0,0.0,0.0,0.0,0.0,0.0,0.0,0.0,0.0,0.0,0.0,0.0,0.0,0.0,0.0,0.0,0.0,0.0,0.0,0.0,0.0,0.0,0.0,0.0,0.0,0.0,0.0,0.0,0.0,0.0,0.0,0.0,0.0,0.0,0.0,0.0,0.0,0.0,0.0,0.0,0.0,0.0,0.0,0.0,0.0,0.0,0.0,0.0,0.0,0.0,0.0,0.0,0.0,0.0,0.0,0.0,0.0,0.0,0.0,0.0,0.0,0.0,0.0,0.0,0.0,0.0,0.0,0.0,0.0,0.0,0.0,0.0,0.0,0.0,0.0,0.0,0.0,0.0,0.0,0.0,0.0,0.0,0.0,0.0,0.0,0.0,0.0,0.0,0.0,0.0,0.0,0.0,0.0,0.0,0.0,0.0,0.0,0.0,0.0,0.0,0.0,0.0,0.0,0.0,0.0,0.0,0.0,0.0,0.0,0.0,0.0,0.0,0.0,0.0,0.0,0.0,0.0,0.0,0.0,0.0,0.0,0.0,0.0,0.0,0.0,0.0,0.0,0.0,0.0,0.0,0.0,0.0,0.0,0.0,0.0,0.0,0.0,0.0,0.0,0.0,0.0,0.0,0.0,0.0,0.0,0.0,0.0,0.0,0.0,0.0,0.0,0.0,0.0,0.0,0.0,0.0,0.0,0.0,0.0,0.0,0.0,0.0,0.0,0.0,0.0,0.0,0.0,0.0,0.0,0.0,0.0,0.0,0.0,0.0,0.0,0.0,0.0,0.0,0.0,0.0,0.0,0.0,0.0,0.0,0.0,0.0,0.0,0.0,0.0,0.0,0.0,0.0,0.0,0.0,0.0,0.0,0.0,0.0,0.0,0.0,0.0,0.0,0.0,0.0,0.0,0.0,0.0,0.0,0.0,0.0,0.0,0.0,0.0,0.0,0.0,0.0,0.0,0.0,0.0,0.0,0.0,0.0,0.0,0.0,0.0,0.0,0.0,0.0,0.0,0.0,0.0,0.0,0.0,0.0,0.0,0.0,0.0,0.0,0.0,0.0,0.0,0.0,0.0,0.0,0.0,0.0,0.0,0.0,0.0,0.0,0.0,0.0,0.0,0.0,0.0,0.0,0.0,0.0,0.0,0.0,0.0,0.0,0.0,0.0,0.0,0.0,0.0,0.0,0.0,0.0,0.0,0.0,0.0,0.0,0.0,0.0,0.0,0.0,0.0,0.0,0.0,0.0,0.0,0.0,0.0,0.0,0.0,0.0,0.0,0.0,0.0,0.0,0.0,0.0,0.0,0.0,0.0,0.0,0.0,0.0,0.0,0.0,0.0,0.0,0.0,0.0,0.0,0.0,0.0,0.0,0.0,0.0,0.0,0.0,0.0,0.0,0.0,0.0,0.0,0.0,0.0,0.0,0.0,0.0,0.0,0.0,0.0,0.0,0.0,0.0,0.0,0.0,0.0,0.0,0.0,0.0,0.0,0.0,0.0,0.0,0.0,0.0,0.0,0.0,0.0,0.0,0.0,0.0,0.0,0.0,0.0,0.0,0.0,0.0,0.0,0.0,0.0,0.0,0.0,0.0,0.0,0.0,0.0,0.0,0.0,0.0,0.0,0.0,0.0,0.0,0.0,0.0,0.0,0.0,0.0,0.0,0.0,0.0,0.0,0.0,0.0,0.0,0.0,0.0,0.0,0.0,0.0,0.0,0.0,0.0,0.0,0.0,0.0,0.0,0.0,0.0,0.0,0.0,0.0,0.0,0.0,0.0,0.0,0.0,0.0,0.0,0.0,0.0,0.0,0.0,0.0,0.0,0.0,0.0,0.0,0.0,0.0,0.0,0.0,0.0,0.0,0.0,0.0,0.0,0.0,0.0,0.0,0.0,0.0,0.0,0.0,0.0,0.0,0.0,0.0,0.0,0.0,0.0,0.0,0.0,0.0,0.0,0.0,0.0,0.0,0.0,0.0,0.0,0.0,0.0,0.0,0.0,0.0,0.0,0.0,0.0,0.0,0.0,0.0,0.0,0.0,0.0,0.0,0.0,0.0,0.0,0.0,0.0,0.0,0.0,0.0,0.0,0.0,0.0,0.0,0.0,0.0,0.0,0.0,0.0,0.0,0.0,0.0,0.0,0.0,0.0,0.0,0.0,0.0,0.0,0.0,0.0,0.0,0.0,0.0,0.0,0.0,0.0,0.0,0.0,0.0,0.0,0.0,0.0,0.0,0.0,0.0,0.0,0.0,0.0,0.0,0.0,0.0,0.0,0.0,0.0,0.0,0.0,0.0,0.0,0.0,0.0,0.0,0.0,0.0,0.0,0.0,0.0,0.0,0.0,0.0,0.0,0.0,0.0,0.0,0.0,0.0,0.0,0.0,0.0,0.0,0.0,0.0,0.0,0.0,0.0,0.0,0.0,0.0,0.0,0.0,0.0,0.0,0.0,0.0,0.0,0.0,0.0,0.0,0.0,0.0,0.0,0.0,0.0,0.0,0.0,0.0,0.0,0.0,0.0,0.0,0.0,0.0,0.0,0.0,0.0,0.0,0.0,0.0,0.0,0.0,0.0,0.0,0.0,0.0,0.0,0.0,0.0,0.0,0.0,0.0,0.0,0.0,0.0,0.0,0.0,0.0,0.0,0.0,0.0,0.0,0.0,0.0,0.0,0.0,0.0,0.0,0.0,0.0,0.0,0.0,0.0,0.0,0.0,0.0,0.0,0.0,0.0,0.0,0.0,0.0,0.0,0.0,0.0,0.0,0.0,0.0,0.0,0.0,0.0,0.0,0.0,0.0,0.0,0.0,0.0,0.0,0.0,0.0,0.0,0.0,0.0,0.0,0.0,0.0,0.0,0.0,0.0,0.0,0.0,0.0,0.0,0.0,0.0,0.0,0.0,0.0,0.0,0.0,0.0,0.0,0.0,0.0,0.0,0.0,0.0,0.0,0.0,0.0,0.0,0.0,0.0,0.0,0.0,0.0,0.0,0.0,0.0,0.0,0.0,0.0,0.0,0.0,0.0,0.0,0.0,0.0,0.0,0.0,0.0,0.0,0.0,0.0,0.0,0.0,0.0,0.0,0.0,0.0,0.0,0.0,0.0,0.0,0.0,0.0,0.0,0.0,0.0,0.0,0.0,0.0,0.0,0.0,0.0,0.0,0.0,0.0,0.0,0.0,0.0,0.0,0.0,0.0,0.0,0.0,0.0,0.0,0.0,0.0,0.0,0.0,0.0,0.0,0.0,0.0,0.0,0.0,0.0,0.0,0.0,0.0,0.0,0.0,0.0,0.0,0.0,0.0,0.0,0.0,0.0,0.0,0.0,0.0,0.0,0.0,0.0,0.0,0.0,0.0,0.0,0.0,0.0,0.0,0.0,0.0,0.0,0.0,0.0,0.0,0.0,0.0,0.0,0.0,0.0,0.0,0.0,0.0,0.0,0.0,0.0,0.0,0.0,0.0,0.0,0.0,0.0,0.0,0.0,0.0,0.0,0.0,0.0,0.0,0.0,0.0,0.0,0.0,0.0,0.0,0.0,0.0,0.0,0.0,0.0,0.0,0.0,0.0,0.0,0.0,0.0,0.0,0.0,0.0,0.0,0.0,0.0,0.0,0.0,0.0,0.0,0.0,0.0,0.0,0.0,0.0,0.0,0.0,0.0,0.0,0.0,0.0,0.0,0.0,0.0,0.0,0.0,0.0,0.0,0.0,0.0,0.0,0.0,0.0,0.0,0.0,0.0,0.0,0.0,0.0,0.0,0.0,0.0,0.0,0.0,0.0,0.0,0.0,0.0,0.0,0.0,0.0,0.0,0.0,0.0,0.0,0.0,0.0,0.0,0.0,0.0,0.0,0.0,0.0,0.0,0.0,0.0,0.0,0.0,0.0,0.0,0.0,0.0,0.0,0.0,0.0,0.0,0.0,0.0,0.0,0.0,0.0,0.0,0.0,0.0,0.0,0.0,0.0,0.0,0.0,0.0,0.0,0.0,0.0,0.0,0.0,0.0,0.0,0.0,0.0,0.0,0.0,0.0,0.0,0.0,0.0,0.0,0.0,0.0,0.0,0.0,0.0,0.0,0.0,0.0,0.0,0.0,0.0,0.0,0.0,0.0,0.0,0.0,0.0,0.0,0.0,0.0,0.0,0.0,0.0,0.0,0.0,0.0,0.0,0.0,0.0,0.0,0.0,0.0,0.0,0.0,0.0,0.0,0.0,0.0,0.0,0.0,0.0,0.0,0.0,0.0,0.0,0.0,0.0,0.0,0.0,0.0,0.0,0.0,0.0,0.0,0.0,0.0,0.0,0.0,0.0,0.0,0.0,0.0,0.0,0.0,0.0,0.0,0.0,0.0,0.0,0.0,0.0,0.0,0.0,0.0,0.0,0.0,0.0,0.0,0.0,0.0,0.0,0.0,0.0,0.0,0.0,0.0,0.0,0.0,0.0,0.0,0.0,0.0,0.0,0.0,0.0,0.0,0.0,0.0,0.0,0.0,0.0,0.0,0.0,0.0,0.0,0.0,0.0,0.0,0.0,0.0,0.0,0.0,0.0,0.0,0.0,0.0,0.0,0.0,0.0,0.0,0.0,0.0,0.0,0.0,0.0,0.0,0.0,0.0,0.0,0.0,0.0,0.0,0.0,0.0,0.0,0.0,0.0,0.0,0.0,0.0,0.0,0.0,0.0,0.0,0.0,0.0,0.0,0.0,0.0,0.0,0.0,0.0,0.0,0.0,0.0,0.0,0.0,0.0,0.0,0.0,0.0,0.0,0.0,0.0,0.0,0.0,0.0,0.0,0.0,0.0,0.0,0.0,0.0,0.0,0.0,0.0,0.0,0.0,0.0,0.0,0.0,0.0,0.0,0.0,0.0,0.0,0.0,0.0,0.0,0.0,0.0,0.0,0.0,0.0,0.0,0.0,0.0,0.0,0.0,0.0,0.0,0.0,0.0,0.0,0.0,0.0,0.0,0.0,0.0,0.0,0.0,0.0,0.0,0.0,0.0,0.0,0.0,0.0,0.0,0.0,0.0,0.0,0.0,0.0,0.0,0.0,0.0,0.0,0.0,0.0,0.0,0.0,0.0,0.0,0.0,0.0,0.0,0.0,0.0,0.0,0.0,0.0,0.0,0.0,0.0,0.0,0.0,0.0,0.0,0.0,0.0,0.0,0.0,0.0,0.0,0.0,0.0,0.0,0.0,0.0,0.0,0.0,0.0,0.0,0.0,0.0,0.0,0.0,0.0,0.0,0.0,0.0,0.0,0.0,0.0,0.0,0.0,0.0,0.0,0.0,0.0,0.0,0.0,0.0,0.0,0.0,0.0,0.0,0.0,0.0,0.0,0.0,0.0,0.0,0.0,0.0,0.0,0.0,0.0,0.0,0.0,0.0,0.0,0.0,0.0,0.0,0.0,0.0,0.0,0.0,0.0,0.0,0.0,0.0,0.0,0.0,0.0,0.0,0.0,0.0,0.0,0.0,0.0,0.0,0.0,0.0,0.0,0.0,0.0,0.0,0.0,0.0,0.0,0.0,0.0,0.0,0.0,0.0,0.0,0.0,0.0,0.0,0.0,0.0,0.0,0.0,0.0,0.0,0.0,0.0,0.0,0.0,0.0,0.0,0.0,0.0,0.0,0.0,0.0,0.0,0.0,0.0,0.0,0.0,0.0,0.0,0.0,0.0,0.0,0.0,0.0,0.0,0.0,0.0,0.0,0.0,0.0,0.0,0.0,0.0,0.0,0.0,0.0,0.0,0.0,0.0,0.0,0.0,0.0,2.2155,2.2304,0.0,0.0,0.0,0.0,0.0,0.0,0.0,0.0,0.0,0.0,0.0,0.0,0.0,0.0,0.0,0.0,0.0,0.0,0.0,0.0,0.0,0.0,0.0,0.0,0.0,0.0,0.0,0.0,0.0,0.0,0.0,0.0,0.0,0.0,0.0,0.0,0.0,0.0,0.0,0.0,0.0,0.0,0.0,0.0,0.0,0.0,0.0,0.0,0.0,0.0,0.0,0.0,0.0,0.0,0.0,0.0,0.0,0.0,0.0,0.0,0.0,0.0,0.0,0.0,0.0,0.0,0.0,0.0,0.0,0.0,0.0,0.0,0.0,0.0,0.0,0.0,0.0,0.0,0.0,0.0,0.0,0.0,0.0,0.0,0.0,0.0,0.0,0.0,0.0,0.0,0.0,0.0,0.0,0.0,0.0,0.0,0.0,0.0,0.0,0.0,0.0,0.0,0.0,0.0,0.0,0.0,0.0,0.0,0.0,0.0,0.0,0.0,0.0,0.0,2.2555,2.2615,0.0,0.0,0.0,0.0,0.0,0.0,0.0,0.0,0.0,0.0,0.0,0.0,0.0,0.0,0.0,0.0,0.0,0.0,0.0,0.0,0.0,0.0,0.0,0.0,0.0,0.0,0.0,0.0,0.0,0.0,0.0,0.0,0.0,0.0,0.0,0.0,0.0,0.0,0.0,0.0,0.0,0.0,0.0,0.0,0.0,0.0,0.0,0.0,0.0,0.0,0.0,0.0,0.0,0.0,0.0,0.0,0.0,0.0,0.0,0.0,0.0,0.0,0.0,0.0,0.0,0.0,0.0,0.0,0.0,0.0,0.0,0.0,0.0,0.0,0.0,0.0,0.0,0.0,0.0,0.0,0.0,0.0,0.0,0.0,0.0,0.0,0.0,0.0,0.0,0.0,0.0,0.0,0.0,0.0,0.0,0.0,0.0,0.0,0.0,0.0,0.0,0.0,0.0,0.0,0.0,0.0,0.0,0.0,2.2038,2.1978,2.1617,2.1959,2.2263,2.2526,2.254,2.2555,2.2586,2.2979,0.0,0.0,0.0,0.0,0.0,0.0,0.0,0.0,0.0,0.0,0.0,0.0,0.0,0.0,0.0,0.0,0.0,0.0,0.0,0.0,0.0,0.0,0.0,0.0,0.0,0.0,0.0,0.0,0.0,0.0,0.0,0.0,0.0,0.0,0.0,0.0,0.0,0.0,1.7109,1.6905,1.6852,1.687,1.6038,0.0,0.0,0.0,0.0,0.0,0.0,0.0,0.0,0.0,0.0,0.0,0.0,0.0,0.0,0.0,0.0,0.0,0.0,0.0,0.0,0.0,0.0,0.0,0.0,0.0,0.0,0.0,0.0,0.0,0.0,0.0,0.0,0.0,0.0,0.0,0.0,0.0,0.0,0.0,0.0,0.0,0.0,0.0,2.2615,2.2615,0.0,0.0,0.0,0.0,0.0,0.0,0.0,0.0,0.0,0.0,0.0,0.0,0.0,2.1299,2.1698,2.1698,2.1908,2.2289,2.2235,2.2189,2.2118,2.1908,2.1888,2.1935,2.2184,0.0,2.3275,2.3319,0.0,0.0,0.0,0.0,0.0,0.0,0.0,0.0,0.0,0.0,0.0,0.0,0.0,0.0,0.0,0.0,0.0,0.0,0.0,0.0,0.0,0.0,0.0,0.0,0.0,0.0,0.0,0.0,0.0,0.0,0.0,0.0,0.0,0.0,0.0,0.0,1.6038,1.695,1.7606,1.7524,1.7676,1.8037,1.7658,1.7176,1.6633,1.6353,0.0,0.0,0.0,0.0,0.0,0.0,0.0,0.0,0.0,0.0,0.0,0.0,0.0,0.0,0.0,0.0,0.0,0.0,0.0,0.0,0.0,0.0,0.0,0.0,0.0,0.0,0.0,0.0,0.0,0.0,0.0,0.0,0.0,0.0,0.0,0.0,0.0,0.0,0.0,2.2569,2.2509,2.2509,2.2523,2.2523,0.0,0.0,0.0,0.0,0.0,0.0,0.0,0.0,0.0,2.1215,2.1541,2.1636,2.1568,2.1793,2.1815,2.1573,2.1829,2.1722,2.1263,2.1452,2.1712,2.1935,2.231,2.2785,2.3319,2.345,2.3623,2.3837,0.0,0.0,0.0,0.0,2.5513,2.5422,0.0,0.0,0.0,0.0,0.0,0.0,0.0,0.0,0.0,0.0,0.0,0.0,0.0,0.0,0.0,1.5379,0.0,0.0,0.0,0.0,0.0,0.0,0.0,0.0,0.0,0.0,0.0,0.0,1.6933,1.7591,1.7984,1.7996,1.8195,1.8614,1.8679,1.829,1.76,1.7413,1.7202,0.0,0.0,0.0,0.0,0.0,0.0,0.0,0.0,0.0,0.0,0.0,0.0,0.0,0.0,0.0,0.0,0.0,0.0,0.0,0.0,0.0,0.0,0.0,0.0,0.0,0.0,0.0,0.0,0.0,0.0,0.0,0.0,0.0,0.0,0.0,0.0,0.0,0.0,2.2463,2.237,2.237,2.237,2.237,0.0,0.0,0.0,0.0,0.0,0.0,2.2137,2.1746,2.1568,2.1616,2.1996,2.1996,2.1616,2.1996,2.1853,2.1222,2.1633,2.1511,2.1052,2.1363,2.1746,2.217,2.2572,2.292,2.3187,2.3551,2.3852,2.4147,2.4759,2.5153,2.5384,2.5519,2.5594,2.5631,0.0,0.0,0.0,0.0,0.0,0.0,0.0,0.0,0.0,0.0,0.0,0.0,0.0,0.0,1.6144,1.6144,1.6144,1.5969,0.0,0.0,0.0,0.0,0.0,0.0,0.0,0.0,0.0,1.7662,1.7737,1.8019,1.8578,1.8429,1.8441,1.8614,1.8464,1.853,1.8679,1.8035,1.7784,1.7587,0.0,0.0,0.0,0.0,0.0,0.0,0.0,0.0,0.0,0.0,0.0,0.0,0.0,0.0,0.0,0.0,0.0,0.0,0.0,0.0,0.0,0.0,0.0,0.0,0.0,0.0,0.0,0.0,0.0,0.0,0.0,0.0,0.0,0.0,0.0,0.0,0.0,0.0,0.0,2.2231,2.2324,0.0,0.0,0.0,0.0,2.0944,2.0759,2.0908,2.141,2.1423,2.1664,2.2137,2.2184,2.2184,2.2184,2.2184,2.217,2.2128,2.1921,2.2016,2.2466,2.2016,2.2016,2.2512,2.2754,2.2979,2.3172,2.3754,2.4219,2.4549,2.4385,2.4695,2.5192,2.502,2.5059,2.5269,0.0,0.0,0.0,0.0,0.0,0.0,0.0,0.0,0.0,0.0,0.0,0.0,0.0,1.61,1.62,1.62,1.62,1.6144,1.6013,0.0,0.0,0.0,0.0,0.0,0.0,0.0,1.7454,1.7526,1.7967,1.8235,1.8302,1.8247,1.8247,1.8302,1.8367,1.8476,1.853,1.8417,1.8433,1.8518,1.7975,1.7745,0.0,0.0,0.0,0.0,0.0,0.0,0.0,0.0,0.0,0.0,0.0,0.0,0.0,0.0,0.0,0.0,0.0,0.0,0.0,0.0,0.0,0.0,0.0,0.0,0.0,0.0,0.0,0.0,0.0,0.0,0.0,0.0,0.0,0.0,0.0,0.0,0.0,2.2231,2.2231,0.0,2.1996,2.1996,2.1888,2.1732,2.1636,2.1684,2.1888,2.1902,2.1996,2.2184,2.2044,2.1949,2.1949,2.1746,2.1616,2.1423,2.1664,2.1793,2.1841,2.1921,2.2095,2.2267,2.2694,2.2934,2.3024,2.3523,2.3867,2.412,2.441,2.4583,2.4768,2.5275,2.5519,2.5647,0.0,0.0,0.0,0.0,0.0,0.0,0.0,0.0,0.0,0.0,0.0,1.5957,1.6306,1.6491,1.6534,1.6534,1.6534,1.6491,1.6362,0.0,0.0,0.0,0.0,0.0,0.0,1.7774,1.795,1.7634,1.8086,1.8247,1.8084,1.8084,1.8084,1.8096,1.8259,1.8313,1.8313,1.8429,1.8708,1.9005,1.9024,1.8998,1.8829,0.0,0.0,0.0,0.0,0.0,0.0,0.0,0.0,0.0,0.0,0.0,0.0,0.0,0.0,0.0,0.0,0.0,0.0,0.0,0.0,0.0,0.0,0.0,0.0,0.0,0.0,0.0,0.0,0.0,0.0,0.0,0.0,0.0,0.0,2.2417,2.237,2.2231,2.2184,2.2184,2.2184,2.2184,2.2184,2.2184,2.2184,2.2184,2.2184,2.2184,2.2184,2.2184,2.1949,2.1793,2.1793,2.152,2.1326,2.1131,2.1616,2.1793,2.1779,2.2189,2.2452,2.2634,2.2965,2.3246,2.3377,2.3696,2.3994,2.4188,2.4395,2.4704,2.5044,2.5519,2.5795,2.5974,0.0,0.0,0.0,0.0,0.0,0.0,0.0,0.0,0.0,0.0,1.5957,1.6318,1.668,1.7031,1.7199,1.7199,1.7199,1.706,1.6765,1.6417,0.0,0.0,0.0,0.0,1.8127,1.8583,1.8583,1.8139,1.8139,1.8139,1.8139,1.8139,1.8084,1.8084,1.8084,1.8084,1.8084,1.807,1.8441,1.8976,1.8976,1.9006,1.9005,0.0,0.0,0.0,0.0,0.0,0.0,0.0,0.0,0.0,0.0,0.0,0.0,0.0,0.0,0.0,0.0,0.0,0.0,0.0,0.0,0.0,0.0,0.0,0.0,0.0,0.0,0.0,0.0,0.0,0.0,0.0,0.0,0.0,2.2324,2.237,2.237,2.2231,2.2184,2.2184,2.2184,2.2184,2.2184,2.2212,2.2212,2.2212,2.224,2.224,2.224,2.224,2.1944,2.1801,2.1801,2.1574,2.1429,2.1429,2.1719,2.2072,2.2569,2.2857,2.3201,2.3625,2.3625,2.3882,2.4261,2.4302,2.4533,2.4863,2.4451,2.5052,2.6132,2.5684,2.5811,2.6203,0.0,0.0,0.0,0.0,0.0,0.0,0.0,0.0,0.0,0.0,1.6156,1.6405,1.6989,1.7144,1.7199,1.7199,1.7199,1.7157,1.7073,0.0,0.0,0.0,0.0,0.0,1.904,1.9158,1.9158,1.904,1.904,1.8893,1.8637,1.8637,1.8422,1.8084,1.8084,1.8084,1.8084,1.8127,1.8213,1.8375,1.8804,1.8982,1.8976,0.0,0.0,0.0,0.0,0.0,0.0,0.0,0.0,0.0,0.0,0.0,0.0,0.0,0.0,0.0,0.0,0.0,0.0,0.0,0.0,0.0,0.0,0.0,0.0,0.0,0.0,0.0,0.0,0.0,0.0,0.0,2.1949,2.1841,2.1949,2.2137,2.2231,2.2184,2.2184,2.2184,2.2184,2.2184,2.2367,2.2817,2.2845,2.2958,2.322,2.3197,2.3082,2.2852,2.2623,2.2533,2.2533,2.2286,2.2115,2.2141,2.2544,2.3055,2.359,2.4028,2.4256,2.4343,2.4343,2.4103,2.3824,2.4177,2.4533,2.4902,2.4799,2.4958,2.5269,2.5427,2.5811,2.6203,0.0,0.0,0.0,0.0,0.0,0.0,0.0,0.0,0.0,0.0,1.6392,1.6607,1.7157,1.7199,1.7199,1.7199,1.7199,1.7199,1.7199,0.0,0.0,0.0,0.0,1.9218,1.942,1.9565,1.9565,1.942,1.942,1.9263,1.9064,1.9064,1.8869,1.8447,1.8193,1.8086,1.8101,1.8101,1.8112,1.8147,1.8511,1.8619,1.8637,1.8635,1.8616,1.8616,1.8623,1.8791,1.8991,1.8901,0.0,0.0,0.0,0.0,0.0,0.0,0.0,0.0,0.0,0.0,0.0,0.0,0.0,0.0,0.0,0.0,0.0,0.0,0.0,0.0,0.0,0.0,0.0,0.0,2.1664,2.1568,2.1949,2.1996,2.2044,2.2044,2.2044,2.2141,2.2393,2.2516,2.2831,2.3449,2.3406,2.3409,2.3578,2.3489,2.3319,2.3095,2.2911,2.2831,2.2831,2.2508,2.2495,2.2751,2.3239,2.3807,2.4362,2.4854,2.5047,2.5046,2.5046,2.4866,2.4587,2.487,2.5147,2.5438,0.0,0.0,0.0,0.0,2.5885,2.6115,0.0,0.0,0.0,0.0,0.0,0.0,0.0,0.0,0.0,0.0,0.0,1.685,1.7157,1.7199,1.7199,1.7199,1.7199,1.7225,0.0,0.0,0.0,1.8041,1.9295,1.9838,1.9577,1.9914,1.9901,1.9525,1.9525,1.9525,1.9473,1.946,1.9307,1.8988,1.8341,1.8119,1.8089,1.8089,1.8128,1.8093,1.8093,1.8101,1.8074,1.8116,1.8116,1.8128,1.8105,1.8489,1.9018,1.8839,0.0,0.0,0.0,0.0,0.0,0.0,0.0,0.0,0.0,0.0,0.0,0.0,0.0,0.0,0.0,0.0,0.0,0.0,0.0,0.0,0.0,0.0,0.0,0.0,2.1229,2.1375,2.2091,2.2005,2.189,2.1951,2.1904,2.2138,2.2746,2.3049,2.3526,2.416,2.3961,2.3834,2.3903,2.3694,0.0,0.0,0.0,2.3125,2.3125,2.2909,2.3031,2.3507,2.4002,2.4526,2.5101,2.5538,2.5747,2.5719,2.5766,2.5847,2.5973,2.5977,2.6066,2.6132,2.5721,2.5811,2.6168,2.6026,2.599,2.599,0.0,0.0,0.0,0.0,0.0,0.0,0.0,0.0,0.0,1.668,1.671,1.685,1.7157,1.7199,1.7199,1.7199,1.7199,1.7408,0.0,0.0,1.8526,1.94,1.9694,2.0031,2.0435,2.0549,2.0549,2.0448,2.0448,2.0233,1.9901,1.9748,1.9453,1.8988,1.8341,1.8113,1.8084,1.8084,1.8096,1.8078,1.8078,1.8112,1.8093,1.8128,1.8128,1.812,1.81,1.8631,1.9364,1.9522,1.9745,2.0016,2.0359,2.0459,0.0,0.0,0.0,0.0,0.0,0.0,0.0,0.0,0.0,0.0,0.0,0.0,0.0,0.0,0.0,0.0,0.0,0.0,0.0,2.1375,2.1568,2.1793,2.2137,2.2338,2.2547,2.2721,2.2623,2.2774,2.3358,2.3733,2.4239,2.508,2.5071,2.527,2.5739,2.5714,2.5554,2.527,2.523,2.523,2.523,2.5175,2.5162,2.5324,2.5378,0.0,2.6358,2.6462,2.6438,2.6456,2.6792,2.6734,2.6308,2.6413,2.6298,2.6026,2.5937,2.5974,2.6026,2.5954,2.5917,2.5917,0.0,0.0,0.0,0.0,0.0,0.0,0.0,0.0,0.0,0.0,1.6934,1.7018,1.7199,1.7199,1.7199,1.7199,1.7199,0.0,0.0,1.8179,1.8754,1.9329,1.9917,2.0411,2.0699,2.0699,2.0699,2.0699,2.0699,2.0599,2.0372,2.0295,2.0118,1.9851,1.952,1.9405,1.9377,1.9377,1.9386,1.942,1.942,1.9413,1.9298,1.8413,1.8643,1.9315,1.8915,1.915,1.9741,1.9718,1.9836,2.0118,2.066,2.0795,2.0858,0.0,0.0,0.0,0.0,0.0,0.0,0.0,0.0,0.0,0.0,0.0,0.0,0.0,0.0,2.1375,2.1229,0.0,2.1033,2.118,2.1229,2.1601,2.272,2.263,2.2677,2.3166,2.3202,2.3497,2.4432,2.4759,2.5285,2.6021,2.5959,2.5983,2.6269,2.6122,2.596,2.5783,2.5783,2.5783,2.5783,2.5783,2.596,2.6229,2.6229,2.6563,2.7152,2.7152,2.7128,2.713,2.762,2.7551,2.7214,2.7365,2.7273,2.7076,2.6978,2.652,2.5897,2.6216,2.6363,2.6412,0.0,0.0,0.0,0.0,0.0,0.0,0.0,0.0,0.0,0.0,1.7199,1.7199,1.7199,1.7199,1.7199,0.0,0.0,0.0,0.0,1.8166,1.8793,1.8898,1.9917,2.0594,2.0699,2.0699,2.0712,2.0662,2.0712,2.0699,2.0649,2.0699,2.0712,2.0675,2.0675,2.0703,2.0719,2.0719,2.0707,2.0694,2.0694,2.0694,2.0578,1.916,1.95,2.0589,1.978,1.9808,2.0167,1.9861,1.9862,2.0156,2.0858,2.1091,2.1104,2.1313,2.1264,0.0,0.0,0.0,0.0,0.0,0.0,0.0,0.0,2.1471,2.1568,2.1326,2.1277,2.1229,2.1082,2.1082,2.1171,2.1377,2.1341,2.1874,2.354,2.335,2.3336,2.4005,2.4021,2.4381,2.5469,2.5813,2.6184,2.6745,2.6616,2.651,2.6549,2.6283,2.6162,2.6162,2.6162,2.6162,2.6162,2.6162,2.639,2.6893,2.6893,2.7152,2.7625,2.7625,2.7625,2.7625,2.8222,2.8342,2.816,2.8306,2.8293,2.8122,2.7939,2.7127,2.6151,2.6769,2.6981,2.7078,0.0,0.0,0.0,0.0,0.0,0.0,0.0,0.0,0.0,0.0,0.0,0.0,0.0,0.0,0.0,0.0,0.0,0.0,1.7199,1.7813,1.8401,1.8885,1.9538,2.0139,2.0699,2.0699,2.0662,2.0511,2.0662,2.0599,2.0422,2.0599,2.0688,2.069,2.069,2.0703,2.0716,2.0716,2.0703,2.0714,2.0714,2.0714,2.0651,2.0472,2.054,2.0628,1.9977,2.0131,2.0617,2.0386,2.0573,2.0934,2.1264,2.1361,2.1361,2.1375,2.1375,2.1361,2.1361,2.1313,2.1277,2.1082,2.1229,2.1326,0.0,2.0947,2.1033,2.0799,2.0799,2.0898,2.1277,2.1375,2.1683,2.2714,2.3245,2.3822,2.4631,2.5084,2.5581,2.6154,2.5618,2.5445,2.6126,2.6462,2.6768,2.7115,2.7115,2.7218,2.7458,2.7408,2.7408,2.7408,2.7408,2.7408,2.7408,2.7408,2.7408,2.7509,2.7509,2.7509,2.7625,2.7625,2.7625,2.766,2.8606,2.886,2.8624,2.8869,2.86,2.801,2.7786,2.7608,2.7478,2.7559,2.7591,2.7608,0.0,0.0,0.0,0.0,0.0,0.0,0.0,0.0,0.0,0.0,0.0,0.0,0.0,0.0,0.0,0.0,0.0,0.0,1.7199,1.7991,1.8558,1.8785,1.998,2.0743,2.1002,2.1315,2.1348,2.1033,2.1183,2.1067,2.0588,2.065,2.0713,2.069,2.0317,2.0167,2.023,2.0523,2.0675,2.0699,2.0699,2.0699,2.0699,2.0699,2.0703,2.0655,2.041,2.0461,0.0,0.0,2.0699,2.0848,2.1082,2.118,2.118,2.1375,2.1277,2.1131,2.1033,2.0997,2.0997,2.0848,2.0997,2.1082,2.0749,2.0848,2.0947,2.0749,2.0699,2.0749,2.0947,2.1229,2.1697,2.2531,2.3104,2.3894,2.529,2.5654,2.6161,2.7061,2.6905,2.6791,2.7004,2.7152,2.7255,2.7423,2.7423,2.7473,2.7575,2.7625,2.7625,2.7625,2.7625,2.7625,2.7625,2.7625,2.7625,2.7625,2.7625,2.7625,2.7625,2.7894,2.8304,2.8919,2.9332,2.9588,2.9672,2.973,2.9508,2.9146,2.9053,2.8968,2.8919,2.8498,2.8336,2.8401,0.0,0.0,0.0,0.0,0.0,0.0,0.0,0.0,0.0,0.0,0.0,0.0,0.0,0.0,0.0,0.0,0.0,0.0,0.0,1.8028,1.8589,1.8836,2.0045,2.0817,2.1212,2.1633,2.1741,2.1554,2.1627,2.1437,2.0981,2.0791,2.0703,2.0668,2.0221,2.0036,2.0099,2.0521,2.0725,2.0699,2.0699,2.0699,2.0699,2.0699,2.0699,2.0699,2.0699,2.0699,0.0,0.0,2.0699,2.0749,2.0848,2.0947,2.0947,2.1131,2.1082,2.0898,2.0749,2.0699,2.0699,2.0699,2.0799,2.0898,2.0749,2.0799,2.0898,2.0749,2.0967,2.1223,2.1358,2.1937,2.263,2.3441,2.3822,2.4586,2.6147,2.6358,2.6686,2.7515,2.7625,2.7625,2.7625,2.7625,2.7625,2.7625,2.7625,2.7625,2.7625,2.7625,2.7625,2.7625,2.7625,2.7625,2.7625,2.7625,2.7625,2.7625,2.7625,2.7625,2.7625,2.8076,2.8764,2.9617,2.975,2.9984,3.0231,3.0231,3.0205,3.006,2.9946,2.9918,2.9853,2.9275,2.9081,2.9162,0.0,0.0,0.0,0.0,0.0,0.0,0.0,0.0,0.0,0.0,0.0,0.0,0.0,0.0,0.0,0.0,0.0,0.0,0.0,1.7814,1.8276,1.9238,1.9335,1.9922,2.1184,2.124,2.1429,2.1894,2.1755,2.168,2.1641,2.1008,2.0684,2.0705,2.0695,2.0656,2.0669,2.0686,2.0714,2.0699,2.0699,2.0699,2.0699,2.0699,2.0699,2.0699,2.0699,0.0,0.0,2.0699,2.0699,2.0699,2.0699,2.0699,2.0699,2.0699,2.0699,2.0699,2.0699,2.0699,2.0699,2.0699,2.0699,2.0699,2.0699,2.0699,2.0699,2.0699,2.1586,2.2465,2.293,2.3989,2.5175,2.6277,2.6479,2.6767,2.744,2.7545,2.7545,2.7625,2.7625,2.7625,2.7625,2.7625,2.7625,2.7625,2.7625,2.7625,2.7625,2.7625,2.7625,2.7625,2.7625,2.7625,2.7625,2.7625,2.7625,2.7625,2.7625,2.7625,2.7625,2.8076,2.8591,2.9166,2.9617,2.981,2.9853,3.0215,3.0316,3.0189,3.006,2.9946,2.9918,2.9886,2.9886,2.9886,0.0,0.0,0.0,0.0,0.0,0.0,0.0,0.0,0.0,0.0,0.0,0.0,0.0,0.0,0.0,0.0,0.0,0.0,0.0,1.85,1.8792,1.9176,1.9866,2.0421,2.0874,2.1298,2.1526,2.1506,2.2498,2.2308,2.1052,2.2119,2.2603,2.2601,2.262,2.1924,2.0691,2.0683,2.0675,2.0699,2.0699,2.0699,2.0699,2.0699,2.0699,2.0699,0.0,0.0,2.0699,2.0699,2.0699,2.0749,2.1082,2.118,2.1229,2.1541,2.1166,2.0749,2.1082,2.0947,2.0749,2.1082,2.1189,2.1313,2.1656,2.1822,2.1931,2.2268,2.2661,2.3104,2.3659,2.4416,2.515,2.5991,2.6391,2.6811,2.7535,2.7625,2.7625,2.7625,2.7625,2.7625,2.7625,2.7625,2.7625,2.7625,2.7625,2.7625,2.7625,2.7625,2.7625,2.7625,2.7625,2.7784,2.8248,2.8248,2.8613,2.9316,2.9227,2.9387,2.9785,2.9464,2.9556,3.0027,3.0199,3.0172,3.0087,3.0231,3.0162,2.9989,2.9946,2.9902,2.9918,2.9918,2.9918,2.9918,0.0,0.0,0.0,0.0,0.0,0.0,0.0,0.0,0.0,0.0,0.0,0.0,0.0,0.0,0.0,0.0,0.0,1.8707,0.0,0.0,1.9176,1.9325,1.9961,2.0453,2.0669,2.1126,2.1465,2.167,2.2948,2.2971,2.1769,2.304,2.3585,2.3615,2.3601,2.2899,2.1744,2.1485,2.1233,2.1037,2.0961,2.0848,2.0699,2.0898,2.0947,0.0,0.0,0.0,2.1166,2.0997,2.0947,2.1033,2.1506,2.1636,2.1732,2.1988,2.167,2.1264,2.1541,2.1594,2.1623,2.1917,2.2206,2.2501,2.2844,2.3005,2.3121,2.3458,2.3881,2.4254,2.4676,2.5342,2.6012,2.6423,2.6733,2.7096,2.7565,2.7625,2.7625,2.7625,2.7625,2.7625,2.7625,2.7625,2.7625,2.7625,2.7625,2.7625,2.7625,2.785,2.7934,2.7934,2.8173,2.8502,2.8951,2.9132,2.9678,3.0576,3.0456,3.0736,3.1297,3.0781,3.0838,3.1288,3.1246,3.116,3.1046,3.0959,3.0871,3.0725,3.0725,3.068,3.0635,3.0635,3.0474,3.0214,0.0,0.0,0.0,0.0,0.0,0.0,0.0,0.0,0.0,0.0,0.0,0.0,0.0,0.0,0.0,0.0,0.0,0.0,0.0,0.0,0.0,1.969,1.969,1.9989,2.0647,2.0662,2.1138,2.2159,2.2983,2.3489,2.358,2.358,2.358,2.361,2.3615,2.3584,2.3524,2.289,2.2258,2.1691,2.1499,2.118,2.0848,2.1277,0.0,0.0,0.0,0.0,2.2035,2.1602,2.1458,2.1554,2.2002,2.2128,2.2128,2.2175,2.2156,2.217,2.217,2.2667,2.3146,2.3195,2.366,2.4162,2.4162,2.419,2.4219,2.4219,2.5121,2.5937,2.5988,2.6891,2.7625,2.7625,2.7625,2.7625,2.7625,2.7625,2.7625,2.7625,2.7625,2.7625,2.7625,2.7625,2.764,2.767,2.767,2.767,2.767,2.8329,2.8704,2.8741,2.9304,2.9702,2.9732,3.0287,3.0838,3.1322,3.1339,3.1582,3.2106,3.2073,3.2289,3.268,3.2545,3.25,3.2455,3.2364,3.2243,3.2199,3.2199,3.2106,3.2012,3.2012,3.1575,3.0895,0.0,0.0,0.0,0.0,0.0,0.0,0.0,0.0,0.0,0.0,0.0,0.0,0.0,0.0,0.0,0.0,0.0,0.0,0.0,0.0,0.0,0.0,0.0,0.0,0.0,0.0,0.0,0.0,0.0,2.17,2.3606,2.3606,2.3586,2.361,2.3615,2.3302,2.283,2.2683,2.2358,2.1983,0.0,2.186,2.1766,0.0,0.0,0.0,0.0,2.2081,2.2081,2.1955,2.2189,2.2526,2.2663,2.2694,2.274,2.3098,2.3057,2.2912,2.3353,2.3655,2.3929,2.4316,2.459,2.4878,2.5236,2.5336,2.5466,2.5954,2.6255,2.6645,2.7054,2.7405,2.7625,2.7625,2.7625,2.7625,2.7625,2.7625,2.7625,2.7625,2.7625,2.7625,2.7625,2.7625,2.7956,2.8878,2.8565,2.8514,2.8924,2.9199,2.972,3.0529,3.031,3.0634,3.1545,3.2491,3.3134,3.3385,3.3128,3.3121,3.3307,3.2747,3.2545,3.2545,3.25,3.2426,3.2259,3.2229,3.2136,3.2059,3.2059,3.2059,3.2012,3.2012,3.1882,3.1704,0.0,0.0,0.0,0.0,0.0,0.0,0.0,0.0,0.0,0.0,0.0,0.0,0.0,0.0,0.0,0.0,0.0,0.0,0.0,0.0,0.0,0.0,0.0,0.0,0.0,0.0,0.0,0.0,0.0,0.0,0.0,2.1902,2.191,2.1907,2.2699,2.2804,2.2513,2.2862,0.0,0.0,0.0,0.0,0.0,0.0,0.0,0.0,0.0,2.277,2.277,2.277,2.2965,2.3201,2.3201,2.3201,2.3305,2.3881,2.3938,2.3905,2.4479,2.4926,2.5261,2.5585,2.5921,2.6221,2.6476,2.6549,2.6707,2.7049,2.71,2.7203,2.7524,2.7625,2.7625,2.7625,2.7625,2.7625,2.7625,2.7625,2.7625,2.7625,2.7795,2.7894,2.7894,2.84,2.9018,2.9699,2.925,2.9322,3.0136,3.0516,3.099,3.1621,3.1616,3.2065,3.3038,3.3689,3.4151,3.4448,3.4279,3.4223,3.427,3.3839,3.3611,3.3565,3.3518,3.3379,3.3206,3.3175,3.3015,3.2919,3.2919,3.2919,3.2919,3.2919,3.274,3.2481,0.0,0.0,0.0,0.0,0.0,0.0,0.0,0.0,0.0,0.0,0.0,0.0,0.0,0.0,0.0,0.0,0.0,0.0,0.0,0.0,0.0,0.0,0.0,0.0,0.0,0.0,0.0,0.0,0.0,0.0,0.0,0.0,0.0,0.0,0.0,0.0,0.0,0.0,0.0,0.0,0.0,0.0,0.0,0.0,0.0,0.0,2.3465,2.3595,2.3595,2.3595,2.3595,2.3595,2.3595,2.3655,2.3849,2.4403,2.4701,2.5016,2.5585,2.6213,2.6722,2.6722,2.7156,2.7625,2.7625,2.7625,2.7625,2.7625,2.7625,2.7625,2.7625,2.7625,2.7625,2.7625,2.7625,2.7625,2.7625,2.766,2.771,2.771,2.8125,2.8431,2.8523,2.9564,3.0307,3.0593,3.0127,3.0329,3.1387,3.2019,3.2349,3.245,3.3089,3.3681,3.4201,3.4201,3.4448,3.4899,3.4899,3.4899,3.4899,3.4899,3.4899,3.4851,3.4739,3.4643,3.4497,3.4349,3.425,3.4151,3.4151,3.4101,3.4101,3.4101,3.3728,3.3226,0.0,0.0,0.0,0.0,0.0,0.0,0.0,0.0,0.0,0.0,0.0,0.0,0.0,0.0,0.0,0.0,0.0,0.0,0.0,0.0,0.0,0.0,0.0,0.0,0.0,1.969,1.9705,1.9692,1.9692,0.0,0.0,0.0,0.0,0.0,0.0,0.0,0.0,0.0,0.0,0.0,0.0,0.0,0.0,0.0,0.0,0.0,2.3551,2.3595,2.3595,2.3595,2.3595,2.3595,2.3595,2.3984,2.4477,2.4552,2.539,2.6273,2.6393,2.6901,2.7445,2.7445,2.7535,2.7625,2.7625,2.7625,2.7625,2.7625,2.7625,2.7625,2.7625,2.7625,2.7625,2.7625,2.7625,2.7625,2.7625,2.7929,2.8158,2.8158,2.8638,2.9202,2.9785,3.0054,3.0847,3.2498,3.2515,3.2579,3.2741,3.2953,3.3232,3.374,3.4317,3.4643,3.4739,3.4739,3.4804,3.4899,3.4899,3.4899,3.4899,3.4899,3.4851,3.4739,3.4691,3.4643,3.4497,3.4448,3.4399,3.425,3.425,3.4201,3.4101,3.4101,3.4036,3.3922,0.0,0.0,0.0,0.0,0.0,0.0,0.0,0.0,0.0,0.0,2.0239,2.0185,0.0,0.0,0.0,0.0,0.0,0.0,0.0,0.0,0.0,0.0,0.0,0.0,0.0,1.9762,1.9711,1.969,0.0,1.9692,1.9716,2.0117,2.0333,2.037,2.0923,2.1186,2.1231,0.0,0.0,2.2739,2.2996,2.331,0.0,0.0,0.0,0.0,0.0,2.3595,2.3653,2.3867,2.3952,2.3909,2.3681,2.4249,2.5,2.5077,2.5824,2.6662,2.7006,2.7385,2.7625,2.7625,2.7625,2.7625,2.7625,2.7625,2.7625,2.7625,2.7625,2.7625,2.7625,2.7625,2.7625,2.7625,2.7795,2.7978,2.7978,2.84,2.8732,2.8732,2.9166,2.9756,3.0477,3.111,3.2052,3.3365,3.3791,3.4052,3.4052,3.4072,3.4218,3.4497,3.4756,3.4899,3.4899,3.4899,3.4899,3.4899,3.4899,3.4899,3.4899,3.4899,3.4835,3.4787,3.4787,3.4756,3.4594,3.4546,3.4399,3.43,3.4201,3.4151,3.4101,3.4201,3.4201,3.4201,0.0,0.0,0.0,0.0,0.0,0.0,0.0,2.041,2.0444,2.0761,2.0561,2.0407,2.0407,2.0339,0.0,0.0,0.0,0.0,0.0,0.0,0.0,0.0,0.0,0.0,0.0,0.0,0.0,1.9843,1.9777,0.0,0.0,0.0,0.0,0.0,2.0258,2.0498,2.0543,2.1201,2.1784,0.0,0.0,2.2847,2.3415,0.0,0.0,0.0,0.0,2.3696,2.3824,2.4204,2.441,2.4492,2.4048,2.4713,2.5744,2.6016,2.6591,2.7228,2.7758,2.786,2.776,2.776,2.766,2.7625,2.7625,2.7625,2.7625,2.7625,2.7625,2.7625,2.7625,2.7625,2.761,2.771,2.8076,2.8336,2.8448,2.8919,2.9257,2.9257,2.9661,3.0326,3.1206,3.2154,3.3061,3.3955,3.4568,3.4899,3.4899,3.4899,3.4899,3.4899,3.4899,3.4899,3.4899,3.4899,3.4899,3.4899,3.4899,3.4899,3.4899,3.4899,3.4899,3.4899,3.4899,3.4851,3.4739,3.4643,3.4497,3.4399,3.425,3.4201,3.4201,3.43,3.4349,3.4349,0.0,0.0,0.0,0.0,0.0,0.0,0.0,2.1023,2.0958,2.0827,2.0761,2.0761,2.0761,2.046,0.0,0.0,0.0,0.0,0.0,0.0,0.0,0.0,0.0,0.0,0.0,0.0,0.0,2.0228,2.0051,0.0,0.0,0.0,0.0,0.0,0.0,1.9779,1.9824,2.0513,0.0,0.0,0.0,0.0,0.0,0.0,0.0,0.0,0.0,2.4094,2.4261,2.4369,2.4863,2.5313,2.4989,2.5762,2.6993,2.7658,2.8352,2.8903,2.8966,2.8591,2.8255,2.8255,2.7944,2.7625,2.7625,2.7625,2.7625,2.7625,2.7625,2.7625,2.7625,2.7625,2.776,2.8158,2.824,2.8496,2.8982,2.9438,2.975,2.975,3.0156,3.0971,3.2403,3.2646,3.3276,3.4684,3.4866,3.4899,3.4899,3.4899,3.4899,3.4899,3.4899,3.4899,3.4899,3.4899,3.4899,3.4899,3.4899,3.4899,3.4899,3.4899,3.4899,3.4899,3.4899,3.4899,3.4899,3.4851,3.4787,3.4643,3.4643,3.4546,3.4448,3.4497,3.4497,3.4497,0.0,0.0,0.0,0.0,0.0,0.0,0.0,2.123,2.1167,2.1166,2.0942,2.086,2.0974,2.0761,2.0561,0.0,0.0,0.0,0.0,0.0,0.0,0.0,0.0,0.0,0.0,0.0,2.0157,2.0294,2.0213,0.0,0.0,0.0,0.0,0.0,0.0,1.9848,1.9792,2.0062,0.0,0.0,0.0,0.0,0.0,0.0,0.0,0.0,0.0,0.0,2.4177,2.4719,2.5059,2.5448,2.6248,2.6864,2.7313,2.745,2.7933,2.8537,2.8963,2.8919,2.8779,2.8779,2.8654,2.8415,2.8076,2.8027,2.7929,2.766,2.7845,2.7944,2.766,2.8091,2.8463,2.8304,2.881,2.9287,2.9483,2.9941,3.0199,3.0199,3.0384,3.109,3.2547,3.268,3.3292,3.4783,3.4899,3.4899,3.4899,3.4899,3.4899,3.4899,3.4899,3.4899,3.4899,3.4899,3.4899,3.4899,3.4899,3.4899,3.4899,3.4899,3.4899,3.4899,3.4899,3.4899,3.4899,3.4787,3.4756,3.4691,3.4594,3.4283,3.3842,3.3937,3.3658,3.328,0.0,0.0,0.0,0.0,0.0,0.0,2.1464,2.1388,2.1325,2.1386,2.1135,2.1023,2.1167,2.1023,2.086,2.0695,0.0,0.0,0.0,0.0,0.0,0.0,0.0,0.0,0.0,0.0,2.0292,2.0303,2.0303,2.0238,0.0,0.0,2.0056,2.0005,0.0,0.0,0.0,0.0,0.0,0.0,0.0,0.0,0.0,0.0,0.0,0.0,0.0,0.0,0.0,0.0,0.0,2.5782,2.6911,2.7222,0.0,2.7501,2.783,2.8308,2.903,2.9134,2.9077,2.9255,2.9212,2.9042,2.8654,2.8528,2.8448,2.8174,2.8336,2.848,2.811,2.8638,2.9042,0.0,2.9332,2.9853,2.9984,3.03,3.0526,3.0526,3.0526,3.109,3.2547,3.3077,3.3773,3.4816,3.4899,3.4899,3.4899,3.4899,3.4899,3.4899,3.4899,3.4899,3.4899,3.4899,3.4899,3.4899,3.5024,3.5118,3.5118,3.5118,3.5118,3.5118,3.493,3.4899,3.4899,3.4804,3.4624,3.4426,3.433,3.3822,3.3228,3.3321,3.2991,3.2545,0.0,0.0,0.0,0.0,0.0,0.0,0.0,2.1589,2.1542,2.1417,2.1386,2.1355,2.1309,2.1294,2.1246,2.1103,0.0,0.0,0.0,0.0,0.0,0.0,0.0,0.0,0.0,0.0,2.0304,2.0304,2.0304,2.022,2.01,2.01,2.0045,2.0005,0.0,0.0,0.0,0.0,0.0,0.0,0.0,0.0,0.0,0.0,0.0,0.0,0.0,0.0,0.0,0.0,0.0,0.0,0.0,2.6554,0.0,0.0,2.8548,2.8655,2.9387,2.9272,2.903,2.9659,2.9496,2.9194,2.9178,2.9134,2.9166,2.9316,2.93,2.9194,2.9178,2.9178,2.9345,2.9705,2.9793,2.9984,3.0426,3.0526,3.0526,3.0526,3.0526,3.109,3.2547,3.4005,3.4883,3.4899,3.4899,3.4899,3.4899,3.4899,3.4899,3.4899,3.4899,3.4899,3.4899,3.4899,3.4899,3.4899,3.5362,3.5571,3.5571,3.5571,3.5571,3.5588,3.5118,3.4899,3.4899,3.4899,3.4468,3.3806,3.3806,3.3359,3.2696,3.2696,3.2696,3.2768,0.0,0.0,0.0,0.0,0.0,0.0,0.0,2.1664,2.1634,2.1542,2.1464,2.1355,2.1325,2.134,2.134,2.1246,0.0,0.0,0.0,0.0,0.0,0.0,0.0,0.0,0.0,0.0,2.0299,2.0299,2.0426,2.0423,2.0235,2.0323,2.0323,2.02,2.0289,2.022,0.0,0.0,0.0,0.0,0.0,0.0,2.2286,0.0,0.0,0.0,0.0,0.0,0.0,0.0,0.0,0.0,0.0,0.0,0.0,2.7163,2.7561,2.8085,2.9321,2.9559,2.9606,3.0369,3.0452,3.0267,2.9892,2.9805,2.9733,2.9451,2.9629,2.9717,2.939,2.9892,3.0267,2.9968,3.0199,3.0426,3.0468,3.0526,3.0526,3.0526,3.1404,3.2183,3.263,3.4021,3.4899,3.4899,3.4899,3.5024,3.5362,3.5362,3.5241,3.4899,3.4899,3.4899,3.4899,3.5241,3.5362,3.5362,3.582,3.5864,3.5616,3.5616,3.5407,3.5102,3.4977,3.4601,3.4137,3.4137,3.3707,3.3027,3.3027,3.2757,3.2362,3.2362,3.2215,3.1998,0.0,0.0,0.0,0.0,0.0,0.0,0.0,2.1738,2.1708,2.165,2.1573,2.1495,2.1419,2.1433,2.1495,2.157,0.0,0.0,0.0,0.0,0.0,0.0,0.0,0.0,0.0,2.055,2.0628,2.0483,2.066,2.0657,2.0494,2.0561,2.0561,2.0494,2.0595,2.0527,0.0,0.0,0.0,0.0,0.0,0.0,2.237,0.0,0.0,0.0,0.0,0.0,0.0,0.0,0.0,0.0,0.0,0.0,0.0,0.0,2.6961,2.7444,2.8615,2.895,2.9185,3.0185,3.0493,3.0503,3.0468,3.0393,3.0351,3.0123,3.0251,3.0351,3.0081,3.0535,3.0814,3.041,3.0593,3.0733,3.0609,3.0716,3.0821,3.0925,3.2277,3.3186,3.3186,3.4516,3.5391,3.5391,3.5391,3.5526,3.582,3.582,3.5688,3.5391,3.5391,3.5391,3.5391,3.5688,3.582,3.582,3.6274,3.6232,3.582,3.582,3.5571,3.5131,3.4678,3.4296,0.0,3.3566,3.3134,3.2706,3.2553,3.2311,3.2015,3.2015,3.1863,3.1677,0.0,0.0,0.0,0.0,0.0,0.0,0.0,0.0,0.0,0.0,2.1724,2.1708,2.165,2.1634,2.1768,0.0,0.0,0.0,0.0,0.0,0.0,0.0,0.0,0.0,0.0,2.0988,2.1148,2.0843,2.0939,2.0939,2.0794,2.0827,2.0827,2.0794,2.0827,2.0827,0.0,0.0,0.0,0.0,0.0,0.0,0.0,0.0,0.0,0.0,0.0,0.0,0.0,0.0,0.0,0.0,0.0,0.0,0.0,0.0,0.0,0.0,0.0,2.7649,2.8037,2.9336,2.9777,3.0073,3.078,3.0942,0.0,3.1151,3.1112,3.1015,3.1015,3.1015,3.0975,3.0912,3.0952,3.0895,3.0773,3.1061,3.1432,3.1677,3.3076,3.4007,3.4007,3.5352,3.6172,3.6172,3.6172,3.6215,3.6274,3.6274,3.6274,3.6316,3.6316,3.6256,3.6172,3.6215,3.6274,3.6274,3.6741,3.6684,3.6274,3.6274,3.602,3.5582,3.4409,3.4058,3.4276,3.3161,3.2731,3.2672,3.2315,3.2008,3.175,3.175,3.175,3.175,0.0,0.0,0.0,0.0,0.0,0.0,0.0,0.0,0.0,0.0,0.0,2.1969,2.1911,2.2136,0.0,0.0,0.0,0.0,0.0,0.0,0.0,0.0,0.0,0.0,0.0,2.1215,2.1247,2.1199,2.1119,2.099,2.0794,2.0958,2.0958,2.0794,2.0958,2.1023,2.1038,0.0,0.0,0.0,0.0,0.0,0.0,0.0,0.0,0.0,2.5639,2.6016,0.0,0.0,0.0,0.0,0.0,0.0,0.0,0.0,2.6691,2.6725,2.6877,0.0,2.8009,2.8918,2.9631,3.0104,0.0,3.0762,3.1151,3.119,3.119,3.1151,3.1151,3.1151,3.1112,3.0992,3.1218,3.1355,3.1179,3.1432,3.162,3.1677,3.3076,3.4007,3.4007,3.5352,3.6172,3.6172,3.6172,3.6357,3.6741,3.6741,3.69,3.7243,3.7281,3.6939,3.6232,3.6563,3.6741,3.6741,3.7206,3.7206,3.6741,3.6741,3.6481,3.6011,3.5164,3.4531,3.4014,3.3146,3.2454,3.1935,3.184,3.196,3.2162,3.2162,3.2335,3.2537,0.0,0.0,0.0,0.0,0.0,0.0,0.0,0.0,0.0,0.0,0.0,0.0,0.0,0.0,0.0,0.0,0.0,0.0,0.0,0.0,0.0,0.0,0.0,0.0,0.0,2.1381,2.1385,2.1278,2.1262,2.1183,2.1023,2.1151,2.1119,2.1023,2.1151,2.1183,2.1199,2.099,2.0925,2.0925,2.0827,0.0,0.0,0.0,0.0,0.0,2.6065,2.6505,0.0,2.6775,2.6825,2.6792,0.0,0.0,0.0,0.0,2.6691,2.6691,2.6691,2.6996,2.7486,2.8264,2.8755,2.9245,2.9956,3.0412,3.0784,3.1123,3.119,3.1269,3.1389,3.1389,3.1428,3.1582,3.1677,3.1823,3.1877,3.202,3.2162,3.23,3.367,3.4618,3.4581,3.5966,3.686,3.686,3.686,3.6939,3.7206,3.7243,3.7337,3.7577,3.7577,3.7374,3.686,3.7111,3.7243,3.7243,3.7503,3.7356,3.69,3.69,3.6469,3.5656,3.4915,3.4259,3.3651,3.2665,3.226,3.2231,3.2056,3.2231,3.2555,3.2352,3.2506,3.2654,0.0,0.0,0.0,0.0,0.0,0.0,0.0,0.0,0.0,0.0,0.0,0.0,0.0,0.0,0.0,0.0,0.0,0.0,0.0,0.0,0.0,0.0,0.0,2.1513,2.1641,2.1723,2.1703,2.1538,2.1493,2.1479,2.1433,2.134,2.1325,2.1309,2.1356,2.134,2.1309,2.1246,2.1199,2.1119,2.1007,0.0,0.0,0.0,0.0,0.0,0.0,0.0,0.0,2.7007,2.6959,2.6926,2.6893,0.0,0.0,0.0,0.0,0.0,2.6858,2.6841,2.7011,2.7555,2.7792,2.8216,2.9539,0.0,3.0142,3.0869,3.1021,3.1172,3.1603,3.1637,3.1748,3.2214,3.2179,3.2214,3.2606,3.2639,3.2737,3.2948,3.4303,3.5182,3.5204,3.6542,3.7452,3.7577,3.7577,3.7577,3.7577,3.7577,3.7577,3.7577,3.7577,3.7577,3.7577,3.7577,3.7577,3.7577,3.7577,3.7374,3.6978,3.6872,3.6256,3.5255,3.4372,3.3816,3.3424,3.2316,3.23,3.2884,3.2521,3.2606,3.2852,3.2539,3.2488,3.2488,0.0,0.0,0.0,0.0,0.0,0.0,0.0,0.0,0.0,0.0,0.0,0.0,0.0,0.0,0.0,0.0,0.0,0.0,0.0,0.0,0.0,0.0,2.2617,2.2576,2.3155,2.2809,2.259,2.2552,2.2065,2.1911,2.2051,2.1524,2.134,2.1386,2.1511,2.1511,2.1386,2.1601,2.1526,2.1309,2.1675,0.0,0.0,0.0,0.0,0.0,0.0,0.0,0.0,2.7007,2.6975,2.6975,2.6926,0.0,0.0,0.0,0.0,0.0,2.7474,2.7535,2.7509,2.7319,2.777,2.8286,2.8527,2.8867,2.9364,3.0125,3.0277,3.0523,3.1459,3.1657,3.1804,3.2162,3.2386,3.2588,3.2916,3.2884,3.2884,3.2916,3.3737,3.4526,3.515,3.6042,3.6863,3.7541,3.7577,3.7577,3.7577,3.7577,3.7577,3.7577,3.7577,3.7577,3.7577,3.7577,3.7577,3.7577,3.7577,3.7577,3.7468,3.6809,3.6399,3.6114,3.4711,3.407,3.3926,3.3075,3.2802,3.2884,3.2852,3.2852,3.2884,3.2852,3.2705,3.2488,0.0,0.0,0.0,0.0,0.0,0.0,0.0,0.0,0.0,0.0,0.0,0.0,0.0,0.0,0.0,0.0,0.0,0.0,0.0,0.0,0.0,0.0,2.3193,2.3195,2.3484,2.3076,2.2842,2.2787,2.2398,2.2231,2.2286,2.2022,2.1907,2.1919,2.201,2.1953,2.1836,2.1953,2.1924,2.1807,0.0,0.0,0.0,0.0,0.0,0.0,0.0,0.0,0.0,0.0,2.7105,2.7055,2.7023,0.0,0.0,0.0,0.0,0.0,2.7624,2.78,2.7897,2.7707,2.784,2.807,2.8488,2.8724,2.9109,2.9851,3.0351,3.0837,3.1428,3.1917,3.2266,3.2521,3.2719,3.2898,3.2979,3.3011,3.2993,3.2948,3.3663,3.4416,3.5132,3.5935,3.672,3.7523,3.7577,3.7577,3.7577,3.7577,3.7577,3.7577,3.7577,3.7577,3.7577,3.7577,3.7577,3.7577,3.7577,3.7362,3.6934,3.656,3.5953,3.5114,3.4418,3.3847,3.3419,3.3045,3.2916,3.2916,3.2916,3.2916,3.2884,3.277,3.2555,3.2266,0.0,0.0,0.0,0.0,0.0,0.0,0.0,0.0,0.0,0.0,0.0,0.0,0.0,0.0,0.0,0.0,0.0,0.0,0.0,0.0,2.3517,2.3494,2.3494,2.3508,2.3513,2.3203,2.3017,2.2955,2.273,2.2529,2.2395,2.2493,2.2493,2.2422,2.2439,2.2358,2.222,2.2292,2.2265,2.222,0.0,0.0,0.0,0.0,0.0,0.0,0.0,0.0,0.0,0.0,0.0,0.0,0.0,0.0,0.0,2.7365,2.75,2.7572,2.784,2.8093,2.8255,2.8228,2.801,2.7941,2.8511,2.8592,2.8741,2.9481,3.0129,3.0735,3.1377,3.2186,3.277,3.2898,3.3042,3.3073,3.2979,3.3042,3.3024,3.2979,3.3516,3.4235,3.5114,3.5774,3.6559,3.7542,3.7613,3.7613,3.7613,3.7613,3.7577,3.7577,3.7577,3.7577,3.7577,3.7577,3.7577,3.7577,3.7577,3.7166,3.6381,3.6203,3.5382,3.4097,3.3901,3.3455,3.2916,3.2916,3.2916,3.2916,3.2916,3.2916,3.2884,3.2672,3.242,3.2162,0.0,0.0,0.0,0.0,0.0,0.0,0.0,0.0,0.0,0.0,0.0,0.0,0.0,0.0,0.0,0.0,0.0,0.0,0.0,0.0,2.3562,2.3517,2.3494,2.3494,2.3506,2.3471,2.3453,2.3448,2.3133,2.2773,2.2422,2.2712,2.2738,2.2485,2.2483,2.2419,2.233,2.2571,2.2473,2.2248,2.279,0.0,0.0,0.0,0.0,0.0,0.0,0.0,0.0,0.0,0.0,0.0,0.0,0.0,2.7612,2.7783,2.8047,2.829,2.8551,2.8644,2.8644,2.8587,2.8326,2.8093,2.8146,2.7957,2.7999,2.8724,2.8917,2.9484,3.1182,3.2375,3.3055,3.3086,3.3042,3.2979,3.2916,3.2916,3.2916,3.2916,3.2969,3.3562,3.5061,3.5361,3.6109,3.7596,3.7703,3.7703,3.7703,3.7649,3.7577,3.7577,3.7577,3.7577,3.7577,3.7577,3.7577,3.7577,3.7577,3.7166,3.6363,3.5632,3.4865,3.4062,3.3294,3.2938,3.2916,3.2916,3.2916,3.2916,3.2916,3.2916,3.2884,3.2672,3.2588,3.2521,0.0,0.0,0.0,0.0,0.0,0.0,0.0,0.0,0.0,0.0,0.0,0.0,0.0,0.0,0.0,0.0,0.0,0.0,0.0,0.0,2.3585,2.3562,2.3517,2.3494,2.3494,2.3494,2.3494,2.3494,2.3383,2.323,2.3091,2.3199,2.3223,2.3116,2.3109,2.3035,2.2917,2.3028,2.3003,2.2944,2.3535,2.4427,0.0,0.0,0.0,0.0,0.0,0.0,0.0,0.0,2.7299,2.7313,0.0,2.7552,2.7742,2.8138,2.8326,2.8404,2.8644,2.8687,2.8637,2.8612,2.8492,2.8422,2.8422,2.8317,2.8327,2.8613,2.906,2.9912,3.1583,3.2504,3.3042,3.3042,3.2979,3.2916,3.2916,3.2916,3.2916,3.2916,3.2916,3.3312,3.4418,3.4988,3.5754,3.6933,3.7435,3.7703,3.7703,3.7667,3.7649,3.7577,3.7577,3.7577,3.7577,3.7649,3.7435,3.6898,3.6881,3.6435,3.5632,3.4865,3.4097,3.333,3.3009,3.2916,3.2916,3.2916,3.2916,3.2916,3.2916,3.2916,3.2884,3.2802,3.2787,3.2787,0.0,0.0,0.0,0.0,0.0,0.0,0.0,0.0,0.0,0.0,0.0,0.0,0.0,0.0,0.0,0.0,0.0,0.0,0.0,2.3696,2.3629,2.3585,2.3562,2.3517,2.3494,2.3494,2.3494,2.3494,2.3494,2.3494,2.3494,2.3494,2.3494,2.3494,2.3471,2.3401,2.3289,2.3289,2.3289,2.336,2.4003,2.4803,0.0,0.0,0.0,0.0,0.0,0.0,0.0,0.0,2.7421,0.0,0.0,0.0,2.8055,2.8414,2.8518,2.8594,2.8669,2.8687,2.8637,2.8612,2.8587,2.8587,2.8587,2.8587,2.8587,2.8587,2.9445,3.0514,3.1562,3.2433,3.3042,3.3042,3.2948,3.2916,3.2916,3.2916,3.2916,3.2916,3.2916,3.3237,3.4026,3.4577,3.5395,3.6538,3.7094,3.7488,3.7739,3.7757,3.7721,3.7613,3.7667,3.7542,3.7238,3.7345,3.6986,3.6179,3.5878,3.545,3.488,3.4329,3.3651,3.2916,3.2916,3.2916,3.2916,3.2916,3.2916,3.2916,3.2916,3.2916,3.2916,3.2916,3.2916,3.2916,0.0,0.0,0.0,0.0,0.0,0.0,0.0,0.0,0.0,0.0,0.0,0.0,0.0,0.0,0.0,0.0,0.0,0.0,0.0,2.3804,2.3739,2.3607,2.3585,2.3562,2.3494,2.3494,2.3494,2.3494,2.3494,2.3494,2.3494,2.3494,2.3494,2.3494,2.336,2.3289,2.3289,2.3289,2.333,2.3377,2.4095,2.4872,2.5667,0.0,0.0,0.0,0.0,0.0,0.0,0.0,2.7672,2.8047,0.0,0.0,0.0,2.8518,2.8694,2.8881,2.8743,2.8694,2.8669,2.8612,2.8587,2.8587,2.8587,2.8587,2.8587,2.8605,2.9898,3.0985,3.1003,3.2144,3.3086,3.3086,3.3011,3.2916,3.2916,3.2916,3.2916,3.2916,3.2948,3.3269,3.4026,3.4243,3.4968,3.6568,3.6694,3.7054,3.7845,3.7881,3.781,3.7595,3.7757,3.7451,3.6503,3.6608,3.6299,3.549,3.4699,3.4257,3.4211,3.4112,3.3651,3.2916,3.2916,3.2916,3.2916,3.2916,3.2916,3.2916,3.2916,3.2916,3.2916,3.2916,3.2916,3.2916,0.0,0.0,0.0,0.0,0.0,0.0,0.0,0.0,0.0,0.0,0.0,0.0,0.0,0.0,0.0,0.0,0.0,0.0,0.0,2.3807,2.3761,2.3656,2.3629,2.3562,2.3494,2.3494,2.3494,2.3494,2.3494,2.3494,2.3494,2.3494,2.3494,2.3494,2.3471,2.3448,2.3448,2.3448,2.3768,2.4337,2.4874,2.565,2.648,0.0,0.0,0.0,0.0,0.0,0.0,0.0,0.0,0.0,0.0,0.0,0.0,2.8743,2.881,2.881,2.8718,2.8687,2.8612,2.8612,2.8587,2.8587,2.8587,2.8587,2.8775,2.9318,3.026,3.1166,3.1727,3.26,3.3262,3.3262,3.3135,3.3024,3.3024,3.3024,3.3024,3.3024,3.3055,3.3163,3.3382,3.3948,3.4519,3.5087,3.5609,3.6023,3.6258,3.6276,3.6242,3.6107,3.6175,3.6067,3.5783,3.5882,3.5486,3.4663,3.4429,3.4257,3.4193,3.3651,3.3243,3.2979,3.2979,3.2979,3.2948,3.2916,3.2916,3.2916,3.2916,3.2916,3.2916,3.2916,3.2916,3.2916,0.0,0.0,0.0,0.0,0.0,0.0,0.0,0.0,0.0,0.0,0.0,0.0,0.0,0.0,0.0,0.0,0.0,0.0,0.0,0.0,2.381,2.3813,2.3747,2.3721,2.37,2.37,2.37,2.37,2.3585,2.3494,2.3494,2.3549,2.3549,2.3517,2.3567,2.3567,2.3494,2.3494,2.3916,2.4626,2.5174,2.5865,2.6648,0.0,0.0,0.0,0.0,0.0,0.0,0.0,0.0,0.0,2.8576,0.0,2.8767,2.8858,2.8834,2.8785,2.8687,2.8637,2.8587,2.8587,2.8587,2.8587,2.8587,2.8587,2.8848,2.9626,3.0423,3.1238,3.2053,3.281,3.331,3.331,3.3183,3.3086,3.3086,3.3086,3.3086,3.3086,3.3135,3.3165,3.3117,3.3597,3.4078,3.4483,3.4916,3.5313,3.557,3.567,3.5606,3.5508,3.5591,3.5429,3.5073,3.5169,3.4772,3.3947,3.3947,3.3903,3.3822,3.3288,3.3073,3.3042,3.3011,3.2979,3.2979,3.2916,3.2916,3.2916,3.2916,3.2916,3.2916,3.2916,3.2916,3.2916,0.0,0.0,0.0,0.0,0.0,0.0,0.0,0.0,0.0,0.0,0.0,0.0,0.0,0.0,0.0,0.0,0.0,0.0,0.0,0.0,2.386,2.3983,2.3959,2.3958,2.4036,2.4016,2.4016,2.4036,2.3703,2.3562,2.3544,2.3685,2.3664,2.3544,2.3667,2.3664,2.3562,2.3611,2.4005,2.4647,2.5306,2.5943,2.6592,2.7143,0.0,0.0,0.0,0.0,0.0,0.0,0.0,0.0,2.8718,2.8791,2.8952,2.8834,2.881,2.8761,2.8637,2.8612,2.8587,2.8587,2.8587,2.8587,2.8587,2.8587,2.8848,2.9626,3.0423,3.1238,3.2053,3.281,3.3292,3.3292,3.3214,3.3117,3.3117,3.3117,3.3117,3.3117,3.3244,3.3244,3.3135,3.3244,3.3599,3.4339,3.4393,3.4681,3.5367,3.5521,3.5489,3.5325,3.5489,3.516,3.4321,3.4418,3.4117,3.3422,3.3393,3.3364,3.3382,3.3152,3.3073,3.3117,3.3042,3.3011,3.3011,3.2948,3.2916,3.2979,3.2948,3.293,3.2979,3.2979,3.2979,3.2979,0.0,0.0,0.0,0.0,0.0,0.0,0.0,0.0,0.0,0.0,0.0,0.0,0.0,0.0,0.0,0.0,0.0,0.0,0.0,0.0,2.386,2.3983,2.404,2.4117,2.4229,2.4078,2.4077,2.4229,2.4018,2.3894,2.3894,2.3917,2.3935,2.3894,2.3917,2.3935,2.391,2.4392,2.5136,2.6005,2.6527,2.7366,2.8247,2.8076,2.8138,0.0,0.0,0.0,0.0,0.0,0.0,0.0,2.8929,2.8952,2.8975,2.8905,2.8834,2.8785,2.8712,2.8637,2.8587,2.8587,2.8587,2.8587,2.8587,2.8587,2.8848,2.9626,3.0423,3.1238,3.2053,3.2868,3.3382,3.3382,3.3364,3.3334,3.3334,3.3334,3.3334,3.3334,3.3364,3.3382,3.3334,3.3364,3.3454,3.3617,3.3635,3.3707,3.387,3.3888,3.3888,3.384,3.3888,3.3828,3.3617,3.3647,3.3644,3.3615,3.3422,3.3502,3.3839,3.3473,3.3274,3.3262,3.3135,3.3165,3.3304,3.3011,3.3117,3.3415,3.3238,3.325,3.3444,3.3444,3.3444,3.3444,0.0,0.0,0.0,0.0,0.0,0.0,0.0,0.0,0.0,0.0,0.0,0.0,0.0,0.0,0.0,0.0,0.0,0.0,0.0,0.0,0.0,2.4135,2.4319,2.4441,2.4491,2.4391,2.4355,2.4442,2.4338,2.4191,2.3996,2.4075,2.4075,2.3996,2.4075,2.4075,2.4051,2.4747,2.5528,2.6309,2.6934,2.7702,2.8507,2.8237,2.8326,2.8543,2.8404,0.0,0.0,0.0,0.0,0.0,0.0,0.0,2.8994,2.8929,2.8881,2.8858,2.8845,2.8821,2.8803,2.8915,2.8938,2.8938,2.8938,2.8845,2.8919,2.932,2.9948,3.0785,3.1981,3.2542,3.294,3.3339,3.3393,3.3393,3.3393,3.3393,3.3393,3.3393,3.3491,3.3605,3.3605,3.3605,3.3643,3.378,3.3671,3.3661,3.378,3.378,3.378,3.378,3.378,3.378,3.378,3.378,3.386,3.3947,3.3807,3.385,3.4068,3.3734,3.3643,3.3726,3.3415,3.3426,3.3662,3.339,3.3419,3.3616,3.3504,3.3494,3.3605,3.3605,3.3605,3.3605,0.0,0.0,0.0,0.0,0.0,0.0,0.0,0.0,0.0,0.0,0.0,0.0,0.0,0.0,0.0,0.0,0.0,0.0,0.0,0.0,0.0,0.0,2.4594,2.4753,2.4723,2.4707,2.4676,2.4631,2.4615,0.0,0.0,0.0,0.0,2.4095,2.4192,2.4191,2.4149,2.5061,2.5768,2.6318,2.7224,2.7929,2.8368,2.829,2.8438,2.8676,2.8651,2.8815,2.8994,2.8994,0.0,0.0,0.0,0.0,2.8994,2.8929,2.8905,2.891,2.8993,2.9042,2.9086,2.9272,2.9293,2.9293,2.9293,2.9185,2.9048,2.9048,2.9485,3.0267,3.1556,3.1974,3.2346,3.3096,3.3263,3.3356,3.3444,3.3491,3.352,3.352,3.3726,3.3868,3.3868,3.3868,3.3947,3.4173,3.3998,3.3972,3.4197,3.4197,3.4197,3.4197,3.4197,3.4197,3.4197,3.4197,3.4221,3.4269,3.4298,3.4316,3.4269,3.4049,3.4023,3.4173,3.3762,3.3752,3.4049,3.3847,3.3768,3.3821,3.3768,3.3725,3.3698,3.3698,3.3698,3.3698,0.0,0.0,0.0,0.0,0.0,0.0,0.0,0.0,0.0,0.0,0.0,0.0,0.0,0.0,0.0,0.0,0.0,0.0,2.3795,0.0,0.0,2.4284,2.4513,2.4676,2.4779,2.4738,2.4692,2.4692,0.0,0.0,0.0,0.0,0.0,2.4429,0.0,2.4465,2.4522,2.585,2.6571,2.6911,2.8254,2.8934,2.9134,2.9003,2.898,2.9021,2.8952,2.897,2.8994,2.8994,2.8994,0.0,0.0,0.0,2.8994,2.8994,2.8952,2.8934,2.9123,2.9233,2.9277,2.9275,2.9293,2.9293,2.9293,2.9272,2.9251,2.9251,2.9683,3.007,3.0114,3.1004,3.1906,3.23,3.2698,3.3142,3.367,3.3947,3.4099,3.4099,3.4124,3.4148,3.4148,3.4148,3.4173,3.4197,3.4173,3.4173,3.4197,3.4197,3.4197,3.4197,3.4197,3.4197,3.4197,3.4197,3.4316,3.4539,3.4711,3.4711,3.4539,3.4517,3.4404,3.4197,3.4018,3.4093,3.4321,3.4,3.4043,3.4293,3.4105,3.4074,3.4124,3.4124,3.4124,3.4124,0.0,0.0,0.0,0.0,0.0,0.0,0.0,0.0,0.0,0.0,0.0,0.0,0.0,0.0,0.0,2.3795,2.3837,2.3899,2.4019,2.4211,2.4373,2.453,2.4726,2.4846,2.4903,2.4875,2.4817,2.4707,0.0,0.0,0.0,2.45,2.45,0.0,0.0,0.0,0.0,2.6301,2.708,2.7677,2.8741,2.9218,2.9302,2.9197,2.9134,2.9108,2.9085,2.904,2.8994,2.8994,2.8994,2.8994,2.8994,0.0,0.0,0.0,2.8994,2.9021,2.9291,2.9532,2.968,2.9644,2.9644,2.9644,2.9644,2.9551,2.9474,2.9474,2.9656,2.9901,3.0134,3.0637,3.1224,3.182,3.2096,3.2321,3.2594,3.2704,3.2966,3.3412,3.3608,3.3904,3.4371,3.4409,3.4476,3.4588,3.4498,3.4476,3.4588,3.4588,3.4588,3.4588,3.4588,3.4588,3.4588,3.4588,3.4649,3.4771,3.487,3.4851,3.4771,3.4771,3.4691,3.4567,3.4325,3.4394,3.467,3.448,3.4454,3.4495,3.4409,3.4293,3.4197,3.4197,3.4197,3.4197,0.0,0.0,0.0,0.0,0.0,0.0,0.0,0.0,0.0,0.0,0.0,0.0,0.0,0.0,0.0,0.0,2.3917,2.4058,2.4266,2.4426,2.4561,2.4689,2.4846,2.495,2.501,2.501,2.4922,0.0,0.0,0.0,2.4534,2.4517,2.45,0.0,2.45,2.4946,0.0,2.6563,2.7362,2.816,2.8971,2.9262,2.928,2.9197,2.9112,2.9089,2.9089,2.9085,2.904,2.904,2.9017,2.8994,2.8994,2.8994,0.0,0.0,0.0,2.9185,2.9493,2.977,2.9991,2.994,2.9905,2.9888,2.9888,2.9769,2.9681,2.9681,2.9681,2.9814,3.0258,3.035,3.0588,3.1277,3.1492,3.1632,3.1771,3.1853,3.2101,3.2702,3.2945,3.3332,3.399,3.4047,3.4089,3.4245,3.4148,3.4108,3.4263,3.4263,3.4263,3.4263,3.4472,3.4605,3.4605,3.4605,3.4472,3.4263,3.4491,3.4605,3.4605,3.4813,3.4908,3.4889,3.4628,3.467,3.4908,3.4849,3.4728,3.4583,3.4645,3.4473,3.4197,3.4245,3.4221,3.4197,0.0,0.0,0.0,0.0,0.0,0.0,0.0,0.0,0.0,0.0,0.0,0.0,0.0,2.3837,2.3795,2.3795,2.4039,2.4266,2.4472,2.4493,2.4559,2.4697,2.4704,0.0,2.4996,2.501,0.0,0.0,0.0,0.0,2.4599,2.4534,2.45,2.45,2.45,2.4946,2.5745,2.6563,2.7362,2.816,2.891,2.9218,2.9178,2.9062,2.9062,2.9089,2.9089,2.9108,2.9089,2.9089,2.9044,2.8994,2.8994,2.8994,2.8994,0.0,0.0,0.0,2.9732,2.9888,3.0007,3.0007,2.9956,2.9888,2.9888,2.9888,2.9888,2.9888,2.9888,2.9891,2.9929,2.9929,3.0073,3.0488,3.0941,3.1429,3.1991,3.2241,3.239,3.2428,3.2428,3.2464,3.2521,3.2521,3.2521,3.2539,3.2521,3.2521,3.2539,3.2539,3.2539,3.2539,3.3335,3.3752,3.3752,3.3752,3.3354,3.2539,3.3373,3.3752,3.379,3.4548,3.4908,3.4908,3.487,3.487,3.4908,3.4908,3.4791,3.4623,3.4747,3.4539,3.4221,3.434,3.4316,3.4197,0.0,0.0,0.0,0.0,0.0,0.0,0.0,0.0,0.0,0.0,0.0,0.0,0.0,2.4117,2.4192,2.4192,2.432,2.4478,2.4692,2.4692,2.4738,2.4889,2.4889,2.4922,2.4996,2.501,0.0,0.0,0.0,2.466,2.4599,2.4515,2.45,2.45,2.45,2.5224,2.6488,2.6786,2.7697,2.8959,2.9235,2.9326,2.9326,2.928,2.924,2.9218,2.9218,2.9175,2.9089,2.9089,2.9062,2.8994,2.8994,2.8994,2.904,2.9141,2.9336,2.9533,2.9753,2.9907,2.9988,2.9956,2.9924,2.9888,2.9888,2.9888,2.9888,2.9888,2.9888,2.9888,2.9888,2.9888,2.995,3.0094,3.0258,3.044,3.0673,3.0745,3.1004,3.1572,3.1629,3.1838,3.2349,3.2406,3.2406,3.2406,3.2406,3.2406,3.2406,3.2406,3.2406,3.2406,3.271,3.288,3.288,3.288,3.271,3.2406,3.2728,3.288,3.288,3.3164,3.3297,3.3297,3.3297,3.3903,3.4908,3.4908,3.4831,3.4747,3.4788,3.4623,3.434,3.4386,3.4316,3.4197,0.0,0.0,0.0,0.0,0.0,0.0,0.0,0.0,0.0,0.0,0.0,0.0,0.0,0.0,2.4424,2.4491,2.4543,2.4657,2.4894,2.4894,2.4922,2.5004,2.4991,2.501,2.501,2.501,0.0,0.0,0.0,0.0,0.0,2.4532,2.45,2.4518,2.4778,2.5652,2.6935,2.7195,2.8124,2.9407,2.9431,2.9409,2.9365,2.939,2.9349,2.9323,2.9349,2.931,2.9249,2.9291,2.927,2.9225,2.9115,2.9044,2.9044,2.9314,2.9456,2.9551,2.9857,2.9991,3.0022,2.9972,2.9956,2.994,2.9924,2.9888,2.9888,2.9888,2.9888,2.9888,2.9888,2.9888,2.9888,2.9888,2.9888,2.9888,2.9888,2.9888,3.0097,3.0701,3.0758,3.0985,3.1516,3.1572,3.1572,3.1572,3.1572,3.1572,3.1572,3.1572,3.1705,3.1989,3.2008,3.2008,3.2008,3.2008,3.1857,3.1572,3.1857,3.2008,3.2008,3.2293,3.2406,3.2406,3.2406,3.3032,3.4055,3.4055,3.4018,3.3958,3.3958,3.3987,3.3994,3.3994,3.4093,3.4197,0.0,0.0,0.0,0.0,0.0,0.0,0.0,0.0,0.0,0.0,0.0,0.0,0.0,0.0,0.0,2.4682,2.4712,2.4823,2.5089,2.5044,2.4993,2.4993,2.5004,2.501,2.501,2.501,2.501,0.0,0.0,0.0,0.0,0.0,2.45,2.4537,2.5373,2.6172,2.6953,2.7771,2.8608,2.9407,2.9474,2.9415,2.9304,2.9377,2.9355,2.9326,2.9456,2.9514,2.9533,2.9661,2.9697,2.9644,2.9375,2.9163,2.9089,2.9494,2.957,2.9607,0.0,0.0,0.0,3.0102,3.0038,2.9991,2.9924,2.9905,2.9888,2.9888,2.9888,2.9888,2.9888,2.9888,2.9888,2.9888,2.9888,2.9888,2.9888,2.9888,2.9888,2.9888,2.9888,2.9888,2.9888,2.9888,2.9888,2.9888,2.9888,2.9888,2.9888,2.9888,3.0286,3.1137,3.1174,3.1174,3.1174,3.1174,3.0739,2.9907,3.0758,3.1174,3.1193,3.197,3.233,3.233,3.233,3.233,3.233,3.2387,3.2372,3.2298,3.2298,3.2671,3.3172,3.3153,3.3571,3.4123,0.0,0.0,0.0,0.0,0.0,0.0,0.0,0.0,0.0,0.0,0.0,0.0,0.0,0.0,2.4861,2.4917,2.4917,2.4964,2.5023,2.5004,2.5004,2.5004,2.501,2.501,2.501,2.501,2.501,0.0,0.0,0.0,0.0,0.0,0.0,0.0,2.6109,2.6909,2.7154,2.7829,2.8608,2.9407,2.9411,2.9451,2.953,2.955,2.9589,2.9682,2.9699,2.9699,2.9662,2.9698,2.9589,2.9434,2.9225,2.9181,2.927,2.9532,2.9644,2.9784,3.0045,0.0,0.0,0.0,0.0,0.0,3.0038,3.0007,2.9972,2.9972,2.994,2.9888,2.9888,2.9888,2.9888,2.9888,2.9888,2.9888,2.9888,2.9888,2.9888,2.9888,2.9888,2.9888,2.9888,2.9888,2.9888,2.9888,2.9888,2.9888,2.9888,2.9888,3.0002,3.0248,3.0248,3.0248,3.0248,3.0248,3.0135,2.9888,3.0135,3.0248,3.0267,3.0476,3.0589,3.0589,3.0589,3.0589,3.0684,3.1914,3.2389,3.2372,3.2317,3.2334,3.24,3.2355,3.2378,3.2451,0.0,0.0,0.0,0.0,0.0,0.0,0.0,0.0,0.0,0.0,0.0,0.0,0.0,0.0,0.0,2.501,2.501,2.501,2.501,2.501,2.501,2.501,2.501,2.4964,2.4917,2.4917,2.4903,0.0,0.0,0.0,0.0,0.0,0.0,0.0,0.0,2.7487,2.7883,2.8555,2.9139,2.9608,2.9664,2.97,2.97,2.9754,2.9789,2.9825,2.9891,2.9888,2.9888,2.9931,2.9817,2.9607,2.9474,2.9435,2.9513,2.9681,2.9786,2.9886,3.0094,3.0142,3.0147,3.0098,0.0,0.0,3.0053,3.0022,2.9988,2.9956,2.994,2.9888,2.9888,2.9888,2.9888,2.9888,2.9888,2.9888,2.9888,2.9888,2.9888,2.9888,2.9888,2.9888,2.9888,2.9888,2.9888,2.9888,2.9888,2.9888,2.9888,2.9888,2.9888,2.9888,2.9888,2.9888,2.9888,2.9972,2.9969,2.9969,3.0049,3.0079,3.0079,3.0079,3.0079,3.0079,3.0079,3.0079,3.0156,3.1112,3.1447,3.1347,3.1242,3.1374,3.1578,3.1453,3.157,3.1782,0.0,0.0,0.0,0.0,0.0,0.0,0.0,0.0,0.0,0.0,0.0,0.0,0.0,0.0,0.0,0.0,2.501,2.501,2.501,2.501,0.0,2.501,2.4996,2.4917,2.4794,2.4794,2.4749,2.4707,0.0,0.0,0.0,0.0,0.0,0.0,0.0,0.0,2.8776,2.9608,2.995,2.9965,3.003,2.9965,2.9851,2.9962,2.9934,2.9874,3.0064,3.0123,3.0138,3.0241,3.0136,2.9977,2.9902,2.9822,2.9751,2.9872,2.9921,2.9969,3.0157,3.0199,3.0185,3.0123,3.0109,0.0,3.0038,3.0022,2.9988,2.9921,2.9921,2.9905,2.9905,2.9905,2.9921,2.9937,2.9921,2.9905,2.9888,2.9888,2.9888,2.9888,2.9888,2.9888,2.9888,2.9888,2.9888,2.9888,2.9905,2.9921,2.9937,2.9937,2.9937,2.9937,2.9937,2.9937,2.9937,3.0064,3.0123,3.0123,3.024,3.0292,3.0292,3.0292,3.0292,3.0292,3.0292,3.0292,3.0292,3.0292,3.0152,2.9921,2.979,3.017,3.0791,3.0594,3.0958,3.1592,2.4827,0.0,0.0,0.0,0.0,0.0,0.0,0.0,0.0,0.0,0.0,0.0,0.0,0.0,0.0,0.0,2.501,2.501,2.501,2.501,2.501,2.501,2.4903,2.4827,2.4794,2.4753,2.4723,2.4707,0.0,0.0,0.0,0.0,0.0,0.0,0.0,0.0,2.8911,2.9896,3.0286,3.0273,2.9981,2.9934,3.0045,3.0011,3.0071,3.0213,3.0253,3.0253,3.0253,3.0166,3.009,2.9977,2.9851,2.9867,2.9946,2.9962,3.0104,3.0226,3.0207,3.0207,3.0194,3.0185,3.0171,0.0,3.0157,3.0128,3.0079,3.0064,3.0068,3.0053,3.0053,3.0053,3.0079,3.0136,3.0041,2.9956,2.9924,2.9888,2.9888,2.9888,2.9888,2.9888,2.9888,2.9888,2.9888,2.9888,2.9984,3.0109,3.0226,3.0226,3.0226,3.0226,3.0226,3.0226,3.0226,3.0253,3.0253,3.0253,3.0279,3.0292,3.0292,3.0292,3.0292,3.0292,3.0292,3.0292,3.0292,3.0292,3.0234,3.0128,3.0052,3.0125,3.0231,3.0097,3.0122,3.0273,2.4959,0.0,0.0,0.0,0.0,0.0,0.0,0.0,0.0,0.0,0.0,0.0,0.0,0.0,0.0,0.0,0.0,0.0,0.0,2.501,2.501,2.501,2.4856,2.4779,2.4734,2.4692,2.4629,2.4599,0.0,0.0,0.0,0.0,0.0,0.0,0.0,0.0,2.9672,3.0194,3.0398,3.0367,3.0142,3.0114,3.0202,3.0161,3.0207,3.0292,3.0299,3.033,3.033,3.0228,3.0202,3.0188,3.0071,3.0099,3.0155,3.0161,3.0221,3.0292,3.0266,3.0247,3.0234,3.0213,3.0213,0.0,0.0,3.0123,3.0094,3.0098,3.0102,3.0098,3.0133,3.0147,3.0182,3.0271,3.0216,3.015,3.0163,3.0011,2.9888,2.9888,2.9888,2.9888,2.9888,2.9953,3.0034,3.0094,3.0152,3.024,3.0312,3.0292,3.0292,3.0292,3.0292,3.0292,3.0292,3.0323,3.0348,3.0348,3.0414,3.0455,3.0455,3.0455,3.0455,3.0455,3.0455,3.0455,3.0455,3.0455,3.0414,3.034,3.0163,3.0095,3.0085,2.9943,2.9912,2.9896,2.5044,0.0,0.0,0.0,0.0,0.0,0.0,0.0,0.0,0.0,0.0,0.0,0.0,2.5192,2.5179,2.5118,0.0,0.0,2.5018,2.5018,2.4991,2.4964,2.4842,2.4753,2.4676,2.4615,2.4549,2.45,0.0,0.0,0.0,0.0,0.0,0.0,0.0,0.0,3.0398,3.0398,3.0398,3.0398,3.0348,3.0316,3.0316,3.0299,3.0305,3.0318,3.0323,3.0348,3.0379,3.0336,3.0367,3.0398,3.0349,3.033,3.0323,3.0318,3.0324,3.0324,3.0305,3.0305,3.0292,3.0234,3.0221,3.0207,0.0,0.0,0.0,3.0132,3.0147,3.0166,3.0216,3.0234,3.0256,3.0221,3.0276,3.0293,3.0201,3.0088,2.9996,2.9981,2.9984,2.9988,2.9988,3.006,3.018,3.0318,3.0318,3.033,3.0362,3.0374,3.0374,3.0374,3.0374,3.0374,3.0374,3.0406,3.0439,3.0439,3.055,3.0598,3.0598,3.0598,3.0598,3.0598,3.0598,3.0598,3.0598,3.0598,3.0569,3.051,3.0285,3.019,3.0163,3.0047,3.0003,3.0003,2.5012,2.5018,0.0,0.0,0.0,0.0,0.0,0.0,0.0,0.0,0.0,2.5192,2.5192,2.5192,2.5212,2.5201,2.5201,2.5157,2.5101,2.5088,2.5006,2.4842,2.4753,2.4676,2.4596,2.4551,2.4517,2.45,0.0,0.0,0.0,0.0,0.0,0.0,2.9044,2.9583,3.0398,3.0398,3.0398,3.0398,3.0379,3.0398,3.0379,3.0316,3.0336,3.0398,3.0398,3.0379,3.0398,3.0398,3.0379,3.0398,3.0398,3.0398,3.0398,3.0398,3.0398,3.0386,3.0323,3.0304,3.0292,3.0292,3.0279,3.0266,3.0207,0.0,3.0253,3.0185,0.0,3.0352,3.0302,0.0,0.0,2.9625,3.0006,3.0153,2.9524,2.9941,3.0317,3.0259,3.0254,3.0253,3.0253,3.0266,3.0318,3.0375,3.0394,3.0439,3.0569,3.0569,3.0569,3.0569,3.0569,3.0569,3.0569,3.0559,3.0588,3.0588,3.0598,3.0598,3.0598,3.0598,3.0598,3.0598,3.0598,3.0598,3.0598,3.0598,3.0598,3.0588,3.055,3.0519,3.0458,3.0447,3.0386,3.0321,2.5004,2.4991,0.0,0.0,0.0,0.0,0.0,0.0,0.0,0.0,0.0,2.5369,2.5369,2.5369,2.5331,2.5255,2.5264,2.5214,2.5113,2.5057,2.4993,2.4917,2.4738,2.4645,2.466,2.4549,2.45,2.45,2.5094,0.0,0.0,0.0,0.0,0.0,2.9621,3.0078,3.0471,3.0414,3.0425,3.0451,3.0451,3.0451,3.0441,3.0383,3.0379,3.0398,3.0398,3.0398,3.0398,3.0398,3.0398,3.0398,3.0398,3.0398,3.0398,3.0398,3.0398,3.0379,3.0367,3.0386,3.0389,3.0316,3.0359,3.0383,3.0273,3.0247,3.026,3.0316,0.0,0.0,0.0,0.0,0.0,0.0,3.0413,3.0489,3.0205,3.0397,3.0519,3.0381,3.0367,3.0375,3.0406,3.0425,3.0428,3.05,3.0521,3.053,3.0598,3.0598,3.0598,3.0598,3.0598,3.0598,3.0598,3.0598,3.0598,3.0598,3.0598,3.0598,3.0598,3.0606,3.0606,3.0598,3.0634,3.0651,3.0671,3.0616,3.0597,3.0595,3.055,3.052,3.05,3.0509,3.0458,3.0406,2.5004,0.0,0.0,0.0,0.0,0.0,0.0,0.0,2.5385,2.5484,2.5511,2.5511,2.5511,2.5511,2.5456,2.5367,2.5348,2.5313,2.5157,2.5111,2.5082,2.5025,2.4813,2.4707,2.4704,2.4599,2.4644,2.4883,2.5625,2.6303,0.0,0.0,0.0,0.0,3.0121,3.0439,3.0492,3.0449,3.0462,3.0518,3.0518,3.0537,3.0519,3.0472,3.0441,3.0441,3.0428,3.0436,3.0406,3.041,3.0398,3.0398,3.0398,3.0402,3.0436,3.0436,3.0439,3.046,3.0428,3.0462,3.0472,3.0352,3.0406,3.0428,3.033,3.0299,3.0309,3.0381,3.0404,0.0,0.0,0.0,3.0606,3.0468,0.0,3.0661,3.0468,3.0611,3.0671,3.05,3.0482,3.0492,3.0549,3.0549,3.0568,3.0597,3.0604,3.0604,3.0598,3.0598,3.0598,3.0598,3.0598,3.0598,3.0598,3.0588,3.0588,3.0598,3.0625,3.0615,3.0597,3.0621,3.0637,3.0629,3.0688,3.0703,3.0703,3.0637,3.064,3.0623,3.0569,3.054,3.053,3.0509,3.0458,3.0394,2.4993,2.5044,0.0,0.0,2.5212,0.0,2.5283,2.5412,2.5503,2.5511,2.5511,2.5511,2.5511,2.5511,2.5511,2.5484,2.5484,2.544,2.5293,2.5293,2.5235,2.5096,2.5025,2.4893,2.4697,2.4626,2.5003,2.5866,2.6076,2.7086,0.0,0.0,0.0,0.0,3.0379,3.0439,3.0501,3.0492,3.0535,3.0593,3.0593,3.0598,3.0603,3.0579,3.0586,3.0598,3.0528,3.0492,3.0501,3.0425,3.0398,3.0398,3.0398,3.0449,3.0492,3.0492,3.0543,3.0571,3.05,3.0501,3.0472,3.0414,3.041,3.0379,3.0316,3.04,3.0482,3.0413,3.0556,3.0695,3.0703,3.0755,3.0525,2.9671,3.0243,0.0,0.0,3.0273,3.0769,3.0697,3.0691,3.069,3.069,3.069,3.0668,3.061,3.0602,3.0604,3.0598,3.0598,3.0598,3.0598,3.0598,3.0598,3.0598,3.0604,3.0604,3.0598,3.0673,3.0668,3.0602,3.0668,3.0698,3.07,3.0706,3.07,3.0695,3.0695,3.071,3.0694,3.0694,3.0656,3.0597,3.0528,3.0466,3.041,0.0,0.0,0.0,2.5264,2.5274,2.5303,2.5412,2.5476,2.5511,2.5511,2.5511,2.5511,2.5511,2.5511,2.5511,2.5511,2.5511,2.5448,2.5302,2.5803,2.581,2.519,2.5999,2.6197,2.5653,2.594,2.6264,2.6561,2.7428,2.8169,0.0,0.0,0.0,0.0,3.0398,3.0462,3.0568,3.0528,3.0548,3.0661,3.0661,3.0701,3.0739,3.0681,3.0646,3.0607,3.0571,3.0571,3.0554,3.0492,3.0462,3.0462,3.0462,3.0472,3.051,3.056,3.0571,3.0605,3.0564,3.0593,3.06,3.0492,3.0501,3.0491,3.0394,3.0383,3.0392,3.0507,3.0595,3.0652,3.0759,3.0771,3.0696,3.0404,3.0615,3.0708,0.0,3.0607,3.0789,3.0769,3.0722,3.0704,3.0704,3.0704,3.0676,3.061,3.0602,3.0604,3.0598,3.0598,3.0598,3.0598,3.0598,3.0598,3.0598,3.0597,3.0597,3.0598,3.0621,3.0618,3.061,3.0678,3.0714,3.0778,3.078,3.0767,3.0777,3.0774,3.0774,3.076,3.0722,3.0685,3.0658,3.0598,3.0549,3.054,2.5068,2.5222,2.5341,2.535,2.535,2.5367,2.544,2.5468,2.5468,2.5468,2.5468,2.5468,2.5468,2.5456,2.5456,2.5456,2.5484,2.5584,2.5792,2.6285,2.6468,2.6217,2.6969,2.7172,2.6673,2.6981,2.7315,2.7612,2.8389,2.896,0.0,0.0,0.0,0.0,3.0398,3.0482,3.0593,3.056,3.0607,3.0732,3.0732,3.0762,3.0796,3.0747,3.0711,3.0665,3.0633,3.0646,3.0626,3.056,3.0535,3.0535,3.0535,3.0552,3.0571,3.062,3.065,3.0681,3.0639,3.0661,3.0667,3.0568,3.0576,3.0591,3.0482,3.0453,3.047,3.0614,3.0652,3.07,3.0788,3.081,3.0804,3.0804,3.0801,3.0798,0.0,3.081,3.0798,3.0808,3.075,3.0734,3.0703,3.0716,3.0704,3.061,3.0618,3.0621,3.0598,3.0598,3.0617,3.0636,3.0636,3.0636,3.0636,3.0656,3.0664,3.0645,3.0664,3.0672,3.0671,3.0721,3.0758,3.0804,3.08,3.0801,3.084,3.0834,3.0841,3.0824,3.0798,3.0763,3.0728,3.0662,3.0635,3.063,2.505,2.5245,2.5406,2.5406,2.5406,2.5406,2.5406,2.5406,2.5406,2.5406,2.5406,2.5406,2.5406,2.5404,2.5421,2.5459,2.5514,2.5901,2.6715,2.6809,2.7177,2.7971,2.7951,2.7857,2.7754,2.7727,2.812,2.8937,2.897,2.9455,0.0,0.0,0.0,0.0,3.0398,3.0482,3.0593,3.0593,3.0686,3.0801,3.0801,3.0799,3.0794,3.0794,3.0796,3.0796,3.0735,3.0701,3.0687,3.0626,3.06,3.06,3.06,3.0645,3.0691,3.0691,3.0758,3.0796,3.0724,3.0691,3.0682,3.062,3.06,3.06,3.0593,3.0645,3.0706,3.0711,3.0758,3.0799,3.0801,3.0796,3.0794,3.0794,3.0804,3.0801,3.0798,3.081,3.0802,3.0802,3.0808,3.0769,3.0709,3.0764,3.0742,3.0618,3.0668,3.0673,3.0607,3.0598,3.0626,3.0694,3.0694,3.0694,3.0694,3.0752,3.077,3.0706,3.0778,3.0801,3.0801,3.0793,3.08,3.08,3.08,3.0834,3.0899,3.0891,3.0895,3.0891,3.0891,3.0866,3.0808,3.0723,3.0704,3.0691,2.4939,2.5156,2.5341,2.5379,2.5397,2.5406,2.5406,2.5406,2.5406,2.5406,2.5406,2.5406,2.5406,2.5395,2.5665,2.6302,2.6388,2.6736,2.7547,2.8193,2.8367,2.7933,2.8991,2.927,2.8613,2.9055,2.9418,2.9642,2.9742,2.9926,3.0182,0.0,0.0,0.0,3.0398,3.0482,3.0593,3.0593,3.0686,3.0801,3.0801,3.0799,3.0799,3.0794,3.0796,3.0799,3.0785,3.0762,3.0758,3.0701,3.0667,3.0667,3.0667,3.0697,3.0715,3.0765,3.0796,3.0799,3.0774,3.0771,3.0762,3.0682,3.0667,3.0656,3.0607,3.0607,3.0639,3.0682,3.072,3.0735,3.0796,3.0799,3.0799,3.0799,3.0796,3.0794,3.081,3.0807,3.0801,3.0802,3.0765,3.073,3.0769,3.0742,3.0711,3.0676,3.0634,3.0621,3.0598,3.0643,3.0688,3.0703,3.0701,3.0706,3.0703,3.0725,3.0715,3.0707,3.0771,3.0796,3.0801,3.0793,3.08,3.08,3.08,3.0834,3.0899,3.0909,3.0898,3.0894,3.0894,3.0891,3.088,3.0804,3.0764,3.076,2.5053,2.5205,2.5313,2.5351,2.537,2.5351,2.5351,2.5687,2.5919,2.5919,2.5919,2.6073,2.6458,2.615,2.6275,2.7142,2.721,2.7576,2.8404,2.8926,2.9138,2.9002,2.9821,3.0061,2.9569,2.9926,3.0118,3.0118,3.0182,3.0241,3.0241,0.0,0.0,0.0,3.0398,3.0482,3.06,3.0656,3.0728,3.0801,3.0801,3.0801,0.0,3.0796,3.0799,3.0799,3.0796,3.0796,3.0794,3.0762,3.0735,3.0735,3.0735,3.0735,3.0758,3.0796,3.0801,3.0801,3.0801,3.0801,3.0796,3.0742,3.0735,3.0732,3.0701,3.0697,3.0706,3.0732,3.0735,3.0762,3.0799,3.0801,3.0801,3.0801,3.0801,3.0799,3.0796,3.0794,3.0807,3.0798,3.0778,3.0769,3.0798,3.0742,3.069,3.069,3.0671,3.0651,3.069,3.0716,3.0754,3.0784,3.0795,3.0797,3.0793,3.0793,3.0797,3.0781,3.0839,3.0839,3.08,3.0801,3.0799,3.0793,3.079,3.0845,3.0899,3.0868,3.0873,3.0895,3.0898,3.0897,3.0905,3.0869,3.0837,3.0806,2.5262,2.5303,2.5341,2.5505,2.5399,2.5341,2.5437,2.6024,2.6467,2.6582,2.6601,2.6928,2.7794,2.7218,2.7113,2.7979,2.8058,2.8424,2.9289,2.9359,2.9668,3.0367,3.0406,3.0406,3.0406,3.0402,3.0398,3.0398,3.0398,3.0398,0.0,0.0,0.0,0.0,3.0402,3.0501,3.062,3.0755,3.0801,3.0801,3.0801,3.0801,3.0801,3.0801,3.0801,3.0801,3.0801,3.0801,3.0801,3.0801,3.0801,3.0801,3.0801,3.0801,3.0801,3.0801,3.0801,3.0801,3.0801,3.0801,3.0801,3.0801,3.0801,3.0801,3.0801,3.0801,3.0801,3.0801,3.0801,3.0801,3.0801,3.0804,3.0806,3.0806,3.0806,3.0806,3.0806,3.0799,3.0794,3.0794,3.0781,0.0,3.0804,3.0745,3.0691,3.0711,3.072,3.073,3.0794,3.0796,3.0836,3.0894,3.0892,3.0909,3.0899,3.0888,3.0866,3.0872,3.0872,3.0833,3.0794,3.0799,3.0799,3.0794,3.0804,3.0827,3.0877,3.0827,3.0847,3.0903,3.0897,3.0898,3.0895,3.0903,3.0855,3.0807,2.525,2.5293,2.5601,2.6554,2.5928,2.5534,2.6255,2.589,2.5793,2.6505,2.6601,2.6928,2.7794,2.7766,2.7997,2.8824,2.8882,2.9267,3.0121,3.019,3.0248,3.039,3.039,3.039,3.039,3.041,3.0398,3.0398,3.0398,3.0398,0.0,0.0,0.0,0.0,3.0471,3.056,3.0701,3.0768,3.0801,3.0801,3.0801,3.0801,3.0801,3.0801,3.0801,3.0801,3.0801,3.0801,3.0801,3.0801,3.0801,3.0801,3.0801,3.0801,3.0801,3.0801,3.0801,3.0801,3.0801,3.0801,3.0801,3.0801,3.0801,3.0801,3.0801,3.0801,3.0801,3.0801,3.0801,3.0801,3.0801,3.0795,3.08,3.08,3.08,3.08,3.08,3.0792,3.0799,3.0794,3.074,3.0747,3.0792,3.0742,3.0711,3.0782,3.0781,3.0796,3.0806,3.0797,3.0839,3.0903,3.0901,3.0901,3.0899,3.0801,3.0739,3.0735,3.0735,3.073,3.0725,3.0765,3.0807,3.0798,3.0807,3.081,3.0817,3.0796,3.0845,3.0909,3.0898,3.0898,3.0898,3.0905,3.0855,3.0807,2.5269,2.5311,2.5475,2.6024,2.7122,2.7652,2.6736,2.664,2.6794,2.7217,2.764,2.8236,2.9102,2.8794,2.8852,2.9698,2.9775,2.9948,3.0359,3.0398,3.0398,3.0398,3.0398,3.0398,3.0398,3.0398,3.0398,3.0398,3.0398,3.0398,0.0,3.0398,3.0398,3.039,3.051,3.06,3.0691,3.0768,3.0801,3.0801,3.0801,3.0801,3.0801,3.0801,3.0801,3.0801,3.0801,3.0801,3.0801,3.0801,3.0801,3.0801,3.0801,3.0801,3.0801,3.0801,3.0801,3.0801,3.0801,3.0801,3.0801,3.0801,3.0801,3.0801,3.0801,3.0801,3.0801,3.0801,3.0801,3.0801,3.0801,3.081,3.0797,3.0801,3.0801,3.08,3.0796,3.08,3.0801,3.0801,3.0762,3.0761,3.0799,3.0762,3.0779,3.0792,3.0779,3.0761,3.08,3.0797,3.0806,3.086,3.086,3.086,3.086,3.0751,3.0701,3.07,3.0664,3.0639,3.0593,3.0625,3.0661,3.0695,3.0701,3.0735,3.0798,3.0791,3.0843,3.0905,3.0891,3.0897,3.0898,3.0907,3.0858,3.0794,2.5269,2.529,2.5531,2.6255,2.8317,2.9252,2.742,2.7717,2.8159,2.8159,2.8698,2.9429,3.0302,2.9794,2.964,3.034,3.0398,3.0398,3.0398,3.0398,3.0398,3.0398,3.0398,3.0398,3.0398,3.0398,3.0398,3.0398,3.0398,3.0398,3.0398,3.0398,3.0414,3.0449,3.0576,3.0656,3.0724,3.0771,3.0801,3.0801,3.0801,3.0801,3.0801,3.0801,3.0801,3.0801,3.0801,3.0801,3.0801,3.0801,3.0801,3.0801,3.0801,3.0801,3.0801,3.0801,3.0801,3.0801,3.0801,3.0801,3.0801,3.0801,3.0801,3.0801,3.0801,3.0801,3.0801,3.0808,3.0793,3.0776,3.0775,3.0779,3.0781,3.0779,3.0778,3.0772,3.0804,3.0794,3.0801,3.0801,3.0782,3.078,3.0771,3.0781,3.0788,3.0775,3.0732,3.073,3.0795,3.0796,3.0804,3.0796,3.0791,3.0788,3.0788,3.0701,3.0664,3.0665,3.0583,3.0535,3.047,3.0485,3.0545,3.06,3.0626,3.0675,3.0784,3.0778,3.0807,3.0869,3.086,3.0871,3.0898,3.0884,3.0855,3.0801,2.5214,2.5261,2.6273,2.9387,2.8925,2.8307,2.8786,2.8929,2.8986,2.8986,2.9044,2.9429,3.0302,3.0321,3.0302,3.0379,3.0398,3.0398,3.0398,3.0398,3.0398,3.0398,3.0398,3.0398,3.0398,3.0398,3.0398,3.0398,3.0398,3.0398,3.0398,3.0398,3.0462,3.0579,3.0656,3.0728,3.0796,3.0799,3.0801,3.0801,3.0801,3.0801,3.0801,3.0801,3.0801,3.0801,3.0801,3.0801,3.0801,3.0801,3.0801,3.0801,3.0801,3.0801,3.0801,3.0801,3.0801,3.0801,3.0801,3.0801,3.0801,3.0801,3.0801,3.0801,3.0801,3.0801,3.0808,3.0801,3.0751,3.0716,3.0701,3.0712,3.0721,3.072,3.0711,3.073,3.0801,3.0802,3.0801,3.0801,3.0755,3.0711,3.0711,3.0703,3.0704,3.07,3.0763,3.0785,3.0804,3.0801,3.0798,3.0801,3.074,3.0714,3.0714,3.0571,3.053,3.0521,3.0452,3.0411,3.0414,3.0481,3.0552,3.0602,3.0665,3.0691,3.0706,3.0706,3.07,3.0721,3.0726,3.0792,3.0889,3.083,3.0807,3.0792,2.5184,2.5252,2.6052,2.8437,2.9118,2.9298,2.9118,2.9521,2.9829,2.9829,2.986,3.0006,3.0359,3.0398,3.0398,3.0398,3.0398,3.0398,3.0398,3.0398,3.0398,3.0398,3.0398,3.0398,3.0398,3.0398,3.0398,3.0398,3.0398,3.0398,3.041,3.0439,3.0527,3.0656,3.0682,3.0732,3.0801,3.0801,3.0801,3.0801,3.0801,3.0801,3.0801,3.0801,3.0801,3.0801,3.0801,3.0801,3.0801,3.0801,3.0801,3.0801,3.0801,3.0801,3.0801,3.0801,3.0801,3.0804,3.0796,3.0797,3.0799,3.08,3.08,3.078,3.074,3.076,3.0798,3.0747,3.0713,3.0703,3.0707,3.0708,3.0706,3.0706,3.0695,3.0691,3.068,3.0685,3.0678,3.0678,3.0659,3.0613,3.0591,3.0649,3.0668,3.0642,3.0704,3.0769,3.0798,3.072,3.072,3.0798,3.0652,3.06,3.0646,3.0509,3.0451,3.0449,3.0321,3.0279,3.0279,3.0297,3.0411,3.0539,3.0527,3.0586,3.0695,3.0598,3.0637,3.0697,3.0701,3.0778,3.0897,3.086,3.083,3.0796,2.5177,2.5246,2.5958,2.8126,2.948,3.0094,2.9531,2.9927,3.0292,3.0292,3.0343,3.0367,3.0367,3.0398,3.0398,3.0398,3.0398,3.0398,3.0398,3.0398,3.0398,3.0398,3.0398,3.0398,3.0398,3.0398,3.0398,3.0398,3.0398,3.0398,3.041,3.0482,3.0586,3.0691,3.0724,3.0762,3.0801,3.0801,3.0801,3.0801,3.0801,3.0801,3.0801,3.0801,3.0801,3.0801,3.0801,3.0801,3.0801,3.0801,3.0801,3.0801,3.0801,3.0801,3.0801,3.0801,3.0801,3.0804,3.0797,3.08,3.08,3.0793,3.0786,3.0757,3.0716,3.0735,3.0752,3.0708,3.0687,3.0672,3.0672,3.0672,3.0675,3.0665,3.0665,3.0664,3.0629,3.0602,3.0602,3.0602,3.0602,3.0565,3.0501,3.0585,3.0613,3.0549,3.0593,3.0656,3.0748,3.0658,3.0625,3.071,3.056,3.0498,3.054,3.0423,3.0344,3.034,3.0247,3.0213,3.0204,3.0226,3.0316,3.0462,3.0413,3.0491,3.0618,3.053,3.0559,3.0657,3.0665,3.0754,3.0879,3.0871,3.0847,3.0808,2.5215,2.5208,2.6244,2.9596,3.019,3.0222,3.0273,3.0292,3.0292,3.0292,3.0292,3.0305,3.0304,3.0367,3.0398,3.0398,3.0398,3.0398,3.0398,3.0398,3.0398,3.0398,3.0398,3.0398,3.0398,3.0398,3.0398,3.0398,3.0398,3.0398,3.041,3.0535,3.0633,3.0691,3.0768,3.0801,3.0801,3.0801,3.0801,3.0801,3.0801,3.0801,3.0801,3.0801,3.0801,3.0801,3.0801,3.0801,3.0801,3.0801,3.0801,3.0801,3.0801,3.0801,3.0801,3.0801,3.0801,3.0801,3.0801,3.0796,3.0801,3.0801,3.0754,3.0696,3.0696,3.0707,3.0708,3.0695,3.0653,3.0588,3.0595,3.0597,3.0598,3.0598,3.0606,3.0623,3.069,3.064,3.0602,3.0602,3.0602,3.0565,3.0501,3.0501,3.0463,3.0413,3.0402,3.0463,3.0595,3.0603,3.0571,3.0501,3.0428,3.041,3.041,3.0273,3.0188,3.0188,3.0199,3.0204,3.0199,3.0273,3.034,3.0398,3.0392,3.0442,3.0491,3.0425,3.0487,3.0598,3.0598,3.068,3.0801,3.0798,3.08,3.0792,2.8392,2.8407,2.8779,2.9928,3.0133,3.0152,3.0152,3.0166,3.0185,3.0232,3.024,3.0234,3.0228,3.0286,3.0318,3.0318,3.0323,3.0336,3.0336,3.0379,3.0398,3.0398,3.0398,3.0398,3.0398,3.0398,3.0398,3.0398,3.0398,3.0449,3.0535,3.0626,3.0691,3.0768,3.0796,3.0801,3.0801,3.0801,3.0801,3.0801,3.0801,3.0801,3.0801,3.0801,3.0801,3.0801,3.0801,3.079,3.0799,3.0799,3.0801,3.0798,3.0798,3.08,3.0804,3.0797,3.0792,3.0792,3.073,3.0771,3.0774,3.0682,3.0678,3.0685,3.0646,3.0625,3.0622,3.0634,3.0604,3.0598,3.0607,3.0607,3.0598,3.0598,3.0607,3.0616,3.0635,3.0616,3.0597,3.0597,3.0482,3.0411,3.0428,3.0386,3.0356,3.0333,3.037,3.0423,3.0463,3.0413,3.0422,3.0433,3.0316,3.0292,3.0336,3.0234,3.0199,3.0199,3.0142,3.0132,3.0132,3.0199,3.0273,3.0328,3.0279,3.0323,3.0414,3.0305,3.0363,3.0537,3.054,3.0607,3.0729,3.0732,3.0726,3.0726,2.9715,2.9807,2.9934,3.0011,3.0026,3.0045,3.0079,3.0113,3.0113,3.0161,3.0157,3.0152,3.0152,3.0213,3.0253,3.0312,3.0311,3.0304,3.0304,3.0348,3.0398,3.0398,3.0398,3.0398,3.0398,3.0398,3.0398,3.0398,3.0436,3.051,3.0639,3.0672,3.0732,3.0801,3.0801,3.0801,3.0801,3.0801,3.0801,3.0801,3.0801,3.0801,3.0801,3.079,3.0793,3.0793,3.0798,3.0801,3.0798,3.0798,3.0792,3.0801,3.0801,3.0797,3.08,3.08,3.0801,3.0781,3.0742,3.0742,3.0746,3.0659,3.0661,3.064,3.0615,3.0588,3.0607,3.0597,3.0588,3.0598,3.0598,3.0598,3.0598,3.0598,3.0598,3.0598,3.0598,3.0598,3.0598,3.0598,3.043,3.0314,3.0316,3.0235,3.0182,3.0155,3.0235,3.0285,3.0285,3.0304,3.0316,3.0321,3.0234,3.0226,3.0273,3.0226,3.019,3.0161,3.0117,3.0102,3.0102,3.0176,3.0226,3.026,3.0213,3.024,3.0318,3.0253,3.0324,3.046,3.0491,3.0588,3.0697,3.0675,3.0675,3.0706,2.9416,2.9674,2.991,2.9915,2.9905,2.9954,3.0068,3.0087,3.0087,3.0087,3.0087,3.0102,3.0102,3.0113,3.0152,3.0279,3.0299,3.0304,3.0304,3.0367,3.0398,3.0398,3.0398,3.041,3.0421,3.0421,3.0402,3.0414,3.0482,3.0583,3.0706,3.0711,3.0755,3.0801,3.0801,3.0801,3.0801,3.0801,3.0801,3.0801,3.0801,3.0801,3.0806,3.08,3.0801,3.08,3.0808,3.0799,3.0799,3.0799,3.0796,3.0794,3.0794,3.0794,3.0796,3.0796,3.0799,3.0799,3.0796,3.0747,3.0711,3.07,3.0651,3.0595,3.0607,3.0598,3.0598,3.0598,3.0598,3.0598,3.0598,3.0598,3.0598,3.0598,3.0598,3.0598,3.0598,3.0598,3.0598,3.0588,3.0419,3.0259,3.0184,3.0066,2.9965,2.9905,3.0022,3.0087,3.0087,3.0202,3.0241,3.0185,3.0204,3.0204,3.0185,3.0185,3.0142,3.0087,3.0087,3.0087,3.0087,3.0161,3.0185,3.0185,3.0185,3.0199,3.0207,3.0253,3.0311,3.0394,3.0451,3.0563,3.069,3.0622,3.0649,3.0688,2.9401,2.9661,2.9897,2.9905,2.9902,2.9902,2.9956,2.9956,2.9956,3.0022,3.0022,3.0053,3.0079,3.0094,3.0123,3.0232,3.0266,3.0305,3.0305,3.0355,3.0398,3.0398,3.0398,3.0425,3.0482,3.0482,3.0501,3.0552,3.0613,3.0678,3.0706,3.0794,3.0852,3.088,3.088,3.086,3.0801,3.086,3.086,3.0801,3.0801,3.0792,3.08,3.0801,3.0799,3.0808,3.0804,3.0765,3.072,3.072,3.0716,3.0722,3.0722,3.0722,3.0709,3.0711,3.0762,3.0791,3.0728,3.0745,3.074,3.0651,3.061,3.0595,3.0607,3.0598,3.0598,3.0598,3.0598,3.0598,3.0598,3.0598,3.0598,3.0598,3.0598,3.0598,3.0598,3.0598,3.053,3.0389,3.0253,3.0117,3.0052,2.9937,2.9874,2.9888,2.994,2.9956,2.9956,2.9984,3.0064,3.0204,3.0204,3.0176,3.0132,3.0117,3.0038,2.9876,2.9924,2.9924,2.9876,3.0057,3.0117,3.0117,3.0117,3.0132,3.0113,3.0034,3.0094,3.0253,3.0245,3.0374,3.054,3.053,3.0567,3.0618,2.9607,2.9773,2.9899,2.9891,2.9888,2.9888,2.9888,2.9888,2.9905,2.9988,2.9972,2.9988,3.0098,3.0098,3.0113,3.0157,3.0226,3.0247,3.0247,3.033,3.0348,3.0348,3.0379,3.0428,3.0501,3.0501,3.0543,3.0646,3.0691,3.0725,3.0801,3.086,3.0907,3.0907,3.0901,3.0882,3.0849,3.0882,3.088,3.0841,3.0817,3.0801,3.08,3.0769,3.0752,3.0751,3.075,3.072,3.0691,3.0691,3.0711,3.0703,3.071,3.0703,3.0703,3.0704,3.0725,3.076,3.0704,3.0737,3.0736,3.0626,3.0593,3.0595,3.0597,3.0607,3.0598,3.0598,3.0598,3.0598,3.0598,3.0598,3.0598,3.0598,3.0598,3.0598,3.0598,3.052,3.043,3.0306,3.0117,2.9977,2.9965,2.9841,2.9755,2.9808,2.9841,2.9857,2.9857,2.9872,2.9956,3.0049,3.0064,3.0053,3.0007,2.9975,2.991,2.9808,2.9841,2.9857,2.9857,3.0022,3.0102,3.0102,3.0102,3.0072,3.0022,3.0019,3.0113,3.0185,3.0226,3.0355,3.049,3.0469,3.052,3.0593,2.983,2.9902,2.9899,2.9891,2.9888,2.9888,2.9888,2.9888,2.9905,2.9988,2.9956,2.9956,3.0087,3.0102,3.0098,3.0109,3.0166,3.0207,3.0188,3.0254,3.0304,3.0309,3.0371,3.0449,3.0537,3.0535,3.0605,3.0716,3.0728,3.0793,3.0895,3.0895,3.0896,3.0895,3.0907,3.0909,3.0894,3.0907,3.0886,3.0871,3.0818,3.0792,3.0788,3.0715,3.07,3.0684,3.0683,3.0673,3.0673,3.0673,3.0673,3.068,3.0676,3.0668,3.0673,3.0673,3.0688,3.0683,3.0683,3.0688,3.0673,3.061,3.0593,3.0595,3.0595,3.0597,3.0598,3.0598,3.0598,3.0598,3.0598,3.0598,3.0598,3.0598,3.0569,3.0559,3.055,3.0378,3.0239,3.0215,3.0022,2.9872,2.9839,2.9737,2.9664,2.9664,2.9719,2.9755,2.97,2.9806,2.9839,2.9805,2.9855,2.9907,2.9891,2.9825,2.979,2.979,2.979,2.9806,2.9891,3.0007,3.0072,3.0072,3.0057,2.9991,2.9907,3.0083,3.0142,3.0157,3.0213,3.0323,3.046,3.039,3.0458,3.0568,2.9889,2.9887,2.9899,2.9891,2.9888,2.9888,2.9888,2.9888,2.9905,2.9988,2.9988,3.0003,3.0094,3.0094,3.0109,3.0171,3.0185,3.0199,3.0207,3.026,3.0336,3.0381,3.0441,3.0548,3.0658,3.072,3.0765,3.0771,3.0841,3.0888,3.0895,3.0898,3.0898,3.0898,3.0898,3.0897,3.0895,3.0897,3.0878,3.081,3.0806,3.0762,3.0711,3.0695,3.0652,3.0626,3.0618,3.061,3.061,3.061,3.061,3.061,3.0618,3.061,3.061,3.061,3.061,3.0618,3.0618,3.061,3.061,3.0604,3.0604,3.0595,3.0607,3.0598,3.0598,3.0598,3.0598,3.0598,3.0598,3.0598,3.0598,3.0598,3.0471,3.0356,3.0352,3.0216,3.0047,2.9813,2.9817,2.9751,2.9589,2.9531,2.9531,2.9531,2.9589,2.9512,2.9233,2.9492,2.9531,2.9314,2.9698,2.9874,2.9825,2.9756,2.972,2.972,2.972,2.9756,2.9825,2.9842,2.9893,2.994,2.9857,2.9823,2.9825,2.9859,2.9891,2.9956,2.9953,3.0104,3.0318,3.0272,3.0305,3.0444,2.9626,2.9773,2.9899,2.9891,2.9888,2.9888,2.9888,2.9888,2.9905,2.9988,2.9972,2.9988,3.0094,3.0133,3.0202,3.0299,3.0333,3.037,3.0353,3.0356,3.0398,3.0501,3.0548,3.061,3.0697,3.0804,3.086,3.086,3.0884,3.0909,3.0895,3.0898,3.0898,3.0898,3.0898,3.0898,3.0898,3.0898,3.086,3.0808,3.0769,3.073,3.0695,3.0656,3.0626,3.0593,3.0593,3.0593,3.0593,3.0593,3.0593,3.0593,3.0602,3.0602,3.0593,3.0593,3.0602,3.0602,3.0602,3.0602,3.0602,3.0593,3.0604,3.0595,3.0606,3.0607,3.0598,3.0598,3.052,3.0441,3.0441,3.0344,3.0285,3.0285,3.0203,3.0131,3.0136,2.9988,2.9848,2.9713,2.9662,2.9608,2.9512,2.9492,2.9492,2.9492,2.9531,2.9453,2.9212,2.9414,2.9472,2.9312,2.9626,2.9773,2.9756,2.972,2.9664,2.9664,2.9664,2.9682,2.9754,2.9754,2.9753,2.9787,2.9789,2.9755,2.9701,2.9773,2.9825,2.9857,2.9891,3.0049,3.0226,3.0199,3.0279,3.041,2.9401,2.968,2.9902,2.9912,2.9907,2.9888,2.9888,2.9888,2.9905,2.9988,2.9988,3.0,3.0133,3.0203,3.0283,3.0411,3.0462,3.0505,3.0545,3.05,3.053,3.0614,3.0632,3.067,3.0724,3.083,3.088,3.088,3.0899,3.0903,3.0892,3.0896,3.0898,3.0898,3.0877,3.0897,3.0898,3.0877,3.0829,3.0776,3.0694,3.0674,3.0681,3.0615,3.0606,3.0606,3.0606,3.0606,3.0606,3.0606,3.0606,3.0595,3.0604,3.0604,3.0606,3.0606,3.0595,3.0585,3.0604,3.0593,3.0593,3.0593,3.0604,3.0606,3.0606,3.0588,3.0559,3.055,3.0409,3.0271,3.0247,3.0098,2.9999,2.9999,2.9958,2.9931,2.9931,2.9784,2.9644,2.9626,2.9551,2.9472,2.9491,2.9491,2.9491,2.9491,2.9472,2.9394,2.9251,2.9394,2.9453,2.9412,2.9569,2.9645,2.9569,2.9569,2.9512,2.9472,2.9472,2.957,2.9699,2.9681,2.9681,2.9717,2.9736,2.9701,2.9607,2.9737,2.979,2.9808,2.9857,3.0003,3.0157,3.0142,3.0226,3.0362,2.9399,2.9683,2.9907,2.9902,2.9895,2.9888,2.9888,2.9888,2.9905,2.9988,3.0098,3.0213,3.0279,3.0359,3.0404,3.0481,3.0496,3.0545,3.0671,3.0691,3.0691,3.0697,3.0759,3.0791,3.0796,3.0799,3.0801,3.0801,3.088,3.0899,3.0899,3.0901,3.0907,3.0896,3.0836,3.0836,3.0898,3.0768,3.0711,3.0711,3.0629,3.0617,3.0598,3.0598,3.0598,3.0598,3.0598,3.0598,3.0598,3.0598,3.0598,3.0598,3.0607,3.0598,3.0598,3.0598,3.0559,3.053,3.0578,3.0607,3.0607,3.0607,3.0598,3.0598,3.0598,3.0559,3.0481,3.0348,3.0259,3.0171,3.0042,3.0018,3.0007,3.0007,2.9848,2.9713,2.9716,2.9608,2.9492,2.9429,2.9411,2.9411,2.9407,2.9407,2.9407,2.9407,2.9411,2.9291,2.9038,2.927,2.9412,2.9412,2.9531,2.9491,2.923,2.9169,2.9148,2.9148,2.9148,2.9336,2.9699,2.9645,2.9626,2.9699,2.9645,2.9607,2.9607,2.9682,2.9735,2.9808,2.9808,2.9926,3.0102,2.9972,3.0049,3.0251,2.9398,2.9513,2.9664,2.9869,2.9902,2.9897,2.9897,2.9975,3.0045,3.0118,3.0196,3.0278,3.0362,3.0453,3.0552,3.0613,3.0664,3.0701,3.0751,3.0755,3.0751,3.0767,3.0788,3.0799,3.0801,3.0841,3.086,3.086,3.0899,3.0899,3.0899,3.0899,3.0873,3.0839,3.0859,3.0821,3.0781,3.0768,3.0707,3.0642,3.0606,3.0598,3.0598,3.0598,3.0598,3.0598,3.0598,3.0598,3.0598,3.0598,3.0598,3.0598,3.0598,3.0598,3.0598,3.0559,3.051,3.0479,3.0375,3.0449,3.052,3.0428,3.0479,3.0471,3.0292,3.0273,3.0278,3.0131,2.9984,2.9877,2.9829,2.9713,2.9644,2.9644,2.957,2.9512,2.9511,2.9471,2.9429,2.9407,2.9388,2.9409,2.9407,2.9407,2.9407,2.9407,2.9388,2.9328,2.9119,2.9056,2.906,2.9166,2.9038,2.9038,2.9148,2.9126,2.9064,2.9038,2.9169,2.9295,2.9455,2.9434,2.9434,2.9455,2.9512,2.955,2.9531,2.9474,2.9493,2.957,2.9589,2.9698,2.9874,2.9972,3.0156,3.0352,2.9395,2.9398,2.9456,2.97,2.9846,2.9967,3.0045,3.0109,3.0182,3.0241,3.0317,3.0393,3.0472,3.0556,3.0659,3.0725,3.0763,3.0804,3.0799,3.0801,3.0799,3.0796,3.0799,3.0801,3.0841,3.088,3.0901,3.0903,3.0903,3.0903,3.0899,3.087,3.0859,3.0838,3.082,3.0788,3.0719,3.075,3.0675,3.0598,3.0598,3.0598,3.0598,3.0598,3.0598,3.0598,3.0598,3.0598,3.0598,3.0598,3.0598,3.0598,3.0598,3.055,3.049,3.0449,3.0375,3.0292,3.0177,3.0228,3.0278,3.0222,3.0309,3.0333,3.0066,3.0047,3.0075,2.9927,2.9782,2.9662,2.9626,2.9493,2.9411,2.9411,2.9388,2.9386,2.9407,2.9386,2.9386,2.9407,2.9407,2.9407,2.9407,2.9407,2.9407,2.9407,2.9407,2.9326,2.9156,2.8925,2.8837,2.8814,2.8603,2.8578,2.8724,2.8748,2.879,2.8832,2.8929,2.9104,2.931,2.9312,2.9233,2.9191,2.9372,2.9412,2.9373,2.927,2.923,2.9235,2.9258,2.9319,2.9438,2.9606,2.9874,3.0098,2.9407,2.9414,2.9401,2.9393,2.9734,3.0113,3.0367,3.0344,3.0329,3.0402,3.0453,3.0535,3.0595,3.0652,3.0721,3.0798,3.0798,3.0804,3.0799,3.0801,3.0801,3.0801,3.0801,3.0841,3.0899,3.0899,3.0905,3.0895,3.0895,3.0891,3.0899,3.0839,3.0839,3.0896,3.07,3.0661,3.079,3.0653,3.0598,3.0598,3.0598,3.0598,3.0598,3.0598,3.0598,3.0598,3.0598,3.0598,3.0598,3.0598,3.0598,3.0598,3.0598,3.0469,3.0304,3.0304,3.0109,2.9912,2.9977,2.9943,2.9912,2.9977,3.0109,3.0157,3.0022,2.9943,2.9864,2.9731,2.9644,2.9551,2.9414,2.9409,2.9407,2.9407,2.9344,2.9323,2.9386,2.9344,2.9323,2.9386,2.9407,2.9407,2.9407,2.9407,2.9407,2.9407,2.9407,2.9283,2.9003,2.8925,2.8748,2.842,2.8324,2.8183,2.7897,2.7954,2.8165,2.8492,2.8386,2.8646,2.9302,2.931,2.9148,2.8911,2.9178,2.9203,2.9104,2.9093,2.9016,2.8864,2.8735,2.8735,2.8796,2.8815,2.9055,2.942,2.9407,2.9398,2.9401,2.9398,3.0022,3.0513,3.0606,3.0516,3.0462,3.0527,3.0591,3.0678,3.0728,3.0764,3.0789,3.0798,3.0798,3.0804,3.0799,3.0801,3.0801,3.0801,3.0801,3.0841,3.0899,3.0907,3.0909,3.0903,3.0896,3.0878,3.0838,3.0813,3.0762,3.07,3.0682,3.0671,3.0653,3.0625,3.0598,3.0598,3.0598,3.0598,3.0598,3.0598,3.0598,3.0598,3.0598,3.0598,3.0598,3.0598,3.0598,3.0588,3.0441,3.0253,3.008,3.008,2.9992,2.9867,2.975,2.9801,2.9867,2.982,2.988,2.9927,2.9645,2.9626,2.9644,2.9512,2.9471,2.9431,2.9409,2.9347,2.9344,2.9386,2.9304,2.9262,2.9386,2.9344,2.9323,2.9386,2.9407,2.9407,2.9407,2.9365,2.9344,2.9407,2.9138,2.8925,2.8808,2.8402,2.8139,2.8047,2.7858,2.7701,2.763,2.7829,2.8075,2.8342,2.8507,2.8797,2.924,2.9134,2.8943,2.8676,2.8718,2.8742,2.8724,2.8394,2.8376,2.8517,2.833,2.8286,2.8345,2.8512,2.8828,2.92,2.9415,2.9401,2.9474,2.9753,3.03,3.0713,3.0739,3.0653,3.0598,3.0672,3.0709,3.0755,3.0808,3.0793,3.0806,3.0804,3.0807,3.0791,3.0796,3.0819,3.0841,3.0841,3.0841,3.086,3.0899,3.0909,3.0879,3.0824,3.0816,3.0785,3.0711,3.0716,3.0697,3.0642,3.0632,3.0614,3.0598,3.0598,3.0569,3.0559,3.0598,3.0569,3.0559,3.0598,3.0598,3.0598,3.0598,3.0598,3.0598,3.0598,3.055,3.0441,3.0278,3.0089,2.9915,2.988,2.9801,2.9681,2.9551,2.9608,2.9681,2.9608,2.9681,2.9715,2.947,2.9451,2.9492,2.9427,2.9407,2.9386,2.9365,2.9323,2.9323,2.9365,2.924,2.9218,2.9386,2.9323,2.9302,2.9365,2.9365,2.9304,2.9141,2.9075,2.903,2.8966,2.8646,2.8428,2.8402,2.8047,2.78,2.7701,2.76,2.7478,2.7421,2.7491,2.7725,2.8102,2.8201,2.85,2.891,2.8797,2.8682,2.8558,2.8453,2.8428,2.842,2.8102,2.8002,2.8039,2.7966,2.7865,2.778,2.7932,2.8198,2.8548,2.9401,2.9456,2.9687,3.0311,3.0571,3.0723,3.0773,3.0743,3.0734,3.0799,3.0793,3.0802,3.0802,3.0794,3.0801,3.0791,3.0796,3.0799,3.0794,3.0858,3.0899,3.0899,3.0899,3.0899,3.0899,3.0891,3.0827,3.0722,3.0696,3.0659,3.0607,3.0598,3.0625,3.0685,3.054,3.053,3.0588,3.0598,3.0559,3.052,3.0569,3.0559,3.052,3.0588,3.0598,3.0598,3.0598,3.0598,3.0598,3.0598,3.0471,3.0259,3.0131,2.9943,2.9767,2.9696,2.9533,2.9412,2.9388,2.9407,2.9407,2.9407,2.9492,2.9551,2.9429,2.9407,2.9407,2.9407,2.9407,2.9386,2.9323,2.9302,2.9302,2.9302,2.9197,2.9156,2.9365,2.9283,2.9218,2.9283,2.9262,2.9093,2.8724,2.8676,2.8578,2.8298,2.802,2.7869,2.7869,2.7771,2.763,2.7376,2.7478,2.7448,2.725,2.7089,2.7261,2.7789,2.7642,2.7886,2.8466,2.8412,2.8386,2.8414,2.829,2.8192,2.8102,2.8047,2.7759,2.7404,2.7577,2.7413,2.7068,2.7149,2.7369,2.7683,2.9412,2.9832,3.026,3.0521,3.0646,3.0695,3.071,3.0742,3.0779,3.0793,3.0798,3.0806,3.0794,3.0798,3.0801,3.0791,3.0796,3.0799,3.0799,3.0858,3.0899,3.0899,3.0907,3.0907,3.0899,3.0857,3.0818,3.0781,3.0732,3.0665,3.0598,3.0606,3.0584,3.0539,3.0509,3.0509,3.0519,3.052,3.0501,3.052,3.0569,3.0598,3.0588,3.0598,3.0598,3.0598,3.0598,3.0598,3.0598,3.0598,3.0386,3.0131,3.0122,2.9902,2.9645,2.9551,2.9493,2.9471,2.9409,2.9409,2.9411,2.9407,2.9409,2.9429,2.9407,2.9407,2.9407,2.9407,2.9407,2.9407,2.9386,2.9344,2.9323,2.9365,2.9262,2.9218,2.9323,2.9262,2.9218,2.9218,2.8989,2.879,2.8724,2.8529,2.8324,2.8156,2.7862,2.7678,2.7654,2.7355,2.7169,2.7072,2.7087,2.7105,2.7057,2.7007,2.7215,2.7642,2.7487,2.7678,2.8102,2.821,2.802,2.7666,2.7783,2.7666,2.7413,2.7413,2.708,2.6606,2.7115,2.6807,2.6177,2.6641,2.7021,2.7382,2.749,2.7816,2.8076,2.8151,2.9569,3.0529,2.9966,3.0408,3.0798,3.0806,3.0794,3.0801,3.0804,3.0807,3.0791,3.0796,3.0838,3.086,3.086,3.088,3.0899,3.0899,3.087,3.0852,3.0843,3.0764,3.0715,3.0752,3.0694,3.0608,3.0507,3.0497,3.0486,3.0439,3.0439,3.0469,3.0509,3.05,3.0471,3.046,3.053,3.054,3.05,3.054,3.054,3.055,3.055,3.0569,3.0579,3.0417,3.0216,3.0032,2.9899,2.9717,2.955,2.9512,2.9472,2.9433,2.9411,2.939,2.9409,2.9407,2.9407,2.9407,2.9407,2.9407,2.9407,2.9407,2.9407,2.9386,2.9304,2.9283,2.9262,2.9262,2.9175,2.9152,2.924,2.9178,2.9156,2.9156,2.8874,2.8547,2.8219,2.7918,2.7678,2.7577,2.7396,2.7321,2.7324,2.712,2.7007,2.7007,2.6992,2.6992,2.7007,2.6892,2.6973,2.7261,2.7181,2.7352,2.766,2.7525,2.7357,2.7251,2.7,2.674,2.6489,2.6489,2.611,2.5611,2.6129,2.5881,2.5363,2.566,2.6214,2.6855,2.5385,2.5512,2.5491,2.5505,2.7892,2.9641,2.9136,2.9932,3.0626,3.0778,3.0807,3.0794,3.0813,3.0819,3.0821,3.0821,3.088,3.0899,3.0901,3.0889,3.0873,3.0873,3.0813,3.077,3.0772,3.0656,3.0636,3.0675,3.0618,3.0518,3.0428,3.0417,3.0398,3.0406,3.0406,3.0417,3.0488,3.0469,3.0439,3.0417,3.0469,3.0469,3.0409,3.0479,3.0509,3.049,3.051,3.052,3.049,3.0177,3.0032,2.9908,2.9681,2.9551,2.9492,2.9492,2.9453,2.9412,2.9392,2.939,2.9388,2.9407,2.9407,2.9407,2.9407,2.9407,2.9407,2.9407,2.9386,2.9365,2.924,2.9218,2.9178,2.913,2.9085,2.9085,2.9156,2.9152,2.9108,2.9067,2.8791,2.8299,2.7582,2.7261,2.7055,2.7007,2.6975,2.6975,2.6975,2.6942,2.6942,2.6942,2.6876,2.6876,2.6942,2.6775,2.6742,2.6842,2.6809,2.6875,2.7098,2.6757,2.669,2.6787,2.6215,2.5826,2.5607,2.5628,2.5239,2.4673,2.5153,2.4962,2.4498,2.4467,2.4984,2.5815,2.5482,2.5502,2.5499,2.5498,2.5885,2.6922,2.9026,2.9527,2.9955,3.071,3.0791,3.0813,3.0877,3.0899,3.0899,3.0899,3.0899,3.0903,3.0892,3.0855,3.0816,3.0816,3.0754,3.0711,3.0704,3.0636,3.0598,3.0617,3.055,3.0501,3.0499,3.0428,3.0394,3.039,3.039,3.041,3.0421,3.0406,3.0417,3.0417,3.0469,3.049,3.0481,3.051,3.0491,3.0491,3.0491,3.0378,3.0228,3.0066,2.9896,2.9729,2.9696,2.9608,2.9492,2.9433,2.9453,2.9472,2.9409,2.939,2.9411,2.9388,2.9407,2.9407,2.9407,2.9407,2.9407,2.9407,2.9365,2.9302,2.9302,2.924,2.92,2.9178,2.9178,2.9156,2.9112,2.9108,2.9085,2.9017,2.8456,2.7829,2.7152,2.704,2.7007,2.7007,2.6959,2.6926,2.6926,2.6792,2.6742,2.6742,2.6725,2.6725,2.6742,2.6725,2.6691,2.6742,2.6367,2.6245,2.6264,2.6488,2.6265,2.573,2.5733,2.555,2.5281,2.5336,2.4823,2.4096,2.4962,2.4405,2.3156,2.3182,2.3251,2.3557,2.5493,2.5495,2.5488,2.5503,2.551,2.6068,2.7754,2.8856,2.9648,3.0072,3.0545,3.0877,3.0899,3.0905,3.0909,3.0909,3.0903,3.0873,3.0853,3.0818,3.0761,3.0696,3.0661,3.0632,3.0582,3.0548,3.0519,3.0488,3.054,3.054,3.0499,3.0469,3.0436,3.0398,3.0398,3.0398,3.041,3.0402,3.0402,3.0402,3.0425,3.0436,3.0447,3.0447,3.0439,3.043,3.0356,3.0228,3.0047,2.9896,2.9765,2.968,2.957,2.9474,2.9431,2.9412,2.9431,2.945,2.9411,2.939,2.9409,2.9407,2.9407,2.9386,2.9365,2.9344,2.9344,2.9344,2.9323,2.928,2.9197,2.9175,2.9134,2.9089,2.9085,2.9067,2.8998,2.8998,2.8839,2.843,2.7964,2.7474,2.6975,2.6876,2.6808,2.6808,2.6742,2.6691,2.6725,2.664,2.6555,2.6435,2.6435,2.6365,2.626,2.626,2.626,2.626,2.5977,2.5961,2.6087,2.5783,2.5486,2.516,2.4871,2.4576,2.4307,2.422,2.3861,2.3363,2.3803,2.3317,2.2395,2.2343,2.2331,2.2496]},{"header":{"parameterUnit":"m.s-1","parameterCategory":1,"la1":30.6,"la2":28.766,"lo1":-90.7593,"lo2":-88.6598,"dy":0.0162,"dx":0.0183,"nx":116,"ny":114,"refTime":"2023-07-26T06:00:00:Z","depth":0,"parameterNumber":3,"parameterNumberName":"V-component_of_WINDS"},"data":[0.0,0.0,0.0,0.0,0.0,0.0,0.0,0.0,0.0,0.0,0.0,0.0,0.0,0.0,0.0,0.0,0.0,0.0,0.0,0.0,0.0,0.0,0.0,0.0,0.0,0.0,0.0,0.0,0.0,0.0,0.0,0.0,0.0,0.0,0.0,0.0,0.0,0.0,0.0,0.0,0.0,0.0,0.0,0.0,0.0,0.0,0.0,0.0,0.0,0.0,0.0,0.0,0.0,0.0,0.0,0.0,0.0,0.0,0.0,0.0,0.0,0.0,0.0,0.0,0.0,0.0,0.0,0.0,0.0,0.0,0.0,0.0,0.0,0.0,0.0,0.0,0.0,0.0,0.0,0.0,0.0,0.0,0.0,0.0,0.0,0.0,0.0,0.0,0.0,0.0,0.0,0.0,0.0,0.0,0.0,0.0,0.0,0.0,0.0,0.0,0.0,0.0,0.0,0.0,0.0,0.0,0.0,0.0,0.0,0.0,0.0,0.0,0.0,0.0,0.0,0.0,0.0,0.0,0.0,0.0,0.0,0.0,0.0,0.0,0.0,0.0,0.0,0.0,0.0,0.0,0.0,0.0,0.0,0.0,0.0,0.0,0.0,0.0,0.0,0.0,0.0,0.0,0.0,0.0,0.0,0.0,0.0,0.0,0.0,0.0,0.0,0.0,0.0,0.0,0.0,0.0,0.0,0.0,0.0,0.0,0.0,0.0,0.0,0.0,0.0,0.0,0.0,0.0,0.0,0.0,0.0,0.0,0.0,0.0,0.0,0.0,0.0,0.0,0.0,0.0,0.0,0.0,0.0,0.0,0.0,0.0,0.0,0.0,0.0,0.0,0.0,0.0,0.0,0.0,0.0,0.0,0.0,0.0,0.0,0.0,0.0,0.0,0.0,0.0,0.0,0.0,0.0,0.0,0.0,0.0,0.0,0.0,0.0,0.0,0.0,0.0,0.0,0.0,0.0,0.0,0.0,0.0,0.0,0.0,0.0,0.0,0.0,0.0,0.0,0.0,0.0,0.0,0.0,0.0,0.0,0.0,0.0,0.0,0.0,0.0,0.0,0.0,0.0,0.0,0.0,0.0,0.0,0.0,0.0,0.0,0.0,0.0,0.0,0.0,0.0,0.0,0.0,0.0,0.0,0.0,0.0,0.0,0.0,0.0,0.0,0.0,0.0,0.0,0.0,0.0,0.0,0.0,0.0,0.0,0.0,0.0,0.0,0.0,0.0,0.0,0.0,0.0,0.0,0.0,0.0,0.0,0.0,0.0,0.0,0.0,0.0,0.0,0.0,0.0,0.0,0.0,0.0,0.0,0.0,0.0,0.0,0.0,0.0,0.0,0.0,0.0,0.0,0.0,0.0,0.0,0.0,0.0,0.0,0.0,0.0,0.0,0.0,0.0,0.0,0.0,0.0,0.0,0.0,0.0,0.0,0.0,0.0,0.0,0.0,0.0,0.0,0.0,0.0,0.0,0.0,0.0,0.0,0.0,0.0,0.0,0.0,0.0,0.0,0.0,0.0,0.0,0.0,0.0,0.0,0.0,0.0,0.0,0.0,0.0,0.0,0.0,0.0,0.0,0.0,0.0,0.0,0.0,0.0,0.0,0.0,0.0,0.0,0.0,0.0,0.0,0.0,0.0,0.0,0.0,0.0,0.0,0.0,0.0,0.0,0.0,0.0,0.0,0.0,0.0,0.0,0.0,0.0,0.0,0.0,0.0,0.0,0.0,0.0,0.0,0.0,0.0,0.0,0.0,0.0,0.0,0.0,0.0,0.0,0.0,0.0,0.0,0.0,0.0,0.0,0.0,0.0,0.0,0.0,0.0,0.0,0.0,0.0,0.0,0.0,0.0,0.0,0.0,0.0,0.0,0.0,0.0,0.0,0.0,0.0,0.0,0.0,0.0,0.0,0.0,0.0,0.0,0.0,0.0,0.0,0.0,0.0,0.0,0.0,0.0,0.0,0.0,0.0,0.0,0.0,0.0,0.0,0.0,0.0,0.0,0.0,0.0,0.0,0.0,0.0,0.0,0.0,0.0,0.0,0.0,0.0,0.0,0.0,0.0,0.0,0.0,0.0,0.0,0.0,0.0,0.0,0.0,0.0,0.0,0.0,0.0,0.0,0.0,0.0,0.0,0.0,0.0,0.0,0.0,0.0,0.0,0.0,0.0,0.0,0.0,0.0,0.0,0.0,0.0,0.0,0.0,0.0,0.0,0.0,0.0,0.0,0.0,0.0,0.0,0.0,0.0,0.0,0.0,0.0,0.0,0.0,0.0,0.0,0.0,0.0,0.0,0.0,0.0,0.0,0.0,0.0,0.0,0.0,0.0,0.0,0.0,0.0,0.0,0.0,0.0,0.0,0.0,0.0,0.0,0.0,0.0,0.0,0.0,0.0,0.0,0.0,0.0,0.0,0.0,0.0,0.0,0.0,0.0,0.0,0.0,0.0,0.0,0.0,0.0,0.0,0.0,0.0,0.0,0.0,0.0,0.0,0.0,0.0,0.0,0.0,0.0,0.0,0.0,0.0,0.0,0.0,0.0,0.0,0.0,0.0,0.0,0.0,0.0,0.0,0.0,0.0,0.0,0.0,0.0,0.0,0.0,0.0,0.0,0.0,0.0,0.0,0.0,0.0,0.0,0.0,0.0,0.0,0.0,0.0,0.0,0.0,0.0,0.0,0.0,0.0,0.0,0.0,0.0,0.0,0.0,0.0,0.0,0.0,0.0,0.0,0.0,0.0,0.0,0.0,0.0,0.0,0.0,0.0,0.0,0.0,0.0,0.0,0.0,0.0,0.0,0.0,0.0,0.0,0.0,0.0,0.0,0.0,0.0,0.0,0.0,0.0,0.0,0.0,0.0,0.0,0.0,0.0,0.0,0.0,0.0,0.0,0.0,0.0,0.0,0.0,0.0,0.0,0.0,0.0,0.0,0.0,0.0,0.0,0.0,0.0,0.0,0.0,0.0,0.0,0.0,0.0,0.0,0.0,0.0,0.0,0.0,0.0,0.0,0.0,0.0,0.0,0.0,0.0,0.0,0.0,0.0,0.0,0.0,0.0,0.0,0.0,0.0,0.0,0.0,0.0,0.0,0.0,0.0,0.0,0.0,0.0,0.0,0.0,0.0,0.0,0.0,0.0,0.0,0.0,0.0,0.0,0.0,0.0,0.0,0.0,0.0,0.0,0.0,0.0,0.0,0.0,0.0,0.0,0.0,0.0,0.0,0.0,0.0,0.0,0.0,0.0,0.0,0.0,0.0,0.0,0.0,0.0,0.0,0.0,0.0,0.0,0.0,0.0,0.0,0.0,0.0,0.0,0.0,0.0,0.0,0.0,0.0,0.0,0.0,0.0,0.0,0.0,0.0,0.0,0.0,0.0,0.0,0.0,0.0,0.0,0.0,0.0,0.0,0.0,0.0,0.0,0.0,0.0,0.0,0.0,0.0,0.0,0.0,0.0,0.0,0.0,0.0,0.0,0.0,0.0,0.0,0.0,0.0,0.0,0.0,0.0,0.0,0.0,0.0,0.0,0.0,0.0,0.0,0.0,0.0,0.0,0.0,0.0,0.0,0.0,0.0,0.0,0.0,0.0,0.0,0.0,0.0,0.0,0.0,0.0,0.0,0.0,0.0,0.0,0.0,0.0,0.0,0.0,0.0,0.0,0.0,0.0,0.0,0.0,0.0,0.0,0.0,0.0,0.0,0.0,0.0,0.0,0.0,0.0,0.0,0.0,0.0,0.0,0.0,0.0,0.0,0.0,0.0,0.0,0.0,0.0,0.0,0.0,0.0,0.0,0.0,0.0,0.0,0.0,0.0,0.0,0.0,0.0,0.0,0.0,0.0,0.0,0.0,0.0,0.0,0.0,0.0,0.0,0.0,0.0,0.0,0.0,0.0,0.0,0.0,0.0,0.0,0.0,0.0,0.0,0.0,0.0,0.0,0.0,0.0,0.0,0.0,0.0,0.0,0.0,0.0,0.0,0.0,0.0,0.0,0.0,0.0,0.0,0.0,0.0,0.0,0.0,0.0,0.0,0.0,0.0,0.0,0.0,0.0,0.0,0.0,0.0,0.0,0.0,0.0,0.0,0.0,0.0,0.0,0.0,0.0,0.0,0.0,0.0,0.0,0.0,0.0,0.0,0.0,0.0,0.0,0.0,0.0,0.0,0.0,0.0,0.0,0.0,0.0,0.0,0.0,0.0,0.0,0.0,0.0,0.0,0.0,0.0,0.0,0.0,0.0,0.0,0.0,0.0,0.0,0.0,0.0,0.0,0.0,0.0,0.0,0.0,0.0,0.0,0.0,0.0,0.0,0.0,0.0,0.0,0.0,0.0,0.0,0.0,0.0,0.0,0.0,0.0,0.0,0.0,0.0,0.0,0.0,0.0,0.0,0.0,0.0,0.0,0.0,0.0,0.0,0.0,0.0,0.0,0.0,0.0,0.0,0.0,0.0,0.0,0.0,0.0,0.0,0.0,0.0,0.0,0.0,0.0,0.0,0.0,0.0,0.0,0.0,0.0,0.0,0.0,0.0,0.0,0.0,0.0,0.0,0.0,0.0,0.0,0.0,0.0,0.0,0.0,0.0,0.0,0.0,0.0,0.0,0.0,0.0,0.0,0.0,0.0,0.0,0.0,0.0,0.0,0.0,0.0,0.0,0.0,0.0,0.0,0.0,0.0,0.0,0.0,0.0,0.0,0.0,0.0,0.0,0.0,0.0,0.0,0.0,0.0,0.0,0.0,0.0,0.0,0.0,0.0,0.0,0.0,0.0,0.0,0.0,0.0,0.0,0.0,0.0,0.0,0.0,0.0,0.0,0.0,0.0,0.0,0.0,0.0,0.0,0.0,0.0,0.0,0.0,0.0,0.0,0.0,0.0,0.0,0.0,0.0,0.0,0.0,0.0,0.0,0.0,0.0,0.0,0.0,0.0,0.0,0.0,0.0,0.0,0.0,0.0,0.0,0.0,0.0,0.0,0.0,0.0,0.0,0.0,0.0,0.0,0.0,0.0,0.0,0.0,0.0,0.0,0.0,0.0,0.0,0.0,0.0,0.0,0.0,0.0,0.0,0.0,0.0,0.0,0.0,0.0,0.0,0.0,0.0,0.0,0.0,0.0,0.0,0.0,0.0,0.0,0.0,0.0,0.0,0.0,0.0,0.0,0.0,0.0,0.0,0.0,0.0,0.0,0.0,0.0,0.0,0.0,0.0,0.0,0.0,0.0,0.0,0.0,0.0,0.0,0.0,0.0,0.0,0.0,0.0,0.0,0.0,0.0,0.0,0.0,0.0,0.0,0.0,0.0,0.0,0.0,0.0,0.0,0.0,0.0,0.0,0.0,0.0,0.0,0.0,0.0,0.0,0.0,0.0,0.0,0.0,0.0,0.0,0.0,0.0,0.0,0.0,0.0,0.0,0.0,0.0,0.0,0.0,0.0,0.0,0.0,0.0,0.0,0.0,0.0,0.0,0.0,0.0,0.0,0.0,0.0,0.0,0.0,0.0,0.0,0.0,0.0,0.0,0.0,0.0,0.0,0.0,0.0,0.0,0.0,0.0,0.0,0.0,0.0,0.0,0.0,0.0,0.0,0.0,0.0,0.0,0.0,0.0,0.0,0.0,0.0,0.0,0.0,0.0,0.0,0.0,0.0,0.0,0.0,0.0,0.0,0.0,0.0,0.0,0.0,0.0,0.0,0.0,0.0,0.0,0.0,0.0,0.0,0.0,0.0,0.0,0.0,0.0,0.0,0.0,0.0,0.0,0.0,0.0,0.0,0.0,0.0,0.0,0.0,0.0,0.0,0.0,0.0,0.0,0.0,0.0,0.0,0.0,0.0,0.0,0.0,0.0,0.0,0.0,0.0,0.0,0.0,0.0,0.0,0.0,0.0,0.0,0.0,0.0,0.0,0.0,0.0,0.0,0.0,0.0,0.0,0.0,0.0,0.0,0.0,0.0,0.0,0.0,0.0,0.0,0.0,0.0,0.0,0.0,0.0,0.0,0.0,0.0,0.0,0.0,0.0,0.0,0.0,0.0,0.0,0.0,0.0,0.0,0.0,0.0,0.0,0.0,0.0,0.0,0.0,0.0,0.0,0.0,0.0,-2.066,-2.0527,0.0,0.0,0.0,0.0,0.0,0.0,0.0,0.0,0.0,0.0,0.0,0.0,0.0,0.0,0.0,0.0,0.0,0.0,0.0,0.0,0.0,0.0,0.0,0.0,0.0,0.0,0.0,0.0,0.0,0.0,0.0,0.0,0.0,0.0,0.0,0.0,0.0,0.0,0.0,0.0,0.0,0.0,0.0,0.0,0.0,0.0,0.0,0.0,0.0,0.0,0.0,0.0,0.0,0.0,0.0,0.0,0.0,0.0,0.0,0.0,0.0,0.0,0.0,0.0,0.0,0.0,0.0,0.0,0.0,0.0,0.0,0.0,0.0,0.0,0.0,0.0,0.0,0.0,0.0,0.0,0.0,0.0,0.0,0.0,0.0,0.0,0.0,0.0,0.0,0.0,0.0,0.0,0.0,0.0,0.0,0.0,0.0,0.0,0.0,0.0,0.0,0.0,0.0,0.0,0.0,0.0,0.0,0.0,0.0,0.0,0.0,0.0,0.0,0.0,-2.1033,-2.0997,0.0,0.0,0.0,0.0,0.0,0.0,0.0,0.0,0.0,0.0,0.0,0.0,0.0,0.0,0.0,0.0,0.0,0.0,0.0,0.0,0.0,0.0,0.0,0.0,0.0,0.0,0.0,0.0,0.0,0.0,0.0,0.0,0.0,0.0,0.0,0.0,0.0,0.0,0.0,0.0,0.0,0.0,0.0,0.0,0.0,0.0,0.0,0.0,0.0,0.0,0.0,0.0,0.0,0.0,0.0,0.0,0.0,0.0,0.0,0.0,0.0,0.0,0.0,0.0,0.0,0.0,0.0,0.0,0.0,0.0,0.0,0.0,0.0,0.0,0.0,0.0,0.0,0.0,0.0,0.0,0.0,0.0,0.0,0.0,0.0,0.0,0.0,0.0,0.0,0.0,0.0,0.0,0.0,0.0,0.0,0.0,0.0,0.0,0.0,0.0,0.0,0.0,0.0,0.0,0.0,0.0,0.0,0.0,-2.1097,-2.1131,-2.0604,-2.1206,-2.1313,-2.1006,-2.1019,-2.1033,-2.097,-2.051,0.0,0.0,0.0,0.0,0.0,0.0,0.0,0.0,0.0,0.0,0.0,0.0,0.0,0.0,0.0,0.0,0.0,0.0,0.0,0.0,0.0,0.0,0.0,0.0,0.0,0.0,0.0,0.0,0.0,0.0,0.0,0.0,0.0,0.0,0.0,0.0,0.0,0.0,-2.2298,-2.3375,-2.3845,-2.3761,-2.3555,0.0,0.0,0.0,0.0,0.0,0.0,0.0,0.0,0.0,0.0,0.0,0.0,0.0,0.0,0.0,0.0,0.0,0.0,0.0,0.0,0.0,0.0,0.0,0.0,0.0,0.0,0.0,0.0,0.0,0.0,0.0,0.0,0.0,0.0,0.0,0.0,0.0,0.0,0.0,0.0,0.0,0.0,0.0,-2.0997,-2.0997,0.0,0.0,0.0,0.0,0.0,0.0,0.0,0.0,0.0,0.0,0.0,0.0,0.0,-2.2249,-2.1888,-2.1888,-2.1623,-2.1059,-2.1286,-2.1334,-2.1266,-2.1623,-2.1698,-2.165,-2.1423,0.0,-2.0144,-2.0093,0.0,0.0,0.0,0.0,0.0,0.0,0.0,0.0,0.0,0.0,0.0,0.0,0.0,0.0,0.0,0.0,0.0,0.0,0.0,0.0,0.0,0.0,0.0,0.0,0.0,0.0,0.0,0.0,0.0,0.0,0.0,0.0,0.0,0.0,0.0,0.0,-2.2074,-2.2493,-2.3049,-2.3575,-2.3997,-2.4265,-2.4083,-2.4191,-2.4543,-2.4707,0.0,0.0,0.0,0.0,0.0,0.0,0.0,0.0,0.0,0.0,0.0,0.0,0.0,0.0,0.0,0.0,0.0,0.0,0.0,0.0,0.0,0.0,0.0,0.0,0.0,0.0,0.0,0.0,0.0,0.0,0.0,0.0,0.0,0.0,0.0,0.0,0.0,0.0,0.0,-2.1046,-2.1082,-2.1082,-2.1095,-2.1095,0.0,0.0,0.0,0.0,0.0,0.0,0.0,0.0,0.0,-2.2356,-2.2016,-2.1921,-2.2044,-2.1793,-2.1438,-2.1015,-2.1452,-2.1533,-2.1356,-2.1829,-2.1902,-2.165,-2.1264,-2.0696,-2.0093,-1.994,-1.9734,-1.9475,0.0,0.0,0.0,0.0,-1.729,-1.739,0.0,0.0,0.0,0.0,0.0,0.0,0.0,0.0,0.0,0.0,0.0,0.0,0.0,0.0,0.0,-2.0595,0.0,0.0,0.0,0.0,0.0,0.0,0.0,0.0,0.0,0.0,0.0,0.0,-2.2676,-2.3134,-2.3865,-2.3881,-2.4146,-2.4589,-2.4564,-2.4831,-2.5253,-2.5335,-2.5503,0.0,0.0,0.0,0.0,0.0,0.0,0.0,0.0,0.0,0.0,0.0,0.0,0.0,0.0,0.0,0.0,0.0,0.0,0.0,0.0,0.0,0.0,0.0,0.0,0.0,0.0,0.0,0.0,0.0,0.0,0.0,0.0,0.0,0.0,0.0,0.0,0.0,0.0,-2.1131,-2.1229,-2.1229,-2.1229,-2.1229,0.0,0.0,0.0,0.0,0.0,0.0,-2.1471,-2.1841,-2.2044,-2.1996,-2.1616,-2.1616,-2.1996,-2.1616,-2.1288,-2.1038,-2.1539,-2.1605,-2.1236,-2.1834,-2.1841,-2.141,-2.0957,-2.0547,-2.0245,-1.985,-1.9488,-1.9121,-1.8321,-1.7776,-1.7446,-1.7213,-1.7101,-1.7045,0.0,0.0,0.0,0.0,0.0,0.0,0.0,0.0,0.0,0.0,0.0,0.0,0.0,0.0,-2.0025,-2.0025,-2.0025,-2.0166,0.0,0.0,0.0,0.0,0.0,0.0,0.0,0.0,0.0,-2.3545,-2.3538,-2.3912,-2.4542,-2.4679,-2.4695,-2.4589,-2.4726,-2.4701,-2.4564,-2.4823,-2.4932,-2.5,0.0,0.0,0.0,0.0,0.0,0.0,0.0,0.0,0.0,0.0,0.0,0.0,0.0,0.0,0.0,0.0,0.0,0.0,0.0,0.0,0.0,0.0,0.0,0.0,0.0,0.0,0.0,0.0,0.0,0.0,0.0,0.0,0.0,0.0,0.0,0.0,0.0,0.0,0.0,-2.1375,-2.1277,0.0,0.0,0.0,0.0,-2.2558,-2.2754,-2.2618,-2.217,-2.2184,-2.1949,-2.1471,-2.1423,-2.1423,-2.1423,-2.1423,-2.141,-2.1369,-2.1636,-2.1541,-2.1042,-2.1541,-2.1541,-2.0993,-2.0759,-2.051,-2.0321,-1.9668,-1.9093,-1.8667,-1.8881,-1.8441,-1.7722,-1.7929,-1.7875,-1.7611,0.0,0.0,0.0,0.0,0.0,0.0,0.0,0.0,0.0,0.0,0.0,0.0,0.0,-2.0061,-2.0005,-2.0005,-2.0005,-2.0025,-2.0131,0.0,0.0,0.0,0.0,0.0,0.0,0.0,-2.3481,-2.3793,-2.4171,-2.4531,-2.4846,-2.4886,-2.4886,-2.4846,-2.4822,-2.4742,-2.4701,-2.4664,-2.4798,-2.5026,-2.5084,-2.5342,0.0,0.0,0.0,0.0,0.0,0.0,0.0,0.0,0.0,0.0,0.0,0.0,0.0,0.0,0.0,0.0,0.0,0.0,0.0,0.0,0.0,0.0,0.0,0.0,0.0,0.0,0.0,0.0,0.0,0.0,0.0,0.0,0.0,0.0,0.0,0.0,0.0,-2.1375,-2.1375,0.0,-2.1616,-2.1616,-2.1698,-2.1827,-2.1921,-2.1874,-2.1698,-2.1712,-2.1616,-2.1423,-2.1568,-2.1664,-2.1664,-2.1841,-2.1996,-2.2184,-2.1949,-2.1793,-2.1746,-2.1636,-2.1431,-2.1224,-2.0795,-2.056,-2.0459,-1.9914,-1.95,-1.9186,-1.8815,-1.8525,-1.8244,-1.7534,-1.7213,-1.7056,0.0,0.0,0.0,0.0,0.0,0.0,0.0,0.0,0.0,0.0,0.0,-2.015,-1.9869,-1.9741,-1.9705,-1.9705,-1.9705,-1.9741,-1.9848,0.0,0.0,0.0,0.0,0.0,0.0,-2.3803,-2.4038,-2.427,-2.4666,-2.4886,-2.5005,-2.5005,-2.5005,-2.5021,-2.4902,-2.4862,-2.4862,-2.4679,-2.4714,-2.488,-2.4792,-2.4984,-2.5331,0.0,0.0,0.0,0.0,0.0,0.0,0.0,0.0,0.0,0.0,0.0,0.0,0.0,0.0,0.0,0.0,0.0,0.0,0.0,0.0,0.0,0.0,0.0,0.0,0.0,0.0,0.0,0.0,0.0,0.0,0.0,0.0,0.0,0.0,-2.118,-2.1229,-2.1375,-2.1423,-2.1423,-2.1423,-2.1423,-2.1423,-2.1423,-2.1423,-2.1423,-2.1423,-2.1423,-2.1423,-2.1423,-2.1664,-2.1793,-2.1793,-2.2091,-2.2278,-2.2463,-2.1996,-2.1793,-2.1779,-2.1334,-2.1028,-2.0832,-2.0497,-2.0207,-2.0055,-1.9708,-1.9344,-1.9069,-1.8804,-1.8363,-1.7863,-1.7213,-1.6832,-1.6627,0.0,0.0,0.0,0.0,0.0,0.0,0.0,0.0,0.0,0.0,-2.015,-1.9884,-1.953,-1.925,-1.9101,-1.9101,-1.9101,-1.9199,-1.9457,-1.9827,0.0,0.0,0.0,0.0,-2.495,-2.4661,-2.4661,-2.4966,-2.4966,-2.4966,-2.4966,-2.4966,-2.5005,-2.5005,-2.5005,-2.5005,-2.5005,-2.4871,-2.4695,-2.4508,-2.4508,-2.4658,-2.488,0.0,0.0,0.0,0.0,0.0,0.0,0.0,0.0,0.0,0.0,0.0,0.0,0.0,0.0,0.0,0.0,0.0,0.0,0.0,0.0,0.0,0.0,0.0,0.0,0.0,0.0,0.0,0.0,0.0,0.0,0.0,0.0,0.0,-2.1277,-2.1229,-2.1229,-2.1375,-2.1423,-2.1423,-2.1423,-2.1423,-2.1423,-2.145,-2.145,-2.145,-2.1477,-2.1477,-2.1477,-2.1477,-2.1753,-2.1896,-2.1896,-2.2147,-2.2287,-2.2287,-2.2005,-2.1595,-2.1046,-2.0762,-2.0347,-1.9823,-1.9823,-1.9512,-1.904,-1.8987,-1.8655,-1.8147,-1.8762,-1.7952,-1.6488,-1.7,-1.6842,-1.6374,0.0,0.0,0.0,0.0,0.0,0.0,0.0,0.0,0.0,0.0,-2.0041,-1.9812,-1.9288,-1.9124,-1.9101,-1.9101,-1.9101,-1.9139,-1.9213,0.0,0.0,0.0,0.0,0.0,-2.4261,-2.4193,-2.4193,-2.4261,-2.4261,-2.44,-2.462,-2.462,-2.4782,-2.5005,-2.5005,-2.5005,-2.5005,-2.495,-2.4839,-2.4719,-2.4616,-2.4627,-2.473,0.0,0.0,0.0,0.0,0.0,0.0,0.0,0.0,0.0,0.0,0.0,0.0,0.0,0.0,0.0,0.0,0.0,0.0,0.0,0.0,0.0,0.0,0.0,0.0,0.0,0.0,0.0,0.0,0.0,0.0,0.0,-2.1664,-2.1746,-2.1664,-2.1471,-2.1375,-2.1423,-2.1423,-2.1423,-2.1423,-2.1423,-2.1599,-2.2034,-2.2061,-2.2365,-2.3018,-2.3096,-2.3183,-2.3356,-2.3632,-2.3745,-2.3745,-2.4003,-2.4134,-2.4057,-2.3653,-2.3156,-2.2582,-2.2115,-2.1366,-2.0426,-2.0426,-2.0135,-1.9552,-1.9146,-1.8655,-1.8093,-1.8267,-1.805,-1.7611,-1.7313,-1.6842,-1.6374,0.0,0.0,0.0,0.0,0.0,0.0,0.0,0.0,0.0,0.0,-1.9797,-1.9617,-1.9139,-1.9101,-1.9101,-1.9101,-1.9101,-1.9101,-1.9101,0.0,0.0,0.0,0.0,-2.3417,-2.3982,-2.3839,-2.3839,-2.3982,-2.3982,-2.4109,-2.4291,-2.4291,-2.4369,-2.4592,-2.4587,-2.4666,-2.48,-2.48,-2.4816,-2.4863,-2.4789,-2.4708,-2.462,-2.4842,-2.493,-2.493,-2.5168,-2.5164,-2.5088,-2.5082,0.0,0.0,0.0,0.0,0.0,0.0,0.0,0.0,0.0,0.0,0.0,0.0,0.0,0.0,0.0,0.0,0.0,0.0,0.0,0.0,0.0,0.0,0.0,0.0,-2.1949,-2.2044,-2.1664,-2.1616,-2.1568,-2.1568,-2.1568,-2.1663,-2.1909,-2.1839,-2.2047,-2.2644,-2.2801,-2.3104,-2.3682,-2.3798,-2.3937,-2.4126,-2.4355,-2.4483,-2.4483,-2.478,-2.4765,-2.4397,-2.396,-2.3396,-2.2818,-2.2281,-2.1677,-2.1016,-2.1016,-2.0407,-1.9383,-1.9083,-1.8354,-1.7401,0.0,0.0,0.0,0.0,-1.6729,-1.6477,0.0,0.0,0.0,0.0,0.0,0.0,0.0,0.0,0.0,0.0,0.0,-1.9384,-1.9139,-1.9101,-1.9101,-1.9101,-1.9101,-1.913,0.0,0.0,0.0,-2.1982,-2.2793,-2.3434,-2.3855,-2.3523,-2.3508,-2.3897,-2.3897,-2.3897,-2.394,-2.3925,-2.3948,-2.3978,-2.4011,-2.4155,-2.4445,-2.4445,-2.4611,-2.4902,-2.4902,-2.48,-2.465,-2.4595,-2.4595,-2.4611,-2.4579,-2.4536,-2.4451,-2.4441,0.0,0.0,0.0,0.0,0.0,0.0,0.0,0.0,0.0,0.0,0.0,0.0,0.0,0.0,0.0,0.0,0.0,0.0,0.0,0.0,0.0,0.0,0.0,0.0,-2.237,-2.2231,-2.152,-2.1719,-2.189,-2.1856,-2.1904,-2.2138,-2.2746,-2.2551,-2.262,-2.3229,-2.3546,-2.373,-2.3799,-2.4007,0.0,0.0,0.0,-2.4582,-2.4582,-2.4783,-2.459,-2.4026,-2.3587,-2.3071,-2.2502,-2.2005,-2.17,-2.1581,-2.1525,-2.056,-1.9044,-1.8873,-1.7831,-1.6488,-1.6944,-1.6842,-1.6431,-1.6581,-1.6637,-1.6637,0.0,0.0,0.0,0.0,0.0,0.0,0.0,0.0,0.0,-1.953,-1.9479,-1.9384,-1.9139,-1.9101,-1.9101,-1.9101,-1.9101,-1.9333,0.0,0.0,-2.0848,-2.1927,-2.2162,-2.2542,-2.3098,-2.3023,-2.3023,-2.3112,-2.3112,-2.3275,-2.3508,-2.3535,-2.3704,-2.3978,-2.4011,-2.4037,-2.4108,-2.4108,-2.4123,-2.421,-2.421,-2.4477,-2.4902,-2.4611,-2.4611,-2.4713,-2.4461,-2.4281,-2.4128,-2.4,-2.3741,-2.3436,-2.3113,-2.3024,0.0,0.0,0.0,0.0,0.0,0.0,0.0,0.0,0.0,0.0,0.0,0.0,0.0,0.0,0.0,0.0,0.0,0.0,0.0,-2.2231,-2.2044,-2.1793,-2.1471,-2.2048,-2.2448,-2.2328,-2.2427,-2.2774,-2.346,-2.3221,-2.3203,-2.3593,-2.3688,-2.3876,-2.4319,-2.4402,-2.4569,-2.4833,-2.4902,-2.4902,-2.4902,-2.4957,-2.4943,-2.4778,-2.4722,0.0,-2.3733,-2.3618,-2.3084,-2.2101,-2.1599,-2.0887,-2.0096,-1.8667,-1.7489,-1.6581,-1.6684,-1.6627,-1.6581,-1.6694,-1.6751,-1.6751,0.0,0.0,0.0,0.0,0.0,0.0,0.0,0.0,0.0,0.0,-1.931,-1.9236,-1.9101,-1.9101,-1.9101,-1.9101,-1.9101,0.0,0.0,-2.019,-2.0828,-2.1467,-2.212,-2.2569,-2.2888,-2.2888,-2.2888,-2.2888,-2.2888,-2.2978,-2.3127,-2.3143,-2.3245,-2.3448,-2.3471,-2.3541,-2.3716,-2.3716,-2.3834,-2.3982,-2.3982,-2.4189,-2.448,-2.4324,-2.4296,-2.4392,-2.421,-2.4074,-2.3947,-2.3814,-2.364,-2.3348,-2.2844,-2.2694,-2.2663,0.0,0.0,0.0,0.0,0.0,0.0,0.0,0.0,0.0,0.0,0.0,0.0,0.0,0.0,-2.2231,-2.237,0.0,-2.2555,-2.2417,-2.237,-2.2175,-2.1655,-2.2336,-2.2677,-2.2177,-2.2702,-2.3293,-2.3594,-2.3393,-2.3373,-2.3844,-2.3997,-2.423,-2.4496,-2.4681,-2.4851,-2.5007,-2.5007,-2.5007,-2.5007,-2.5007,-2.4851,-2.4567,-2.4567,-2.4234,-2.3603,-2.3603,-2.3272,-2.2664,-2.197,-2.1236,-2.0322,-1.8632,-1.7711,-1.7332,-1.752,-1.7222,-1.6818,-1.7188,-1.7284,-1.7316,0.0,0.0,0.0,0.0,0.0,0.0,0.0,0.0,0.0,0.0,-1.9101,-1.9101,-1.9101,-1.9101,-1.9101,0.0,0.0,0.0,0.0,-2.0175,-2.0872,-2.0988,-2.212,-2.2772,-2.2888,-2.2888,-2.2902,-2.2947,-2.2902,-2.2888,-2.2933,-2.2888,-2.2902,-2.2962,-2.2962,-2.3094,-2.3316,-2.3316,-2.3509,-2.3806,-2.3806,-2.3806,-2.3777,-2.3766,-2.3867,-2.4,-2.3889,-2.3816,-2.3718,-2.367,-2.3566,-2.329,-2.2663,-2.242,-2.2434,-2.2263,-2.231,0.0,0.0,0.0,0.0,0.0,0.0,0.0,0.0,-2.2137,-2.2044,-2.2278,-2.2324,-2.237,-2.2509,-2.2509,-2.2505,-2.2526,-2.2587,-2.2454,-2.1952,-2.2549,-2.2733,-2.1996,-2.2894,-2.3647,-2.375,-2.355,-2.3576,-2.3975,-2.4176,-2.4292,-2.4221,-2.4509,-2.461,-2.461,-2.461,-2.461,-2.461,-2.461,-2.4394,-2.3897,-2.3897,-2.3603,-2.3078,-2.3078,-2.3078,-2.3078,-2.2249,-2.126,-2.0086,-1.8736,-1.8112,-1.8089,-1.8405,-1.804,-1.7391,-1.7802,-1.7943,-1.8008,0.0,0.0,0.0,0.0,0.0,0.0,0.0,0.0,0.0,0.0,0.0,0.0,0.0,0.0,0.0,0.0,0.0,0.0,-1.9101,-1.9783,-2.0436,-2.0973,-2.1699,-2.2367,-2.2888,-2.2888,-2.2947,-2.3082,-2.2947,-2.2978,-2.3083,-2.2978,-2.2976,-2.308,-2.308,-2.3094,-2.3109,-2.3109,-2.3094,-2.3006,-2.3006,-2.3006,-2.3036,-2.3038,-2.3422,-2.394,-2.3598,-2.3466,-2.3406,-2.3245,-2.2949,-2.2646,-2.231,-2.2217,-2.2217,-2.2231,-2.2231,-2.2217,-2.2217,-2.2263,-2.2324,-2.2509,-2.237,-2.2278,0.0,-2.2661,-2.2555,-2.2797,-2.2797,-2.2706,-2.2324,-2.2231,-2.2258,-2.2223,-2.1867,-2.1733,-2.2178,-2.2784,-2.2932,-2.2337,-2.3067,-2.3832,-2.4363,-2.4142,-2.3891,-2.3675,-2.3675,-2.3556,-2.3245,-2.3305,-2.3305,-2.3305,-2.3305,-2.3305,-2.3305,-2.3305,-2.3305,-2.3185,-2.3185,-2.3185,-2.3078,-2.3078,-2.3078,-2.3005,-2.1753,-2.0585,-1.9489,-1.9018,-1.8573,-1.819,-1.8566,-1.8622,-1.8534,-1.8589,-1.8611,-1.8622,0.0,0.0,0.0,0.0,0.0,0.0,0.0,0.0,0.0,0.0,0.0,0.0,0.0,0.0,0.0,0.0,0.0,0.0,-1.9101,-1.9462,-1.9815,-2.0057,-2.0781,-2.1293,-2.1559,-2.1881,-2.2203,-2.2555,-2.2225,-2.22,-2.2566,-2.2536,-2.2505,-2.2579,-2.2863,-2.2996,-2.2966,-2.2994,-2.2962,-2.2888,-2.2888,-2.2888,-2.2888,-2.2888,-2.3094,-2.3346,-2.3171,-2.3127,0.0,0.0,-2.2888,-2.2752,-2.2509,-2.2417,-2.2417,-2.2231,-2.2324,-2.2463,-2.2555,-2.2615,-2.2615,-2.2752,-2.2615,-2.2509,-2.2843,-2.2752,-2.2661,-2.2843,-2.2888,-2.2843,-2.2661,-2.237,-2.2272,-2.263,-2.2214,-2.2087,-2.2672,-2.2998,-2.3044,-2.2808,-2.3081,-2.3392,-2.3682,-2.3603,-2.3484,-2.3318,-2.3318,-2.3258,-2.3138,-2.3078,-2.3078,-2.3078,-2.3078,-2.3078,-2.3078,-2.3078,-2.3078,-2.3078,-2.3078,-2.3078,-2.3078,-2.2689,-2.2113,-2.1302,-2.073,-2.0051,-1.9361,-1.9307,-1.9254,-1.92,-1.9412,-1.9539,-1.9506,-1.9222,-1.9113,-1.9157,0.0,0.0,0.0,0.0,0.0,0.0,0.0,0.0,0.0,0.0,0.0,0.0,0.0,0.0,0.0,0.0,0.0,0.0,0.0,-1.908,-1.9165,-1.9251,-1.9784,-2.0279,-2.0574,-2.0982,-2.1458,-2.203,-2.1627,-2.1625,-2.2013,-2.2005,-2.2008,-2.2067,-2.2556,-2.2746,-2.2717,-2.2891,-2.2917,-2.2888,-2.2888,-2.2888,-2.2888,-2.2888,-2.2888,-2.2888,-2.2888,-2.2888,0.0,0.0,-2.2888,-2.2843,-2.2752,-2.2661,-2.2661,-2.2463,-2.2509,-2.2706,-2.2843,-2.2888,-2.2888,-2.2888,-2.2797,-2.2706,-2.2843,-2.2797,-2.2706,-2.2843,-2.2881,-2.2858,-2.2705,-2.2421,-2.2336,-2.2736,-2.2508,-2.2431,-2.3031,-2.3116,-2.3096,-2.3088,-2.3078,-2.3078,-2.3078,-2.3078,-2.3078,-2.3078,-2.3078,-2.3078,-2.3078,-2.3078,-2.3078,-2.3078,-2.3078,-2.3078,-2.3078,-2.3078,-2.3078,-2.3078,-2.3078,-2.3078,-2.3078,-2.2433,-2.1479,-2.0355,-2.0161,-1.9846,-1.9539,-1.9539,-1.9615,-1.9802,-2.0009,-2.0085,-2.0042,-1.9746,-1.9615,-1.967,0.0,0.0,0.0,0.0,0.0,0.0,0.0,0.0,0.0,0.0,0.0,0.0,0.0,0.0,0.0,0.0,0.0,0.0,0.0,-1.8528,-1.8597,-1.8822,-1.8835,-1.9407,-2.0547,-2.0601,-2.0967,-2.1609,-2.1472,-2.1492,-2.1641,-2.1471,-2.1513,-2.1629,-2.2095,-2.2345,-2.2359,-2.2873,-2.3006,-2.2888,-2.2888,-2.2888,-2.2888,-2.2888,-2.2888,-2.2888,-2.2888,0.0,0.0,-2.2888,-2.2888,-2.2888,-2.2888,-2.2888,-2.2888,-2.2888,-2.2888,-2.2888,-2.2888,-2.2888,-2.2888,-2.2888,-2.2888,-2.2888,-2.2888,-2.2888,-2.2888,-2.2888,-2.2946,-2.286,-2.2337,-2.2272,-2.2273,-2.2344,-2.2317,-2.246,-2.3025,-2.3113,-2.3113,-2.3078,-2.3078,-2.3078,-2.3078,-2.3078,-2.3078,-2.3078,-2.3078,-2.3078,-2.3078,-2.3078,-2.3078,-2.3078,-2.3078,-2.3078,-2.3078,-2.3078,-2.3078,-2.3078,-2.3078,-2.3078,-2.3078,-2.2433,-2.1741,-2.0996,-2.0355,-2.0107,-2.0042,-1.9528,-1.9407,-1.9605,-1.9802,-2.0009,-2.0085,-2.0064,-2.0064,-2.0064,0.0,0.0,0.0,0.0,0.0,0.0,0.0,0.0,0.0,0.0,0.0,0.0,0.0,0.0,0.0,0.0,0.0,0.0,0.0,-1.7787,-1.7678,-1.7726,-1.7809,-1.8067,-1.8468,-1.8843,-1.9467,-2.0409,-1.9992,-2.0175,-2.096,-2.0898,-2.0894,-2.0983,-2.1844,-2.2213,-2.2286,-2.277,-2.2962,-2.2888,-2.2888,-2.2888,-2.2888,-2.2888,-2.2888,-2.2888,0.0,0.0,-2.2888,-2.2888,-2.2888,-2.2843,-2.2509,-2.2417,-2.237,-2.2016,-2.2402,-2.2843,-2.2509,-2.2661,-2.2843,-2.2509,-2.3022,-2.3464,-2.3122,-2.3607,-2.4038,-2.3672,-2.3568,-2.3409,-2.2848,-2.2472,-2.2447,-2.2794,-2.254,-2.2498,-2.3002,-2.3078,-2.3078,-2.3078,-2.3078,-2.3078,-2.3078,-2.3078,-2.3078,-2.3078,-2.3078,-2.3078,-2.3078,-2.3078,-2.3078,-2.3078,-2.3078,-2.3314,-2.3703,-2.3703,-2.3692,-2.3634,-2.2835,-2.2145,-2.1541,-2.1016,-2.0409,-1.9781,-1.9518,-1.9594,-1.9726,-1.9539,-1.9681,-1.9944,-2.0009,-2.0074,-2.0085,-2.0085,-2.0085,-2.0085,0.0,0.0,0.0,0.0,0.0,0.0,0.0,0.0,0.0,0.0,0.0,0.0,0.0,0.0,0.0,0.0,0.0,-1.7598,0.0,0.0,-1.7115,-1.6947,-1.7048,-1.7162,-1.742,-1.7727,-1.8414,-1.9512,-1.9171,-1.9447,-2.03,-2.0294,-2.0322,-2.0348,-2.125,-2.1636,-2.1649,-2.2152,-2.2473,-2.2658,-2.2675,-2.2752,-2.2888,-2.2706,-2.2661,0.0,0.0,0.0,-2.2402,-2.2615,-2.2661,-2.2555,-2.2077,-2.1921,-2.1827,-2.1513,-2.186,-2.231,-2.2016,-2.2264,-2.2588,-2.2303,-2.2895,-2.3505,-2.3145,-2.3616,-2.4047,-2.3664,-2.3571,-2.3525,-2.3111,-2.2818,-2.2711,-2.3071,-2.2832,-2.2736,-2.3027,-2.3078,-2.3078,-2.3078,-2.3078,-2.3078,-2.3078,-2.3078,-2.3078,-2.3078,-2.3078,-2.3078,-2.3078,-2.3265,-2.3439,-2.3439,-2.364,-2.3916,-2.4293,-2.4014,-2.3713,-2.3356,-2.264,-2.1823,-2.1011,-2.0762,-2.0218,-1.9551,-1.9619,-1.9755,-1.997,-2.0105,-2.024,-2.053,-2.053,-2.0597,-2.0664,-2.0664,-2.0555,-2.038,0.0,0.0,0.0,0.0,0.0,0.0,0.0,0.0,0.0,0.0,0.0,0.0,0.0,0.0,0.0,0.0,0.0,0.0,0.0,0.0,0.0,-1.6522,-1.6522,-1.6773,-1.7325,-1.7338,-1.7895,-1.8925,-1.8946,-1.9191,-1.9786,-1.9786,-1.9786,-1.9811,-2.0348,-2.0592,-2.063,-2.1159,-2.1683,-2.2169,-2.2166,-2.2417,-2.2752,-2.2324,0.0,0.0,0.0,0.0,-2.1465,-2.1983,-2.2123,-2.203,-2.1527,-2.1369,-2.1369,-2.1321,-2.1396,-2.141,-2.141,-2.1794,-2.2255,-2.2204,-2.265,-2.3029,-2.3029,-2.3056,-2.3083,-2.3083,-2.312,-2.315,-2.3093,-2.3068,-2.3078,-2.3078,-2.3078,-2.3078,-2.3078,-2.3078,-2.3078,-2.3078,-2.3078,-2.3078,-2.3078,-2.3078,-2.309,-2.3115,-2.3115,-2.3115,-2.3115,-2.3666,-2.3979,-2.3904,-2.448,-2.4703,-2.4728,-2.3983,-2.3238,-2.2548,-2.2457,-2.2114,-2.1452,-2.1431,-2.1069,-2.042,-2.0634,-2.0705,-2.0776,-2.0917,-2.1139,-2.1312,-2.1312,-2.1452,-2.1592,-2.1592,-2.1297,-2.0839,0.0,0.0,0.0,0.0,0.0,0.0,0.0,0.0,0.0,0.0,0.0,0.0,0.0,0.0,0.0,0.0,0.0,0.0,0.0,0.0,0.0,0.0,0.0,0.0,0.0,0.0,0.0,0.0,0.0,-1.8289,-1.9202,-1.9202,-1.9443,-1.9811,-2.0348,-2.0616,-2.0646,-2.1153,-2.1496,-2.1602,0.0,-2.167,-2.1766,0.0,0.0,0.0,0.0,-2.1417,-2.1417,-2.1575,-2.1334,-2.1006,-2.0858,-2.0795,-2.0746,-2.0346,-2.1036,-2.1934,-2.1493,-2.2058,-2.2708,-2.2379,-2.3031,-2.3608,-2.3226,-2.3834,-2.4378,-2.3887,-2.3848,-2.3677,-2.3208,-2.3097,-2.3078,-2.3078,-2.3078,-2.3078,-2.3078,-2.3078,-2.3078,-2.3078,-2.3078,-2.3078,-2.3078,-2.3078,-2.3045,-2.2868,-2.3443,-2.3505,-2.2904,-2.3963,-2.4067,-2.2901,-2.3574,-2.3826,-2.3663,-2.3498,-2.3201,-2.2838,-2.2031,-2.1509,-2.1219,-2.0862,-2.0634,-2.0634,-2.0705,-2.0857,-2.115,-2.1231,-2.1371,-2.1522,-2.1522,-2.1522,-2.1592,-2.1592,-2.1505,-2.1385,0.0,0.0,0.0,0.0,0.0,0.0,0.0,0.0,0.0,0.0,0.0,0.0,0.0,0.0,0.0,0.0,0.0,0.0,0.0,0.0,0.0,0.0,0.0,0.0,0.0,0.0,0.0,0.0,0.0,0.0,0.0,-1.8624,-1.8796,-1.9127,-1.9645,-1.9911,-1.9917,-2.0495,0.0,0.0,0.0,0.0,0.0,0.0,0.0,0.0,0.0,-2.0683,-2.0683,-2.0683,-2.0497,-2.0258,-2.0258,-2.0258,-2.0258,-2.0217,-2.0809,-2.1525,-2.1467,-2.2053,-2.2646,-2.2339,-2.2933,-2.3506,-2.3219,-2.3696,-2.4047,-2.3721,-2.3662,-2.3543,-2.3198,-2.3078,-2.3078,-2.3078,-2.3078,-2.3078,-2.3078,-2.3078,-2.3078,-2.3078,-2.2811,-2.2689,-2.2689,-2.259,-2.2468,-2.238,-2.3059,-2.322,-2.2709,-2.3628,-2.378,-2.2868,-2.3502,-2.3618,-2.3133,-2.3154,-2.2927,-2.2478,-2.1838,-2.1489,-2.1414,-2.1145,-2.1104,-2.1178,-2.1251,-2.147,-2.1771,-2.1854,-2.206,-2.2204,-2.2204,-2.2204,-2.2204,-2.2204,-2.2084,-2.1909,0.0,0.0,0.0,0.0,0.0,0.0,0.0,0.0,0.0,0.0,0.0,0.0,0.0,0.0,0.0,0.0,0.0,0.0,0.0,0.0,0.0,0.0,0.0,0.0,0.0,0.0,0.0,0.0,0.0,0.0,0.0,0.0,0.0,0.0,0.0,0.0,0.0,0.0,0.0,0.0,0.0,0.0,0.0,0.0,0.0,0.0,-1.9952,-1.9798,-1.9798,-1.9798,-1.9798,-1.9798,-1.9798,-1.9849,-2.0012,-2.0567,-2.0819,-2.0991,-2.1468,-2.1995,-2.2422,-2.2422,-2.2786,-2.3078,-2.3078,-2.3078,-2.3078,-2.3078,-2.3078,-2.3078,-2.3078,-2.3078,-2.3078,-2.3078,-2.3078,-2.3078,-2.3078,-2.3005,-2.2944,-2.2944,-2.2372,-2.2013,-2.2085,-2.1876,-2.1818,-2.1822,-2.2395,-2.2647,-2.2491,-2.305,-2.3395,-2.3254,-2.3602,-2.3475,-2.2852,-2.2852,-2.2478,-2.1807,-2.1807,-2.1807,-2.1807,-2.1807,-2.1807,-2.1883,-2.2025,-2.2176,-2.2402,-2.2628,-2.2777,-2.2927,-2.2927,-2.3001,-2.3001,-2.3001,-2.275,-2.2411,0.0,0.0,0.0,0.0,0.0,0.0,0.0,0.0,0.0,0.0,0.0,0.0,0.0,0.0,0.0,0.0,0.0,0.0,0.0,0.0,0.0,0.0,0.0,0.0,0.0,-1.6522,-1.6534,-1.667,-1.667,0.0,0.0,0.0,0.0,0.0,0.0,0.0,0.0,0.0,0.0,0.0,0.0,0.0,0.0,0.0,0.0,0.0,-1.985,-1.9798,-1.9798,-1.9798,-1.9798,-1.9798,-1.9798,-2.0125,-2.0539,-2.0693,-2.1305,-2.2046,-2.2146,-2.2573,-2.2927,-2.2927,-2.3002,-2.3078,-2.3078,-2.3078,-2.3078,-2.3078,-2.3078,-2.3078,-2.3078,-2.3078,-2.3078,-2.3078,-2.3078,-2.3078,-2.3078,-2.2616,-2.2298,-2.2298,-2.1678,-2.1412,-2.1839,-2.1835,-2.1902,-2.2024,-2.2138,-2.2182,-2.2188,-2.3289,-2.3704,-2.308,-2.2499,-2.2176,-2.2025,-2.2025,-2.1959,-2.1807,-2.1807,-2.1807,-2.1807,-2.1807,-2.1883,-2.2025,-2.2101,-2.2176,-2.2402,-2.2478,-2.2553,-2.2777,-2.2777,-2.2852,-2.3001,-2.3001,-2.2957,-2.2881,0.0,0.0,0.0,0.0,0.0,0.0,0.0,0.0,0.0,0.0,-1.5812,-1.5913,0.0,0.0,0.0,0.0,0.0,0.0,0.0,0.0,0.0,0.0,0.0,0.0,0.0,-1.6436,-1.6466,-1.6522,0.0,-1.667,-1.6913,-1.6955,-1.7061,-1.7321,-1.7634,-1.7777,-1.7815,0.0,0.0,-1.8995,-1.9296,-1.956,0.0,0.0,0.0,0.0,0.0,-1.9798,-1.9759,-1.95,-1.9396,-1.9448,-1.9695,-1.9989,-2.0335,-2.0949,-2.1669,-2.2372,-2.2661,-2.2877,-2.3078,-2.3078,-2.3078,-2.3078,-2.3078,-2.3078,-2.3078,-2.3078,-2.3078,-2.3078,-2.3078,-2.3078,-2.3078,-2.3078,-2.2811,-2.2555,-2.2555,-2.199,-2.1553,-2.1553,-2.0996,-2.0738,-2.1241,-2.1182,-2.1215,-2.1564,-2.1839,-2.1903,-2.1903,-2.2552,-2.2756,-2.2402,-2.2035,-2.1807,-2.1807,-2.1807,-2.1807,-2.1807,-2.1807,-2.1807,-2.1807,-2.1807,-2.1873,-2.1949,-2.1949,-2.2035,-2.2252,-2.2327,-2.2553,-2.2703,-2.2852,-2.2927,-2.3001,-2.2852,-2.2852,-2.2852,0.0,0.0,0.0,0.0,0.0,0.0,0.0,-1.5591,-1.5546,-1.5153,-1.5424,-1.5659,-1.5659,-1.5748,0.0,0.0,0.0,0.0,0.0,0.0,0.0,0.0,0.0,0.0,0.0,0.0,0.0,-1.643,-1.6448,0.0,0.0,0.0,0.0,0.0,-1.6999,-1.72,-1.7237,-1.779,-1.8279,0.0,0.0,-1.9171,-1.9648,0.0,0.0,0.0,0.0,-1.9708,-1.9552,-1.9081,-1.8815,-1.8709,-1.9214,-1.957,-1.9933,-2.0974,-2.1629,-2.2147,-2.2578,-2.2763,-2.2884,-2.2884,-2.3005,-2.3078,-2.3078,-2.3078,-2.3078,-2.3078,-2.3078,-2.3078,-2.3078,-2.3078,-2.3065,-2.2944,-2.2433,-2.2039,-2.1928,-2.1302,-2.0869,-2.0869,-2.0291,-2.0072,-2.0654,-2.0485,-2.0659,-2.1217,-2.16,-2.1807,-2.1807,-2.1807,-2.1807,-2.1807,-2.1807,-2.1807,-2.1807,-2.1807,-2.1807,-2.1807,-2.1807,-2.1807,-2.1807,-2.1807,-2.1807,-2.1807,-2.1807,-2.1883,-2.2025,-2.2176,-2.2402,-2.2553,-2.2777,-2.2852,-2.2852,-2.2703,-2.2628,-2.2628,0.0,0.0,0.0,0.0,0.0,0.0,0.0,-1.4789,-1.488,-1.5062,-1.5153,-1.5153,-1.5153,-1.5558,0.0,0.0,0.0,0.0,0.0,0.0,0.0,0.0,0.0,0.0,0.0,0.0,0.0,-1.6235,-1.6237,0.0,0.0,0.0,0.0,0.0,0.0,-1.6597,-1.6635,-1.7212,0.0,0.0,0.0,0.0,0.0,0.0,0.0,0.0,0.0,-1.9251,-1.904,-1.8869,-1.8147,-1.7479,-1.7907,-1.8803,-1.9701,-2.028,-2.0788,-2.1192,-2.1239,-2.1741,-2.2175,-2.2175,-2.2628,-2.3078,-2.3078,-2.3078,-2.3078,-2.3078,-2.3078,-2.3078,-2.3078,-2.3078,-2.2884,-2.2298,-2.2163,-2.1865,-2.125,-2.0613,-2.0161,-2.0161,-1.9584,-1.9542,-2.0346,-2.04,-2.0793,-2.1673,-2.1787,-2.1807,-2.1807,-2.1807,-2.1807,-2.1807,-2.1807,-2.1807,-2.1807,-2.1807,-2.1807,-2.1807,-2.1807,-2.1807,-2.1807,-2.1807,-2.1807,-2.1807,-2.1807,-2.1807,-2.1807,-2.1883,-2.1949,-2.2176,-2.2176,-2.2327,-2.2478,-2.2402,-2.2402,-2.2402,0.0,0.0,0.0,0.0,0.0,0.0,0.0,-1.4523,-1.4616,-1.4547,-1.4869,-1.5017,-1.4891,-1.5153,-1.5424,0.0,0.0,0.0,0.0,0.0,0.0,0.0,0.0,0.0,0.0,0.0,-1.6105,-1.6215,-1.6223,0.0,0.0,0.0,0.0,0.0,0.0,-1.6362,-1.6461,-1.6685,0.0,0.0,0.0,0.0,0.0,0.0,0.0,0.0,0.0,0.0,-1.9146,-1.8375,-1.7875,-1.749,-1.7209,-1.7445,-1.8078,-1.94,-2.0202,-2.0733,-2.1043,-2.1302,-2.1491,-2.1491,-2.169,-2.2002,-2.2433,-2.2494,-2.2616,-2.3005,-2.275,-2.2628,-2.3005,-2.2445,-2.1939,-2.2113,-2.1416,-2.0794,-2.0549,-1.9911,-1.9518,-1.9518,-1.9264,-1.9427,-2.0338,-2.042,-2.0803,-2.1735,-2.1807,-2.1807,-2.1807,-2.1807,-2.1807,-2.1807,-2.1807,-2.1807,-2.1807,-2.1807,-2.1807,-2.1807,-2.1807,-2.1807,-2.1807,-2.1807,-2.1807,-2.1807,-2.1807,-2.1807,-2.1807,-2.1949,-2.2035,-2.2101,-2.2252,-2.2158,-2.1977,-2.1829,-2.1649,-2.1406,0.0,0.0,0.0,0.0,0.0,0.0,-1.414,-1.4291,-1.4384,-1.4222,-1.4593,-1.4789,-1.4616,-1.4789,-1.5017,-1.5244,0.0,0.0,0.0,0.0,0.0,0.0,0.0,0.0,0.0,0.0,-1.5997,-1.6078,-1.6078,-1.6098,0.0,0.0,-1.6169,-1.62,0.0,0.0,0.0,0.0,0.0,0.0,0.0,0.0,0.0,0.0,0.0,0.0,0.0,0.0,0.0,0.0,0.0,-1.7065,-1.6491,-1.6356,0.0,-1.8289,-1.9127,-1.9638,-2.0139,-2.04,-2.0549,-2.0771,-2.0933,-2.1101,-2.1592,-2.1791,-2.1928,-2.231,-2.2039,-2.1854,-2.2359,-2.1678,-2.1101,0.0,-2.073,-2.0042,-1.9846,-1.9396,-1.9075,-1.9075,-1.9075,-1.9427,-2.0338,-2.0669,-2.1104,-2.1756,-2.1807,-2.1807,-2.1807,-2.1807,-2.1807,-2.1807,-2.1807,-2.1807,-2.1807,-2.1807,-2.1807,-2.1807,-2.1568,-2.1415,-2.1415,-2.1415,-2.1415,-2.1415,-2.1721,-2.1807,-2.1807,-2.1959,-2.1952,-2.1826,-2.1976,-2.1755,-2.1271,-2.1125,-2.0916,-2.0634,0.0,0.0,0.0,0.0,0.0,0.0,0.0,-1.402,-1.4057,-1.4176,-1.4222,-1.4269,-1.4373,-1.443,-1.4466,-1.4708,0.0,0.0,0.0,0.0,0.0,0.0,0.0,0.0,0.0,0.0,-1.5792,-1.5792,-1.5792,-1.5869,-1.5988,-1.5988,-1.6088,-1.62,0.0,0.0,0.0,0.0,0.0,0.0,0.0,0.0,0.0,0.0,0.0,0.0,0.0,0.0,0.0,0.0,0.0,0.0,0.0,-1.5798,0.0,0.0,-1.7409,-1.7646,-1.8096,-1.8648,-1.9306,-1.9911,-2.0462,-2.0824,-2.0812,-2.0974,-2.0996,-2.0719,-2.0707,-2.0824,-2.0812,-2.0812,-2.0643,-2.0226,-2.0096,-1.9846,-1.9198,-1.9075,-1.9075,-1.9075,-1.9075,-1.9427,-2.0338,-2.1248,-2.1797,-2.1807,-2.1807,-2.1807,-2.1807,-2.1807,-2.1807,-2.1807,-2.1807,-2.1807,-2.1807,-2.1807,-2.1807,-2.1807,-2.0934,-2.0537,-2.0537,-2.0537,-2.0537,-2.0547,-2.1415,-2.1807,-2.1807,-2.1807,-2.1538,-2.1124,-2.1124,-2.0845,-2.0431,-2.0431,-2.0431,-2.0278,0.0,0.0,0.0,0.0,0.0,0.0,0.0,-1.3868,-1.3915,-1.4057,-1.414,-1.4269,-1.4384,-1.4326,-1.4326,-1.4466,0.0,0.0,0.0,0.0,0.0,0.0,0.0,0.0,0.0,0.0,-1.5576,-1.5576,-1.5603,-1.5671,-1.5881,-1.5736,-1.5736,-1.5925,-1.578,-1.5869,0.0,0.0,0.0,0.0,0.0,0.0,-1.7569,0.0,0.0,0.0,0.0,0.0,0.0,0.0,0.0,0.0,0.0,0.0,0.0,-1.592,-1.6397,-1.7042,-1.7792,-1.8114,-1.841,-1.8885,-1.9121,-1.9375,-1.9879,-2.0009,-2.015,-2.0526,-2.0268,-2.0139,-2.0579,-1.9879,-1.9375,-1.9835,-1.9518,-1.9198,-1.9131,-1.9075,-1.9075,-1.9075,-1.9624,-2.011,-2.0389,-2.1259,-2.1807,-2.1807,-2.1807,-2.1568,-2.0934,-2.0934,-2.1175,-2.1807,-2.1807,-2.1807,-2.1807,-2.1175,-2.0934,-2.0934,-2.006,-1.9982,-2.0459,-2.0459,-2.0857,-2.1405,-2.1645,-2.1621,-2.1331,-2.1331,-2.1062,-2.0638,-2.0638,-2.0073,-1.9253,-1.9253,-1.8693,-1.8011,0.0,0.0,0.0,0.0,0.0,0.0,0.0,-1.3716,-1.3763,-1.3926,-1.401,-1.4093,-1.4244,-1.4186,-1.4093,-1.3941,0.0,0.0,0.0,0.0,0.0,0.0,0.0,0.0,0.0,-1.5276,-1.5334,-1.5365,-1.5357,-1.5426,-1.5513,-1.5424,-1.5424,-1.5513,-1.5379,-1.5468,0.0,0.0,0.0,0.0,0.0,0.0,-1.7399,0.0,0.0,0.0,0.0,0.0,0.0,0.0,0.0,0.0,0.0,0.0,0.0,0.0,-1.5723,-1.6327,-1.7109,-1.7309,-1.745,-1.8137,-1.8231,-1.8328,-1.8946,-1.9177,-1.9243,-1.9562,-1.9365,-1.9243,-1.9628,-1.8988,-1.8607,-1.9187,-1.8931,-1.8741,-1.8942,-1.8731,-1.8519,-1.8307,-1.9013,-1.9548,-1.9548,-2.0331,-2.0847,-2.0847,-2.0847,-2.0615,-2.006,-2.006,-2.0294,-2.0847,-2.0847,-2.0847,-2.0847,-2.0294,-2.006,-2.006,-1.9186,-1.9265,-2.006,-2.006,-2.0537,-2.1318,-2.146,-2.1223,0.0,-2.0771,-2.0205,-1.9362,-1.9657,-1.9033,-1.8021,-1.8021,-1.7571,-1.6932,0.0,0.0,0.0,0.0,0.0,0.0,0.0,0.0,0.0,0.0,-1.3773,-1.3763,-1.3926,-1.3915,-1.3668,0.0,0.0,0.0,0.0,0.0,0.0,0.0,0.0,0.0,0.0,-1.504,-1.5085,-1.5074,-1.5074,-1.5074,-1.5108,-1.5062,-1.5062,-1.5108,-1.5062,-1.5062,0.0,0.0,0.0,0.0,0.0,0.0,0.0,0.0,0.0,0.0,0.0,0.0,0.0,0.0,0.0,0.0,0.0,0.0,0.0,0.0,0.0,0.0,0.0,-1.6287,-1.6515,-1.754,-1.7715,-1.7714,-1.8131,-1.8317,0.0,-1.8076,-1.8144,-1.8269,-1.8269,-1.8269,-1.8337,-1.8482,-1.8414,-1.8472,-1.8674,-1.8114,-1.7423,-1.6932,-1.7587,-1.8082,-1.8082,-1.8797,-1.9335,-1.9335,-1.9335,-1.9256,-1.9186,-1.9186,-1.9186,-1.9107,-1.9107,-1.9177,-1.9335,-1.9256,-1.9186,-1.9186,-1.8318,-1.839,-1.9186,-1.9186,-1.9659,-2.044,-2.0777,-2.0565,-1.9889,-2.0123,-1.9088,-1.7555,-1.8283,-1.7834,-1.6793,-1.6793,-1.6793,-1.6793,0.0,0.0,0.0,0.0,0.0,0.0,0.0,0.0,0.0,0.0,0.0,-1.3266,-1.3362,-1.2909,0.0,0.0,0.0,0.0,0.0,0.0,0.0,0.0,0.0,0.0,0.0,-1.4717,-1.4808,-1.4775,-1.4787,-1.4903,-1.5108,-1.488,-1.488,-1.5108,-1.488,-1.4789,-1.48,0.0,0.0,0.0,0.0,0.0,0.0,0.0,0.0,0.0,-1.657,-1.6415,0.0,0.0,0.0,0.0,0.0,0.0,0.0,0.0,-1.541,-1.543,-1.5596,0.0,-1.6253,-1.6865,-1.7194,-1.7468,0.0,-1.785,-1.8076,-1.8008,-1.8008,-1.8076,-1.8076,-1.8076,-1.8144,-1.8347,-1.7842,-1.756,-1.791,-1.7423,-1.7079,-1.6932,-1.7587,-1.8082,-1.8082,-1.8797,-1.9335,-1.9335,-1.9335,-1.9027,-1.8318,-1.8318,-1.7997,-1.7367,-1.7286,-1.7917,-1.9265,-1.863,-1.8318,-1.8318,-1.7448,-1.7448,-1.8318,-1.8318,-1.8789,-1.9552,-1.9391,-1.9042,-1.8564,-1.8278,-1.7713,-1.707,-1.7288,-1.6815,-1.6035,-1.6035,-1.5683,-1.5259,0.0,0.0,0.0,0.0,0.0,0.0,0.0,0.0,0.0,0.0,0.0,0.0,0.0,0.0,0.0,0.0,0.0,0.0,0.0,0.0,0.0,0.0,0.0,0.0,0.0,-1.4018,-1.4154,-1.4488,-1.4477,-1.4558,-1.4789,-1.4605,-1.4651,-1.4789,-1.4605,-1.4558,-1.4569,-1.4834,-1.4926,-1.4926,-1.5062,0.0,0.0,0.0,0.0,0.0,-1.5816,-1.569,0.0,-1.5303,-1.5254,-1.5313,0.0,0.0,0.0,0.0,-1.541,-1.541,-1.541,-1.5586,-1.5869,-1.6318,-1.6602,-1.6885,-1.7295,-1.7559,-1.7773,-1.7969,-1.8008,-1.7872,-1.7579,-1.7579,-1.751,-1.7148,-1.6932,-1.6655,-1.6594,-1.6315,-1.6035,-1.5754,-1.6422,-1.6884,-1.696,-1.7639,-1.8078,-1.8078,-1.8078,-1.7917,-1.7448,-1.7367,-1.7212,-1.673,-1.673,-1.7131,-1.8078,-1.7602,-1.7367,-1.7367,-1.6894,-1.7123,-1.7997,-1.7997,-1.8382,-1.9058,-1.8662,-1.8024,-1.7331,-1.7277,-1.6704,-1.5895,-1.6245,-1.5895,-1.5267,-1.5692,-1.5417,-1.5054,0.0,0.0,0.0,0.0,0.0,0.0,0.0,0.0,0.0,0.0,0.0,0.0,0.0,0.0,0.0,0.0,0.0,0.0,0.0,0.0,0.0,0.0,0.0,-1.2735,-1.3392,-1.3182,-1.3365,-1.392,-1.4025,-1.4082,-1.4186,-1.4326,-1.4384,-1.4373,-1.4337,-1.4326,-1.4373,-1.4466,-1.4569,-1.4651,-1.4777,0.0,0.0,0.0,0.0,0.0,0.0,0.0,0.0,-1.497,-1.5098,-1.5156,-1.5215,0.0,0.0,0.0,0.0,0.0,-1.5118,-1.5108,-1.5204,-1.5749,-1.5885,-1.6127,-1.6883,0.0,-1.7402,-1.7822,-1.791,-1.7726,-1.707,-1.7088,-1.6881,-1.5886,-1.5956,-1.5886,-1.5204,-1.5133,-1.4919,-1.4497,-1.5005,-1.5481,-1.5674,-1.6269,-1.6675,-1.673,-1.673,-1.673,-1.673,-1.673,-1.673,-1.673,-1.673,-1.673,-1.673,-1.673,-1.673,-1.673,-1.673,-1.7131,-1.7836,-1.7785,-1.7978,-1.8353,-1.7893,-1.7137,-1.6212,-1.6466,-1.5754,-1.4641,-1.5338,-1.5204,-1.4713,-1.5346,-1.5409,-1.5409,0.0,0.0,0.0,0.0,0.0,0.0,0.0,0.0,0.0,0.0,0.0,0.0,0.0,0.0,0.0,0.0,0.0,0.0,0.0,0.0,0.0,0.0,-1.1963,-1.245,-1.2572,-1.2513,-1.2586,-1.2694,-1.3258,-1.3362,-1.3054,-1.3978,-1.4326,-1.4222,-1.4104,-1.4104,-1.4222,-1.3894,-1.4046,-1.4373,-1.3742,0.0,0.0,0.0,0.0,0.0,0.0,0.0,0.0,-1.497,-1.5029,-1.5029,-1.5156,0.0,0.0,0.0,0.0,0.0,-1.3923,-1.3803,-1.3941,-1.4602,-1.5,-1.5278,-1.5408,-1.6166,-1.6953,-1.7393,-1.748,-1.7445,-1.717,-1.701,-1.6733,-1.6035,-1.5621,-1.5196,-1.4569,-1.4641,-1.4641,-1.4569,-1.4933,-1.5372,-1.565,-1.6047,-1.6412,-1.6714,-1.673,-1.673,-1.673,-1.673,-1.673,-1.673,-1.673,-1.673,-1.673,-1.673,-1.673,-1.673,-1.673,-1.673,-1.6878,-1.6581,-1.6492,-1.6553,-1.591,-1.5527,-1.5372,-1.5073,-1.4776,-1.4641,-1.4713,-1.4713,-1.4641,-1.4713,-1.4991,-1.5409,0.0,0.0,0.0,0.0,0.0,0.0,0.0,0.0,0.0,0.0,0.0,0.0,0.0,0.0,0.0,0.0,0.0,0.0,0.0,0.0,0.0,0.0,-1.1124,-1.1565,-1.2031,-1.1885,-1.1954,-1.2308,-1.2608,-1.2706,-1.2609,-1.3102,-1.3294,-1.3236,-1.316,-1.3256,-1.3447,-1.3256,-1.3304,-1.3494,0.0,0.0,0.0,0.0,0.0,0.0,0.0,0.0,0.0,0.0,-1.4793,-1.4843,-1.4902,0.0,0.0,0.0,0.0,0.0,-1.3623,-1.326,-1.3009,-1.3364,-1.3805,-1.4302,-1.4515,-1.4953,-1.5396,-1.5872,-1.6138,-1.6138,-1.5755,-1.5826,-1.5824,-1.5338,-1.4911,-1.4561,-1.4425,-1.4353,-1.4346,-1.4497,-1.4812,-1.5233,-1.5642,-1.5999,-1.6349,-1.6706,-1.673,-1.673,-1.673,-1.673,-1.673,-1.673,-1.673,-1.673,-1.673,-1.673,-1.673,-1.673,-1.673,-1.6635,-1.6444,-1.6277,-1.6007,-1.5634,-1.5324,-1.507,-1.4879,-1.4712,-1.4569,-1.4569,-1.4569,-1.4569,-1.4641,-1.4848,-1.5267,-1.5824,0.0,0.0,0.0,0.0,0.0,0.0,0.0,0.0,0.0,0.0,0.0,0.0,0.0,0.0,0.0,0.0,0.0,0.0,0.0,0.0,-1.047,-1.0522,-1.0522,-1.0775,-1.1405,-1.1192,-1.1351,-1.1822,-1.1959,-1.2169,-1.2414,-1.2276,-1.2276,-1.2365,-1.2374,-1.2521,-1.2764,-1.2677,-1.2725,-1.2764,0.0,0.0,0.0,0.0,0.0,0.0,0.0,0.0,0.0,0.0,0.0,0.0,0.0,0.0,0.0,-1.4094,-1.3786,-1.3597,-1.313,-1.2581,-1.2212,-1.2274,-1.2765,-1.3327,-1.3675,-1.3868,-1.4096,-1.4538,-1.4858,-1.4908,-1.4465,-1.4668,-1.4848,-1.4561,-1.4281,-1.4209,-1.4425,-1.4281,-1.4274,-1.4425,-1.466,-1.5064,-1.5634,-1.5928,-1.6182,-1.6617,-1.6648,-1.6648,-1.6648,-1.6648,-1.673,-1.673,-1.673,-1.673,-1.673,-1.673,-1.673,-1.673,-1.673,-1.6547,-1.6198,-1.6118,-1.5753,-1.5181,-1.5094,-1.4895,-1.4569,-1.4569,-1.4569,-1.4569,-1.4569,-1.4569,-1.4641,-1.5062,-1.5551,-1.6035,0.0,0.0,0.0,0.0,0.0,0.0,0.0,0.0,0.0,0.0,0.0,0.0,0.0,0.0,0.0,0.0,0.0,0.0,0.0,0.0,-1.0368,-1.047,-1.0522,-1.0522,-1.0589,-1.0573,-1.0565,-1.0624,-1.1158,-1.1792,-1.2365,-1.195,-1.19,-1.2209,-1.2335,-1.2491,-1.257,-1.2255,-1.2393,-1.2716,-1.1801,0.0,0.0,0.0,0.0,0.0,0.0,0.0,0.0,0.0,0.0,0.0,0.0,0.0,-1.3692,-1.3252,-1.2634,-1.2081,-1.1608,-1.1428,-1.1428,-1.1622,-1.2097,-1.2581,-1.2605,-1.3111,-1.3656,-1.4087,-1.4182,-1.4221,-1.4375,-1.4246,-1.4201,-1.4129,-1.4281,-1.4425,-1.4569,-1.4569,-1.4569,-1.4569,-1.4593,-1.4943,-1.561,-1.5559,-1.5701,-1.6347,-1.6394,-1.6394,-1.6394,-1.6566,-1.673,-1.673,-1.673,-1.673,-1.673,-1.673,-1.673,-1.673,-1.673,-1.6547,-1.619,-1.5864,-1.5523,-1.5165,-1.4824,-1.4665,-1.4569,-1.4569,-1.4569,-1.4569,-1.4569,-1.4569,-1.4641,-1.5062,-1.5196,-1.5338,0.0,0.0,0.0,0.0,0.0,0.0,0.0,0.0,0.0,0.0,0.0,0.0,0.0,0.0,0.0,0.0,0.0,0.0,0.0,0.0,-1.0316,-1.0368,-1.047,-1.0522,-1.0522,-1.0522,-1.0522,-1.0522,-1.0718,-1.0956,-1.12,-1.1065,-1.1015,-1.115,-1.1209,-1.136,-1.1551,-1.1418,-1.1469,-1.1628,-1.167,-1.198,0.0,0.0,0.0,0.0,0.0,0.0,0.0,0.0,-1.4515,-1.4446,0.0,-1.3812,-1.3381,-1.2528,-1.2097,-1.1911,-1.1428,-1.1373,-1.1498,-1.156,-1.1802,-1.1919,-1.1919,-1.2166,-1.239,-1.2516,-1.2711,-1.3006,-1.3569,-1.4049,-1.4281,-1.4281,-1.4425,-1.4569,-1.4569,-1.4569,-1.4569,-1.4569,-1.4569,-1.4832,-1.5324,-1.5486,-1.5732,-1.6059,-1.6277,-1.6394,-1.6394,-1.6476,-1.6566,-1.673,-1.673,-1.673,-1.673,-1.6566,-1.6374,-1.6236,-1.6324,-1.6222,-1.5864,-1.5523,-1.5181,-1.4839,-1.4697,-1.4569,-1.4569,-1.4569,-1.4569,-1.4569,-1.4569,-1.4569,-1.4641,-1.4776,-1.4856,-1.4856,0.0,0.0,0.0,0.0,0.0,0.0,0.0,0.0,0.0,0.0,0.0,0.0,0.0,0.0,0.0,0.0,0.0,0.0,0.0,-1.0058,-1.0213,-1.0316,-1.0368,-1.047,-1.0522,-1.0522,-1.0522,-1.0522,-1.0522,-1.0522,-1.0522,-1.0522,-1.0522,-1.0522,-1.0573,-1.0726,-1.0922,-1.0922,-1.0922,-1.0955,-1.1513,-1.1831,0.0,0.0,0.0,0.0,0.0,0.0,0.0,0.0,-1.4198,0.0,0.0,0.0,-1.2712,-1.1988,-1.174,-1.1553,-1.1365,-1.1373,-1.1498,-1.156,-1.1622,-1.1622,-1.1622,-1.1622,-1.1622,-1.1622,-1.1897,-1.2328,-1.2912,-1.3767,-1.4281,-1.4281,-1.4497,-1.4569,-1.4569,-1.4569,-1.4569,-1.4569,-1.4569,-1.4711,-1.5149,-1.5304,-1.5482,-1.5792,-1.6033,-1.6203,-1.6312,-1.6319,-1.6402,-1.6648,-1.6574,-1.6519,-1.6482,-1.6238,-1.5986,-1.5637,-1.5693,-1.5599,-1.5439,-1.5284,-1.4982,-1.4569,-1.4569,-1.4569,-1.4569,-1.4569,-1.4569,-1.4569,-1.4569,-1.4569,-1.4569,-1.4569,-1.4569,-1.4569,0.0,0.0,0.0,0.0,0.0,0.0,0.0,0.0,0.0,0.0,0.0,0.0,0.0,0.0,0.0,0.0,0.0,0.0,0.0,-0.9799,-0.9955,-1.0265,-1.0316,-1.0368,-1.0522,-1.0522,-1.0522,-1.0522,-1.0522,-1.0522,-1.0522,-1.0522,-1.0522,-1.0522,-1.0769,-1.0922,-1.0922,-1.0922,-1.0879,-1.0963,-1.1364,-1.1731,-1.2106,0.0,0.0,0.0,0.0,0.0,0.0,0.0,-1.3571,-1.2634,0.0,0.0,0.0,-1.174,-1.1303,-1.087,-1.1178,-1.1303,-1.1365,-1.156,-1.1622,-1.1622,-1.1622,-1.1622,-1.1622,-1.163,-1.208,-1.2519,-1.2526,-1.3397,-1.4129,-1.4129,-1.4353,-1.4569,-1.4569,-1.4569,-1.4569,-1.4569,-1.4497,-1.4639,-1.5149,-1.4801,-1.4843,-1.5522,-1.5576,-1.5728,-1.6064,-1.6079,-1.6245,-1.664,-1.6319,-1.5993,-1.5872,-1.5728,-1.5408,-1.5064,-1.4729,-1.4718,-1.4875,-1.5099,-1.4982,-1.4569,-1.4569,-1.4569,-1.4569,-1.4569,-1.4569,-1.4569,-1.4569,-1.4569,-1.4569,-1.4569,-1.4569,-1.4569,0.0,0.0,0.0,0.0,0.0,0.0,0.0,0.0,0.0,0.0,0.0,0.0,0.0,0.0,0.0,0.0,0.0,0.0,0.0,-0.974,-0.9903,-1.0102,-1.0213,-1.0368,-1.0522,-1.0522,-1.0522,-1.0522,-1.0522,-1.0522,-1.0522,-1.0522,-1.0522,-1.0522,-1.0573,-1.0624,-1.0624,-1.0624,-1.0769,-1.1027,-1.1864,-1.2234,-1.2489,0.0,0.0,0.0,0.0,0.0,0.0,0.0,0.0,0.0,0.0,0.0,0.0,-1.1178,-1.1059,-1.1059,-1.124,-1.1373,-1.156,-1.156,-1.1622,-1.1622,-1.1622,-1.1622,-1.1626,-1.1845,-1.2226,-1.2592,-1.2819,-1.342,-1.3863,-1.3863,-1.4065,-1.4274,-1.4274,-1.4274,-1.4274,-1.4274,-1.4201,-1.4248,-1.4429,-1.4498,-1.4652,-1.4713,-1.4932,-1.5106,-1.5204,-1.5212,-1.5291,-1.5606,-1.5449,-1.5403,-1.5373,-1.5139,-1.4972,-1.4713,-1.4614,-1.4718,-1.4867,-1.4545,-1.4455,-1.4425,-1.4425,-1.4425,-1.4497,-1.4569,-1.4569,-1.4569,-1.4569,-1.4569,-1.4569,-1.4569,-1.4569,-1.4569,0.0,0.0,0.0,0.0,0.0,0.0,0.0,0.0,0.0,0.0,0.0,0.0,0.0,0.0,0.0,0.0,0.0,0.0,0.0,0.0,-0.9681,-0.9621,-0.9836,-0.9947,-0.9999,-0.9999,-0.9999,-0.9999,-1.0316,-1.0522,-1.0522,-1.03,-1.03,-1.047,-1.0308,-1.0308,-1.0522,-1.0522,-1.0773,-1.1288,-1.2142,-1.2685,-1.2997,0.0,0.0,0.0,0.0,0.0,0.0,0.0,0.0,0.0,-1.1545,0.0,-1.1115,-1.0933,-1.0996,-1.1122,-1.1373,-1.1498,-1.1622,-1.1622,-1.1622,-1.1622,-1.1622,-1.1622,-1.1655,-1.197,-1.2292,-1.2621,-1.295,-1.3423,-1.3797,-1.3797,-1.4,-1.4129,-1.4129,-1.4129,-1.4129,-1.4129,-1.4065,-1.3992,-1.4057,-1.4175,-1.429,-1.4283,-1.4463,-1.4627,-1.4824,-1.4684,-1.4839,-1.5072,-1.4925,-1.4857,-1.4797,-1.4567,-1.4403,-1.4148,-1.4148,-1.4304,-1.4444,-1.4302,-1.4209,-1.4281,-1.4353,-1.4425,-1.4425,-1.4569,-1.4569,-1.4569,-1.4569,-1.4569,-1.4569,-1.4569,-1.4569,-1.4569,0.0,0.0,0.0,0.0,0.0,0.0,0.0,0.0,0.0,0.0,0.0,0.0,0.0,0.0,0.0,0.0,0.0,0.0,0.0,0.0,-0.9399,-0.9026,-0.9197,-0.9256,-0.9106,-0.9159,-0.9159,-0.9106,-0.994,-1.0368,-1.036,-0.9932,-0.9984,-1.036,-0.9925,-0.9984,-1.0368,-1.0451,-1.0813,-1.1428,-1.2138,-1.2794,-1.3331,-1.4055,0.0,0.0,0.0,0.0,0.0,0.0,0.0,0.0,-1.124,-1.1052,-1.0681,-1.0996,-1.1059,-1.1185,-1.1498,-1.156,-1.1622,-1.1622,-1.1622,-1.1622,-1.1622,-1.1622,-1.1655,-1.197,-1.2292,-1.2621,-1.295,-1.3423,-1.379,-1.379,-1.3928,-1.4057,-1.4057,-1.4057,-1.4057,-1.4057,-1.3855,-1.3855,-1.4065,-1.3855,-1.3917,-1.4224,-1.4246,-1.4366,-1.465,-1.4532,-1.461,-1.4904,-1.461,-1.4384,-1.4216,-1.4081,-1.3784,-1.3419,-1.3492,-1.3564,-1.3572,-1.4072,-1.4209,-1.4057,-1.4281,-1.4353,-1.4353,-1.4497,-1.4569,-1.4425,-1.4497,-1.4489,-1.4425,-1.4425,-1.4425,-1.4425,0.0,0.0,0.0,0.0,0.0,0.0,0.0,0.0,0.0,0.0,0.0,0.0,0.0,0.0,0.0,0.0,0.0,0.0,0.0,0.0,-0.9399,-0.9026,-0.8928,-0.8718,-0.8343,-0.8883,-0.8942,-0.8343,-0.9099,-0.9472,-0.9472,-0.9361,-0.9368,-0.9472,-0.9361,-0.9368,-0.9539,-1.0166,-1.0412,-1.0507,-1.1534,-1.1757,-1.1628,-1.2427,-1.2528,0.0,0.0,0.0,0.0,0.0,0.0,0.0,-1.0744,-1.0681,-1.0618,-1.0807,-1.0996,-1.1122,-1.131,-1.1498,-1.1622,-1.1622,-1.1622,-1.1622,-1.1622,-1.1622,-1.1655,-1.197,-1.2292,-1.2621,-1.295,-1.3279,-1.3572,-1.3572,-1.3564,-1.3637,-1.3637,-1.3637,-1.3637,-1.3637,-1.3564,-1.3572,-1.3637,-1.3564,-1.3601,-1.3667,-1.3675,-1.3704,-1.377,-1.3778,-1.3778,-1.3844,-1.3778,-1.3667,-1.3667,-1.3594,-1.3338,-1.282,-1.3419,-1.3112,-1.1983,-1.3185,-1.3783,-1.3863,-1.4065,-1.3992,-1.371,-1.4353,-1.4057,-1.3331,-1.3768,-1.3688,-1.3258,-1.3258,-1.3258,-1.3258,0.0,0.0,0.0,0.0,0.0,0.0,0.0,0.0,0.0,0.0,0.0,0.0,0.0,0.0,0.0,0.0,0.0,0.0,0.0,0.0,0.0,-0.8725,-0.8137,-0.7765,-0.7605,-0.7984,-0.809,-0.7824,-0.8203,-0.8685,-0.9211,-0.9001,-0.9001,-0.9211,-0.9001,-0.9001,-0.9232,-0.9811,-1.012,-1.043,-1.1225,-1.1616,-1.1663,-1.2205,-1.2097,-1.1677,-1.1911,0.0,0.0,0.0,0.0,0.0,0.0,0.0,-1.0624,-1.0744,-1.087,-1.0933,-1.0856,-1.0919,-1.0912,-1.0667,-1.0604,-1.0604,-1.0604,-1.0856,-1.1101,-1.1255,-1.1797,-1.2438,-1.2921,-1.3148,-1.3309,-1.347,-1.3492,-1.3492,-1.3492,-1.3492,-1.3492,-1.3492,-1.3193,-1.29,-1.29,-1.29,-1.2746,-1.2378,-1.2673,-1.2753,-1.2378,-1.2378,-1.2378,-1.2378,-1.2378,-1.2378,-1.2378,-1.2378,-1.2157,-1.1855,-1.2305,-1.207,-1.1316,-1.2445,-1.2746,-1.2526,-1.3331,-1.3251,-1.2586,-1.3237,-1.3164,-1.2652,-1.2945,-1.3025,-1.29,-1.29,-1.29,-1.29,0.0,0.0,0.0,0.0,0.0,0.0,0.0,0.0,0.0,0.0,0.0,0.0,0.0,0.0,0.0,0.0,0.0,0.0,0.0,0.0,0.0,0.0,-0.7402,-0.6923,-0.7031,-0.7085,-0.7192,-0.7413,-0.7467,0.0,0.0,0.0,0.0,-0.8949,-0.8626,-0.8685,-0.9029,-0.9432,-0.9827,-1.0301,-1.093,-1.1426,-1.1896,-1.2081,-1.1779,-1.1296,-1.1358,-1.0989,-1.0624,-1.0624,0.0,0.0,0.0,0.0,-1.0624,-1.0744,-1.0807,-1.0737,-1.0338,-1.0142,-1.0015,-0.9582,-0.9518,-0.9518,-0.9518,-0.9907,-1.0358,-1.0358,-1.1097,-1.1999,-1.2669,-1.2675,-1.2742,-1.3288,-1.3186,-1.3055,-1.3258,-1.3193,-1.3119,-1.3119,-1.2526,-1.2077,-1.2077,-1.2077,-1.1855,-1.1186,-1.1706,-1.1781,-1.1111,-1.1111,-1.1111,-1.1111,-1.1111,-1.1111,-1.1111,-1.1111,-1.1037,-1.0887,-1.0732,-1.0738,-1.0887,-1.1558,-1.1632,-1.1186,-1.2372,-1.2285,-1.131,-1.1903,-1.2124,-1.1977,-1.2124,-1.2358,-1.2599,-1.2599,-1.2599,-1.2599,0.0,0.0,0.0,0.0,0.0,0.0,0.0,0.0,0.0,0.0,0.0,0.0,0.0,0.0,0.0,0.0,0.0,0.0,-0.9614,0.0,0.0,-0.8421,-0.7729,-0.7192,-0.6756,-0.6977,-0.7139,-0.7139,0.0,0.0,0.0,0.0,0.0,-0.8055,0.0,-0.8008,-0.8146,-0.9091,-0.9279,-0.907,-1.0144,-1.0388,-1.0174,-1.0485,-1.0548,-1.0491,-1.0681,-1.0688,-1.0624,-1.0624,-1.0624,0.0,0.0,0.0,-1.0624,-1.0624,-1.0681,-1.0674,-1.0028,-0.964,-0.9442,-0.9512,-0.9518,-0.9518,-0.9518,-0.9582,-0.9646,-0.9646,-1.0438,-1.1317,-1.2014,-1.1438,-1.1299,-1.2805,-1.1982,-1.1493,-1.2338,-1.1855,-1.1409,-1.1409,-1.1335,-1.126,-1.126,-1.126,-1.1186,-1.1111,-1.1186,-1.1186,-1.1111,-1.1111,-1.1111,-1.1111,-1.1111,-1.1111,-1.1111,-1.1111,-1.0738,-1.0067,-0.9382,-0.9382,-1.0067,-1.0143,-1.0519,-1.1111,-1.1465,-1.1242,-1.0657,-1.1459,-1.1391,-1.0812,-1.1329,-1.1484,-1.1335,-1.1335,-1.1335,-1.1335,0.0,0.0,0.0,0.0,0.0,0.0,0.0,0.0,0.0,0.0,0.0,0.0,0.0,0.0,0.0,-0.9614,-0.951,-0.9354,-0.904,-0.8514,-0.8037,-0.7676,-0.709,-0.6657,-0.644,-0.6549,-0.6766,-0.7085,0.0,0.0,0.0,-0.7901,-0.7901,0.0,0.0,0.0,0.0,-0.88,-0.8995,-0.8993,-0.9756,-0.9989,-0.9804,-1.0053,-1.0174,-1.0308,-1.0371,-1.0498,-1.0624,-1.0624,-1.0624,-1.0624,-1.0624,0.0,0.0,0.0,-1.0624,-1.0491,-0.9588,-0.8748,-0.8161,-0.8361,-0.8361,-0.8361,-0.8361,-0.8683,-0.8941,-0.8941,-0.9279,-0.986,-1.0745,-1.0549,-1.0523,-1.1424,-1.1051,-1.0814,-1.1223,-1.1022,-1.0791,-1.0937,-1.0516,-1.0285,-1.0426,-1.0438,-1.0212,-0.9755,-1.0137,-1.0212,-0.9755,-0.9755,-0.9755,-0.9755,-0.9755,-0.9755,-0.9755,-0.9755,-0.9609,-0.9236,-0.8856,-0.8851,-0.9236,-0.9236,-0.9458,-0.983,-1.0576,-1.0351,-0.9533,-1.0132,-1.0288,-1.0218,-1.0438,-1.0812,-1.1111,-1.1111,-1.1111,-1.1111,0.0,0.0,0.0,0.0,0.0,0.0,0.0,0.0,0.0,0.0,0.0,0.0,0.0,0.0,0.0,0.0,-0.9361,-0.8935,-0.8355,-0.7937,-0.7509,-0.7079,-0.6657,-0.6337,-0.6178,-0.6178,-0.6445,0.0,0.0,0.0,-0.7794,-0.7848,-0.7901,0.0,-0.7901,-0.8045,0.0,-0.8567,-0.8825,-0.915,-0.9623,-0.9862,-0.9868,-1.0053,-1.0238,-1.0301,-1.0301,-1.0371,-1.0498,-1.0498,-1.0561,-1.0624,-1.0624,-1.0624,0.0,0.0,0.0,-0.9907,-0.8947,-0.7977,-0.7269,-0.7396,-0.7456,-0.7521,-0.7521,-0.7907,-0.8231,-0.8231,-0.8231,-0.8479,-0.9251,-0.9351,-0.9571,-1.0238,-1.0081,-0.9898,-1.017,-1.0043,-0.9968,-1.0076,-0.9603,-0.9244,-0.9426,-0.9442,-0.9214,-0.8618,-0.907,-0.9219,-0.8543,-0.8543,-0.8543,-0.8543,-0.8595,-0.8628,-0.8628,-0.8628,-0.8595,-0.8543,-0.86,-0.8628,-0.8628,-0.868,-0.8703,-0.878,-0.9685,-0.9533,-0.8703,-0.9013,-0.9468,-0.9916,-0.9771,-1.0293,-1.1111,-1.0962,-1.1037,-1.1111,0.0,0.0,0.0,0.0,0.0,0.0,0.0,0.0,0.0,0.0,0.0,0.0,0.0,-0.951,-0.9614,-0.9614,-0.8988,-0.8355,-0.7599,-0.7664,-0.745,-0.6907,-0.7025,0.0,-0.6232,-0.6178,0.0,0.0,0.0,0.0,-0.7521,-0.7794,-0.7901,-0.7901,-0.7901,-0.8045,-0.8303,-0.8567,-0.8825,-0.915,-0.9743,-0.9989,-1.0047,-1.0434,-1.0434,-1.0301,-1.0301,-1.0308,-1.0301,-1.0301,-1.0428,-1.0624,-1.0624,-1.0624,-1.0624,0.0,0.0,0.0,-0.7967,-0.7521,-0.7204,-0.7204,-0.733,-0.7521,-0.7521,-0.7521,-0.7521,-0.7521,-0.7521,-0.7591,-0.7601,-0.7601,-0.8128,-0.9759,-0.8872,-0.8275,-0.9249,-0.8714,-0.8226,-0.8236,-0.8236,-0.817,-0.8184,-0.8184,-0.8184,-0.8113,-0.8184,-0.8184,-0.8113,-0.8113,-0.8113,-0.8113,-0.8311,-0.8415,-0.8415,-0.8415,-0.8316,-0.8113,-0.8321,-0.8415,-0.8425,-0.8614,-0.8703,-0.8703,-0.8775,-0.8775,-0.8703,-0.8703,-0.916,-0.9846,-0.9473,-1.0067,-1.1037,-1.0663,-1.0738,-1.1111,0.0,0.0,0.0,0.0,0.0,0.0,0.0,0.0,0.0,0.0,0.0,0.0,0.0,-0.8718,-0.8508,-0.8508,-0.8196,-0.7777,-0.7139,-0.7139,-0.6977,-0.6495,-0.6495,-0.6445,-0.6232,-0.6178,0.0,0.0,0.0,-0.7246,-0.7521,-0.7788,-0.7901,-0.7901,-0.7901,-0.8135,-0.8543,-0.8639,-0.8932,-0.9409,-0.957,-0.967,-0.967,-0.9868,-0.9926,-0.9989,-0.9989,-1.0117,-1.0301,-1.0301,-1.0434,-1.0624,-1.0624,-1.0624,-1.0498,-1.0034,-0.932,-0.8608,-0.8042,-0.7526,-0.7199,-0.733,-0.7461,-0.7521,-0.7521,-0.7521,-0.7521,-0.7521,-0.7521,-0.7521,-0.7521,-0.7521,-0.7676,-0.8275,-0.7966,-0.7731,-0.8076,-0.788,-0.773,-0.7872,-0.7886,-0.7938,-0.8066,-0.808,-0.808,-0.808,-0.808,-0.808,-0.808,-0.808,-0.808,-0.808,-0.8155,-0.8198,-0.8198,-0.8198,-0.8155,-0.808,-0.816,-0.8198,-0.8198,-0.8269,-0.8302,-0.8302,-0.8302,-0.8453,-0.8703,-0.8703,-0.9008,-0.9473,-0.9322,-0.9846,-1.0663,-1.0513,-1.0738,-1.1111,0.0,0.0,0.0,0.0,0.0,0.0,0.0,0.0,0.0,0.0,0.0,0.0,0.0,0.0,-0.7818,-0.7605,-0.7503,-0.7187,-0.6554,-0.6554,-0.6445,-0.6119,-0.6173,-0.6178,-0.6178,-0.6178,0.0,0.0,0.0,0.0,0.0,-0.7735,-0.7901,-0.7907,-0.7991,-0.8273,-0.8687,-0.8771,-0.907,-0.9484,-0.928,-0.9414,-0.9612,-0.9408,-0.9536,-0.974,-0.9536,-0.9594,-0.9716,-0.9588,-0.9652,-0.9849,-1.0168,-1.0428,-1.0428,-0.9454,-0.8935,-0.8544,-0.7722,-0.7269,-0.7138,-0.7265,-0.733,-0.7396,-0.7461,-0.7521,-0.7521,-0.7521,-0.7521,-0.7521,-0.7521,-0.7521,-0.7521,-0.7521,-0.7521,-0.7521,-0.7521,-0.7521,-0.7574,-0.7655,-0.7669,-0.7725,-0.7858,-0.7872,-0.7872,-0.7872,-0.7872,-0.7872,-0.7872,-0.7872,-0.7905,-0.7976,-0.7981,-0.7981,-0.7981,-0.7981,-0.7943,-0.7872,-0.7943,-0.7981,-0.7981,-0.8051,-0.808,-0.808,-0.808,-0.8236,-0.8491,-0.8491,-0.8718,-0.9099,-0.9099,-0.9585,-1.0393,-1.0393,-1.0668,-1.1111,0.0,0.0,0.0,0.0,0.0,0.0,0.0,0.0,0.0,0.0,0.0,0.0,0.0,0.0,0.0,-0.6961,-0.6853,-0.6593,-0.585,-0.5955,-0.6,-0.6,-0.6119,-0.6178,-0.6178,-0.6178,-0.6178,0.0,0.0,0.0,0.0,0.0,-0.7901,-0.7913,-0.8183,-0.8441,-0.8693,-0.8956,-0.9226,-0.9484,-0.8941,-0.9134,-0.9734,-0.9192,-0.9326,-0.967,-0.8935,-0.8672,-0.8608,-0.8156,-0.8096,-0.8361,-0.9262,-0.997,-1.0301,-0.8877,-0.8619,-0.842,0.0,0.0,0.0,-0.6881,-0.7073,-0.7269,-0.7461,-0.7456,-0.7521,-0.7521,-0.7521,-0.7521,-0.7521,-0.7521,-0.7521,-0.7521,-0.7521,-0.7521,-0.7521,-0.7521,-0.7521,-0.7521,-0.7521,-0.7521,-0.7521,-0.7521,-0.7521,-0.7521,-0.7521,-0.7521,-0.7521,-0.7521,-0.7621,-0.7763,-0.7773,-0.7773,-0.7773,-0.7773,-0.7664,-0.7526,-0.7669,-0.7773,-0.7777,-0.7971,-0.8061,-0.8061,-0.8061,-0.8061,-0.8061,-0.8075,-0.8297,-0.8654,-0.8654,-0.9214,-1.0142,-1.0136,-1.0504,-1.1087,0.0,0.0,0.0,0.0,0.0,0.0,0.0,0.0,0.0,0.0,0.0,0.0,0.0,0.0,-0.6603,-0.6386,-0.6386,-0.6282,-0.6123,-0.6119,-0.6119,-0.6119,-0.6178,-0.6178,-0.6178,-0.6178,-0.6178,0.0,0.0,0.0,0.0,0.0,0.0,0.0,-0.7858,-0.7907,-0.8043,-0.8774,-0.9226,-0.9484,-0.9344,-0.9215,-0.9028,-0.8894,-0.8694,-0.8441,-0.8236,-0.8236,-0.8296,-0.8166,-0.8554,-0.9139,-0.9849,-0.9977,-0.9652,-0.8748,-0.8291,-0.7772,-0.6868,0.0,0.0,0.0,0.0,0.0,-0.7073,-0.7204,-0.7265,-0.7265,-0.7396,-0.7521,-0.7521,-0.7521,-0.7521,-0.7521,-0.7521,-0.7521,-0.7521,-0.7521,-0.7521,-0.7521,-0.7521,-0.7521,-0.7521,-0.7521,-0.7521,-0.7521,-0.7521,-0.7521,-0.7521,-0.7521,-0.755,-0.7612,-0.7612,-0.7612,-0.7612,-0.7612,-0.7583,-0.7521,-0.7583,-0.7612,-0.7617,-0.7669,-0.7698,-0.7698,-0.7698,-0.7698,-0.7722,-0.7957,-0.815,-0.8297,-0.8508,-0.8967,-0.952,-0.9738,-1.0131,-1.0544,0.0,0.0,0.0,0.0,0.0,0.0,0.0,0.0,0.0,0.0,0.0,0.0,0.0,0.0,0.0,-0.6178,-0.6178,-0.6178,-0.6178,-0.6178,-0.6178,-0.6178,-0.6178,-0.6282,-0.6386,-0.6386,-0.644,0.0,0.0,0.0,0.0,0.0,0.0,0.0,0.0,-0.7365,-0.7471,-0.8121,-0.8493,-0.863,-0.8436,-0.8306,-0.8306,-0.8112,-0.7982,-0.7922,-0.7591,-0.7521,-0.7521,-0.7186,-0.7642,-0.842,-0.8941,-0.9069,-0.8812,-0.8231,-0.7842,-0.7451,-0.6741,-0.6613,-0.6683,-0.6811,0.0,0.0,-0.7007,-0.7138,-0.7199,-0.733,-0.7396,-0.7521,-0.7521,-0.7521,-0.7521,-0.7521,-0.7521,-0.7521,-0.7521,-0.7521,-0.7521,-0.7521,-0.7521,-0.7521,-0.7521,-0.7521,-0.7521,-0.7521,-0.7521,-0.7521,-0.7521,-0.7521,-0.7521,-0.7521,-0.7521,-0.7521,-0.7521,-0.7265,-0.7195,-0.7195,-0.6937,-0.6806,-0.6806,-0.6806,-0.6806,-0.6806,-0.6806,-0.6806,-0.6824,-0.7111,-0.7477,-0.7888,-0.8371,-0.8775,-0.9129,-0.9616,-1.003,-1.0327,0.0,0.0,0.0,0.0,0.0,0.0,0.0,0.0,0.0,0.0,0.0,0.0,0.0,0.0,0.0,0.0,-0.6178,-0.6178,-0.6178,-0.6178,0.0,-0.6178,-0.6232,-0.6386,-0.6701,-0.6701,-0.6864,-0.7085,0.0,0.0,0.0,0.0,0.0,0.0,0.0,0.0,-0.6975,-0.7108,-0.719,-0.7125,-0.6933,-0.7125,-0.7512,-0.7055,-0.7256,-0.7657,-0.6872,-0.6609,-0.6544,-0.5947,-0.6268,-0.699,-0.7386,-0.7782,-0.7972,-0.7587,-0.7391,-0.7195,-0.6548,-0.635,-0.6416,-0.6609,-0.6675,0.0,-0.7073,-0.7138,-0.7199,-0.7391,-0.7391,-0.7456,-0.7456,-0.7456,-0.7391,-0.7326,-0.7391,-0.7456,-0.7521,-0.7521,-0.7521,-0.7521,-0.7521,-0.7521,-0.7521,-0.7521,-0.7521,-0.7521,-0.7456,-0.7391,-0.7326,-0.7326,-0.7326,-0.7326,-0.7326,-0.7326,-0.7326,-0.6872,-0.6609,-0.6609,-0.6152,-0.5888,-0.5888,-0.5888,-0.5888,-0.5888,-0.5888,-0.5888,-0.5888,-0.5888,-0.6478,-0.7391,-0.8052,-0.8438,-0.8756,-0.9354,-0.9761,-0.9961,-0.6652,0.0,0.0,0.0,0.0,0.0,0.0,0.0,0.0,0.0,0.0,0.0,0.0,0.0,0.0,0.0,-0.6178,-0.6178,-0.6178,-0.6178,-0.6178,-0.6178,-0.644,-0.6652,-0.6701,-0.6923,-0.7031,-0.7085,0.0,0.0,0.0,0.0,0.0,0.0,0.0,0.0,-0.6211,-0.5879,-0.5818,-0.5885,-0.706,-0.7256,-0.6868,-0.6929,-0.6666,-0.6284,-0.6086,-0.6086,-0.6086,-0.6412,-0.6671,-0.699,-0.7512,-0.7447,-0.712,-0.7055,-0.6605,-0.6218,-0.6214,-0.6214,-0.628,-0.6416,-0.6482,0.0,-0.6548,-0.6679,-0.6806,-0.6872,-0.6942,-0.7007,-0.7007,-0.7007,-0.6806,-0.6268,-0.6798,-0.733,-0.7461,-0.7521,-0.7521,-0.7521,-0.7521,-0.7521,-0.7521,-0.7521,-0.7521,-0.7521,-0.7129,-0.6675,-0.6218,-0.6218,-0.6218,-0.6218,-0.6218,-0.6218,-0.6218,-0.6086,-0.6086,-0.6086,-0.5954,-0.5888,-0.5888,-0.5888,-0.5888,-0.5888,-0.5888,-0.5888,-0.5888,-0.5888,-0.6083,-0.6404,-0.6662,-0.6955,-0.7188,-0.7574,-0.779,-0.7829,-0.6223,0.0,0.0,0.0,0.0,0.0,0.0,0.0,0.0,0.0,0.0,0.0,0.0,0.0,0.0,0.0,0.0,0.0,0.0,-0.6178,-0.6178,-0.6178,-0.6544,-0.6756,-0.6918,-0.7139,-0.7354,-0.7521,0.0,0.0,0.0,0.0,0.0,0.0,0.0,0.0,-0.5701,-0.546,-0.5428,-0.5491,-0.6338,-0.647,-0.6145,-0.6342,-0.6214,-0.5888,-0.5752,-0.569,-0.569,-0.6013,-0.6145,-0.621,-0.6666,-0.6535,-0.6272,-0.6342,-0.6148,-0.5888,-0.602,-0.6017,-0.6083,-0.6284,-0.6284,0.0,0.0,-0.6609,-0.6741,-0.6811,-0.6881,-0.6811,-0.6474,-0.6408,-0.6141,-0.5474,-0.5873,-0.6203,-0.6137,-0.6929,-0.7521,-0.7521,-0.7521,-0.7521,-0.7521,-0.726,-0.7003,-0.6741,-0.6478,-0.6152,-0.5892,-0.5888,-0.5888,-0.5888,-0.5888,-0.5888,-0.5888,-0.562,-0.5488,-0.5488,-0.5226,-0.5096,-0.5096,-0.5096,-0.5096,-0.5096,-0.5096,-0.5096,-0.5096,-0.5096,-0.5226,-0.5418,-0.6137,-0.6465,-0.6601,-0.7051,-0.7181,-0.7246,-0.5955,0.0,0.0,0.0,0.0,0.0,0.0,0.0,0.0,0.0,0.0,0.0,0.0,-0.4897,-0.5066,-0.5454,0.0,0.0,-0.6064,-0.6064,-0.6173,-0.6282,-0.6598,-0.6923,-0.7192,-0.7467,-0.7681,-0.7901,0.0,0.0,0.0,0.0,0.0,0.0,0.0,0.0,-0.5428,-0.5428,-0.5428,-0.5428,-0.5488,-0.555,-0.555,-0.5752,-0.5822,-0.5756,-0.562,-0.5488,-0.5425,-0.5554,-0.5491,-0.5428,-0.5693,-0.569,-0.562,-0.5756,-0.5826,-0.5826,-0.5822,-0.5822,-0.5888,-0.6083,-0.6148,-0.6214,0.0,0.0,0.0,-0.6749,-0.6683,-0.6412,-0.5873,-0.5672,-0.5335,-0.4584,-0.4863,-0.5001,-0.4581,-0.5917,-0.6994,-0.706,-0.7129,-0.7199,-0.7199,-0.6802,-0.6346,-0.5756,-0.5756,-0.569,-0.5627,-0.5561,-0.5561,-0.5561,-0.5561,-0.5561,-0.5561,-0.5156,-0.4957,-0.4957,-0.4498,-0.43,-0.43,-0.43,-0.43,-0.43,-0.43,-0.43,-0.43,-0.43,-0.4364,-0.4628,-0.5613,-0.6005,-0.6137,-0.6593,-0.6789,-0.6789,-0.6005,-0.6064,0.0,0.0,0.0,0.0,0.0,0.0,0.0,0.0,0.0,-0.4897,-0.4897,-0.4897,-0.4901,-0.4956,-0.4956,-0.5175,-0.5622,-0.5677,-0.5946,-0.6598,-0.6923,-0.7192,-0.7461,-0.7741,-0.7848,-0.7901,0.0,0.0,0.0,0.0,0.0,0.0,-0.5121,-0.5216,-0.5428,-0.5428,-0.5428,-0.5428,-0.5425,-0.5428,-0.5425,-0.555,-0.5554,-0.5428,-0.5428,-0.5425,-0.5428,-0.5428,-0.5425,-0.5428,-0.5428,-0.5428,-0.5428,-0.5428,-0.5428,-0.5495,-0.562,-0.5617,-0.5683,-0.5888,-0.5954,-0.602,-0.6214,0.0,-0.6086,-0.6416,0.0,-0.5352,-0.5411,0.0,0.0,-0.3441,-0.4017,-0.4372,-0.3625,-0.4475,-0.5209,-0.554,-0.5881,-0.6086,-0.6086,-0.602,-0.5756,-0.5219,-0.5223,-0.4957,-0.45,-0.45,-0.45,-0.45,-0.45,-0.45,-0.45,-0.4431,-0.4367,-0.4367,-0.43,-0.43,-0.43,-0.43,-0.43,-0.43,-0.43,-0.43,-0.43,-0.43,-0.43,-0.4367,-0.4498,-0.4697,-0.496,-0.5027,-0.5153,-0.5415,-0.6119,-0.6173,0.0,0.0,0.0,0.0,0.0,0.0,0.0,0.0,0.0,-0.4132,-0.4132,-0.4132,-0.4239,-0.4453,-0.4512,-0.4787,-0.5567,-0.5727,-0.6,-0.6386,-0.6977,-0.73,-0.7246,-0.7681,-0.7901,-0.7901,-0.7433,0.0,0.0,0.0,0.0,0.0,-0.5223,-0.5101,-0.4758,-0.5226,-0.516,-0.4755,-0.4755,-0.4755,-0.4821,-0.5289,-0.5425,-0.5428,-0.5428,-0.5428,-0.5428,-0.5428,-0.5428,-0.5428,-0.5428,-0.5428,-0.5428,-0.5428,-0.5428,-0.5425,-0.5491,-0.5153,-0.5017,-0.555,-0.5422,-0.5289,-0.5885,-0.6017,-0.5951,-0.555,0.0,0.0,0.0,0.0,0.0,0.0,-0.3062,-0.3272,-0.2775,-0.3396,-0.4154,-0.4948,-0.515,-0.5219,-0.5156,-0.516,-0.5024,-0.4694,-0.4425,-0.4359,-0.43,-0.43,-0.43,-0.43,-0.43,-0.43,-0.43,-0.43,-0.43,-0.43,-0.43,-0.43,-0.43,-0.4097,-0.4097,-0.43,-0.4033,-0.3899,-0.3902,-0.4167,-0.4164,-0.4028,-0.4361,-0.4561,-0.4694,-0.4764,-0.496,-0.5156,-0.6119,0.0,0.0,0.0,0.0,0.0,0.0,0.0,-0.3907,-0.3638,-0.3585,-0.3585,-0.3585,-0.3585,-0.3691,-0.4018,-0.4015,-0.4349,-0.5175,-0.5395,-0.5618,-0.595,-0.6707,-0.7085,-0.7025,-0.7521,-0.777,-0.7726,-0.7287,-0.6802,0.0,0.0,0.0,0.0,-0.5311,-0.4957,-0.4353,-0.4891,-0.4688,-0.4018,-0.4018,-0.402,-0.4154,-0.4622,-0.4821,-0.4821,-0.5024,-0.5093,-0.5156,-0.5362,-0.5428,-0.5428,-0.5428,-0.5292,-0.5093,-0.5093,-0.4957,-0.4824,-0.5024,-0.4688,-0.4486,-0.5352,-0.5156,-0.5024,-0.569,-0.5752,-0.5481,-0.4948,-0.468,0.0,0.0,0.0,-0.2678,-0.2197,0.0,-0.248,-0.2197,-0.2611,-0.3224,-0.4151,-0.4284,-0.4353,-0.4225,-0.4225,-0.4228,-0.4164,-0.3961,-0.3961,-0.43,-0.43,-0.43,-0.43,-0.43,-0.43,-0.43,-0.4231,-0.4231,-0.43,-0.41,-0.403,-0.4164,-0.3828,-0.3694,-0.3761,-0.3429,-0.3295,-0.3295,-0.3694,-0.383,-0.3964,-0.4364,-0.4564,-0.4631,-0.4764,-0.496,-0.5223,-0.6,-0.5782,0.0,0.0,-0.4901,0.0,-0.4288,-0.3855,-0.3641,-0.3585,-0.3585,-0.3585,-0.3585,-0.3585,-0.3585,-0.3638,-0.3638,-0.3802,-0.4233,-0.4233,-0.4563,-0.5277,-0.5778,-0.6322,-0.6907,-0.7295,-0.7466,-0.7295,-0.6744,-0.6316,0.0,0.0,0.0,0.0,-0.5425,-0.4957,-0.4287,-0.4353,-0.3885,-0.3215,-0.3215,-0.3351,-0.3487,-0.3349,-0.3282,-0.3351,-0.4087,-0.4353,-0.4422,-0.516,-0.5428,-0.5428,-0.5428,-0.4891,-0.4353,-0.4353,-0.3818,-0.3416,-0.4151,-0.4287,-0.4486,-0.5226,-0.5362,-0.5425,-0.555,-0.4951,-0.442,-0.4749,-0.3549,-0.2551,-0.2686,-0.2285,-0.1934,-0.1815,-0.2049,0.0,0.0,-0.2183,-0.2354,-0.2753,-0.3023,-0.3226,-0.3226,-0.3226,-0.3426,-0.3758,-0.3825,-0.3961,-0.43,-0.43,-0.43,-0.43,-0.43,-0.43,-0.43,-0.3961,-0.3961,-0.43,-0.3563,-0.3426,-0.3825,-0.3426,-0.2956,-0.2484,-0.2417,-0.2484,-0.2551,-0.2551,-0.3228,-0.4314,-0.4314,-0.4445,-0.4709,-0.4767,-0.503,-0.5362,0.0,0.0,0.0,-0.4512,-0.4457,-0.4291,-0.3855,-0.3694,-0.3585,-0.3585,-0.3585,-0.3585,-0.3585,-0.3585,-0.3585,-0.3585,-0.3585,-0.3747,-0.4177,-0.4492,-0.4784,-0.5011,-0.6242,-0.6897,-0.6814,-0.7807,-0.8281,-0.8248,-0.7285,-0.6828,0.0,0.0,0.0,0.0,-0.5428,-0.4688,-0.3618,-0.4087,-0.3616,-0.248,-0.248,-0.2214,-0.1947,-0.2482,-0.3086,-0.3623,-0.3754,-0.3754,-0.3887,-0.4489,-0.4688,-0.4688,-0.4688,-0.4486,-0.422,-0.3685,-0.3416,-0.3284,-0.3482,-0.3215,-0.3149,-0.4353,-0.4287,-0.4217,-0.5223,-0.5289,-0.4882,-0.3949,-0.3553,-0.3019,-0.1949,-0.1747,-0.1676,-0.166,-0.1738,-0.1811,0.0,-0.1872,-0.2085,-0.2354,-0.2688,-0.2889,-0.2889,-0.3092,-0.336,-0.3758,-0.3825,-0.3961,-0.43,-0.43,-0.43,-0.43,-0.43,-0.43,-0.43,-0.4164,-0.4164,-0.43,-0.3828,-0.3692,-0.3758,-0.3157,-0.2552,-0.195,-0.1142,-0.094,-0.1209,-0.168,-0.2017,-0.2218,-0.2688,-0.2887,-0.3155,-0.43,-0.4634,-0.4428,-0.55,-0.4846,-0.4298,-0.4128,-0.4128,-0.4018,-0.3802,-0.3749,-0.3749,-0.3749,-0.3749,-0.3749,-0.3749,-0.3691,-0.3691,-0.3691,-0.3638,-0.3766,-0.4085,-0.434,-0.4548,-0.4623,-0.5856,-0.6461,-0.6281,-0.7293,-0.7768,-0.7722,-0.7078,-0.6619,0.0,0.0,0.0,0.0,-0.5428,-0.4556,-0.3215,-0.3685,-0.3082,-0.1745,-0.1745,-0.1545,-0.121,-0.1813,-0.235,-0.2885,-0.3017,-0.3086,-0.3084,-0.3685,-0.3885,-0.3885,-0.3885,-0.3751,-0.3416,-0.2948,-0.2614,-0.2482,-0.2748,-0.248,-0.2414,-0.3618,-0.3551,-0.3418,-0.442,-0.4483,-0.4079,-0.3015,-0.2817,-0.2484,-0.1412,-0.1345,-0.148,-0.148,-0.1547,-0.1614,0.0,-0.1749,-0.1951,-0.2087,-0.2353,-0.2554,-0.2686,-0.2755,-0.3092,-0.3758,-0.3692,-0.3828,-0.43,-0.43,-0.4303,-0.4306,-0.4306,-0.4306,-0.4306,-0.4308,-0.4105,-0.3627,-0.3291,-0.3021,-0.2818,-0.2216,-0.1612,-0.1008,-0.0202,0.0067,0.0,-0.0605,-0.1077,-0.1481,-0.1951,-0.1882,-0.1812,-0.3969,-0.4169,-0.3422,-0.521,-0.4508,-0.4024,-0.4024,-0.4024,-0.4024,-0.4024,-0.4024,-0.4024,-0.4024,-0.4024,-0.4024,-0.4024,-0.391,-0.3799,-0.3805,-0.3699,-0.3755,-0.3993,-0.3887,-0.394,-0.418,-0.4677,-0.51,-0.5332,-0.5957,-0.617,-0.6085,-0.6026,-0.5792,0.0,0.0,0.0,0.0,-0.5428,-0.4556,-0.3215,-0.3215,-0.2415,-0.1076,-0.1076,-0.1143,-0.1277,-0.1277,-0.121,-0.121,-0.2014,-0.2214,-0.2146,-0.2882,-0.3149,-0.3149,-0.3149,-0.2681,-0.2079,-0.2079,-0.1612,-0.121,-0.1879,-0.2079,-0.2213,-0.2948,-0.3149,-0.3149,-0.3215,-0.2681,-0.2147,-0.208,-0.1612,-0.1143,-0.1076,-0.121,-0.1277,-0.1277,-0.148,-0.1547,-0.1614,-0.1749,-0.1884,-0.1884,-0.2087,-0.2354,-0.2619,-0.2421,-0.269,-0.3692,-0.3426,-0.3563,-0.4233,-0.43,-0.4236,-0.4177,-0.4177,-0.4177,-0.4177,-0.4185,-0.3574,-0.2417,-0.195,-0.1547,-0.1076,-0.0672,-0.0202,0.0269,0.0269,0.0605,0.1079,0.0674,-0.0472,-0.2025,-0.2025,-0.1415,-0.0874,-0.3636,-0.3634,-0.2348,-0.5358,-0.4776,-0.4298,-0.419,-0.4079,-0.4024,-0.4024,-0.4024,-0.4024,-0.4024,-0.4024,-0.4024,-0.4024,-0.3965,-0.4008,-0.4107,-0.4062,-0.4115,-0.4363,-0.4402,-0.4429,-0.4424,-0.5308,-0.5822,-0.5821,-0.6641,-0.7063,-0.7048,-0.6526,-0.6225,-0.6141,0.0,0.0,0.0,-0.5428,-0.4556,-0.3215,-0.3215,-0.2415,-0.1076,-0.1076,-0.1143,-0.1143,-0.1277,-0.121,-0.1143,-0.1479,-0.1545,-0.1612,-0.2214,-0.2414,-0.2414,-0.2414,-0.2281,-0.2013,-0.1478,-0.121,-0.1143,-0.1276,-0.1344,-0.1545,-0.2213,-0.2414,-0.2547,-0.3082,-0.3082,-0.2748,-0.2213,-0.1946,-0.1678,-0.121,-0.1143,-0.1143,-0.1143,-0.121,-0.1277,-0.1345,-0.1412,-0.1547,-0.1884,-0.2151,-0.2351,-0.2354,-0.269,-0.3025,-0.336,-0.3558,-0.3828,-0.43,-0.3966,-0.3429,-0.2686,-0.2214,-0.2147,-0.2686,-0.2418,-0.2013,-0.1475,-0.1344,-0.121,-0.1076,-0.0672,-0.0202,0.0269,0.0269,0.0605,0.1079,0.0742,0.0202,-0.0539,-0.0539,-0.0674,-0.1078,-0.2154,-0.2421,-0.2218,-0.5097,-0.4728,-0.4463,-0.4356,-0.4245,-0.4242,-0.4242,-0.4241,-0.4279,-0.4279,-0.4279,-0.4305,-0.4368,-0.4317,-0.4279,-0.442,-0.437,-0.4429,-0.469,-0.4646,-0.468,-0.4788,-0.5325,-0.5639,-0.5614,-0.6225,-0.6539,-0.6539,-0.6141,-0.5947,-0.5947,0.0,0.0,0.0,-0.5428,-0.4556,-0.3149,-0.2547,-0.1812,-0.1076,-0.1076,-0.1076,0.0,-0.121,-0.1143,-0.1143,-0.121,-0.121,-0.1277,-0.1545,-0.1678,-0.1678,-0.1678,-0.1678,-0.1612,-0.121,-0.1076,-0.1076,-0.1076,-0.1076,-0.121,-0.1544,-0.1678,-0.1745,-0.2214,-0.2281,-0.2147,-0.1745,-0.1678,-0.1545,-0.1143,-0.1076,-0.1076,-0.1076,-0.1076,-0.1143,-0.121,-0.1277,-0.1412,-0.1614,-0.195,-0.2084,-0.1951,-0.269,-0.3226,-0.3226,-0.3224,-0.3222,-0.3226,-0.2755,-0.2016,-0.1008,-0.0605,-0.047,-0.0672,-0.0672,-0.047,-0.0134,-0.0135,-0.0135,-0.0134,0.0067,0.0336,0.0672,0.0806,0.0942,0.1079,0.0808,0.0606,0.0472,0.0135,-0.0337,-0.0877,-0.1348,-0.1616,-0.1817,-0.4739,-0.4519,-0.4525,-0.4497,-0.4536,-0.4525,-0.4543,-0.4589,-0.4667,-0.4687,-0.4691,-0.4748,-0.4901,-0.4677,-0.4598,-0.4745,-0.4632,-0.4693,-0.4967,-0.4781,-0.4832,-0.515,-0.5156,-0.5156,-0.5156,-0.5292,-0.5428,-0.5428,-0.5428,-0.5428,0.0,0.0,0.0,0.0,-0.5292,-0.4422,-0.2948,-0.1679,-0.1076,-0.1076,-0.1076,-0.1076,-0.1076,-0.1076,-0.1076,-0.1076,-0.1076,-0.1076,-0.1076,-0.1076,-0.1076,-0.1076,-0.1076,-0.1076,-0.1076,-0.1076,-0.1076,-0.1076,-0.1076,-0.1076,-0.1076,-0.1076,-0.1076,-0.1076,-0.1076,-0.1076,-0.1076,-0.1076,-0.1076,-0.1076,-0.1076,-0.1008,-0.0941,-0.0941,-0.0941,-0.0941,-0.0941,-0.1143,-0.1277,-0.1277,-0.1546,0.0,-0.148,-0.242,-0.3023,-0.3025,-0.2485,-0.2082,-0.1681,-0.121,-0.0471,0.0539,0.0607,0.0742,0.1079,0.0809,0.0876,0.128,0.128,0.1279,0.1277,0.1143,0.1143,0.1277,0.148,0.1413,0.1146,0.0875,0.0875,0.0944,0.027,-0.0202,-0.0472,-0.0944,-0.1212,-0.1412,-0.4908,-0.4574,-0.4514,-0.4622,-0.4572,-0.456,-0.4629,-0.4565,-0.4548,-0.4674,-0.4691,-0.4748,-0.4901,-0.4833,-0.4874,-0.5018,-0.5028,-0.5095,-0.5311,-0.5256,-0.5266,-0.5359,-0.5359,-0.5359,-0.5359,-0.5362,-0.5428,-0.5428,-0.5428,-0.5428,0.0,0.0,0.0,0.0,-0.4758,-0.3685,-0.2214,-0.1411,-0.1076,-0.1076,-0.1076,-0.1076,-0.1076,-0.1076,-0.1076,-0.1076,-0.1076,-0.1076,-0.1076,-0.1076,-0.1076,-0.1076,-0.1076,-0.1076,-0.1076,-0.1076,-0.1076,-0.1076,-0.1076,-0.1076,-0.1076,-0.1076,-0.1076,-0.1076,-0.1076,-0.1076,-0.1076,-0.1076,-0.1076,-0.1076,-0.1076,-0.0605,-0.0202,-0.0202,-0.0202,-0.0202,-0.0202,-0.0739,-0.1143,-0.1277,-0.1141,-0.0939,-0.0739,-0.1544,-0.208,-0.1883,-0.1546,-0.121,-0.0941,-0.047,0.0202,0.0944,0.1012,0.1012,0.1079,0.1547,0.1947,0.2284,0.2014,0.2082,0.2418,0.1478,0.1412,0.1951,0.1412,0.1345,0.1615,0.121,0.0942,0.0742,0.0202,-0.0067,-0.0202,-0.0877,-0.1212,-0.1412,-0.4912,-0.4691,-0.4664,-0.4589,-0.466,-0.4689,-0.4714,-0.4697,-0.4724,-0.4799,-0.4874,-0.4979,-0.5131,-0.5077,-0.5087,-0.5237,-0.525,-0.5281,-0.5422,-0.5428,-0.5428,-0.5428,-0.5428,-0.5428,-0.5428,-0.5428,-0.5428,-0.5428,-0.5428,-0.5428,0.0,-0.5428,-0.5428,-0.5359,-0.422,-0.3149,-0.2079,-0.1411,-0.1076,-0.1076,-0.1076,-0.1076,-0.1076,-0.1076,-0.1076,-0.1076,-0.1076,-0.1076,-0.1076,-0.1076,-0.1076,-0.1076,-0.1076,-0.1076,-0.1076,-0.1076,-0.1076,-0.1076,-0.1076,-0.1076,-0.1076,-0.1076,-0.1076,-0.1076,-0.1076,-0.1076,-0.1076,-0.1076,-0.1076,-0.1076,-0.1076,-0.0807,-0.047,-0.0067,0.0,0.0134,0.0538,0.0269,0.0,-0.0067,-0.0,0.0134,0.0336,-0.0,-0.0403,-0.0739,-0.0336,-0.0134,-0.0202,0.047,0.0941,0.1078,0.1078,0.1078,0.1078,0.1746,0.2214,0.2484,0.2683,0.295,0.3215,0.2679,0.248,0.2551,0.2214,0.2014,0.1951,0.1344,0.101,0.0877,0.0674,0.0337,-0.0067,-0.0809,-0.1145,-0.1277,-0.4912,-0.4802,-0.479,-0.4629,-0.4739,-0.483,-0.4773,-0.4887,-0.4965,-0.4965,-0.506,-0.5189,-0.5411,-0.5254,-0.5226,-0.5418,-0.5428,-0.5428,-0.5428,-0.5428,-0.5428,-0.5428,-0.5428,-0.5428,-0.5428,-0.5428,-0.5428,-0.5428,-0.5428,-0.5428,-0.5428,-0.5428,-0.5226,-0.4891,-0.3551,-0.2547,-0.1879,-0.1344,-0.1076,-0.1076,-0.1076,-0.1076,-0.1076,-0.1076,-0.1076,-0.1076,-0.1076,-0.1076,-0.1076,-0.1076,-0.1076,-0.1076,-0.1076,-0.1076,-0.1076,-0.1076,-0.1076,-0.1076,-0.1076,-0.1076,-0.1076,-0.1076,-0.1076,-0.1076,-0.1076,-0.1076,-0.1076,-0.0874,-0.0672,-0.0537,-0.0604,-0.0403,-0.0134,0.0336,0.047,0.0739,0.148,0.1277,0.1076,0.1076,0.1075,0.1142,0.1344,0.1546,0.1412,0.0604,0.0805,0.0872,0.0605,0.121,0.148,0.121,0.1344,0.1412,0.1412,0.2214,0.2683,0.2885,0.3485,0.3885,0.4079,0.3811,0.348,0.3149,0.2882,0.2549,0.2153,0.1613,0.1412,0.1348,0.1078,0.0674,0.0135,-0.0944,-0.1212,-0.1076,-0.5187,-0.4853,-0.4751,-0.4852,-0.4775,-0.48,-0.5011,-0.5101,-0.5111,-0.5111,-0.5121,-0.5189,-0.5411,-0.5415,-0.5411,-0.5425,-0.5428,-0.5428,-0.5428,-0.5428,-0.5428,-0.5428,-0.5428,-0.5428,-0.5428,-0.5428,-0.5428,-0.5428,-0.5428,-0.5428,-0.5428,-0.5428,-0.4688,-0.3349,-0.2547,-0.1812,-0.121,-0.1143,-0.1076,-0.1076,-0.1076,-0.1076,-0.1076,-0.1076,-0.1076,-0.1076,-0.1076,-0.1076,-0.1076,-0.1076,-0.1076,-0.1076,-0.1076,-0.1076,-0.1076,-0.1076,-0.1076,-0.1076,-0.1076,-0.1076,-0.1076,-0.1076,-0.1076,-0.1076,-0.1076,-0.1076,-0.0874,-0.0,0.0805,0.1274,0.1139,0.1744,0.2216,0.1946,0.208,0.2351,0.2898,0.1884,0.1076,0.1076,0.1679,0.208,0.208,0.2686,0.2889,0.2484,0.1882,0.1479,0.148,0.1547,0.1614,0.1547,0.2217,0.2552,0.2552,0.3754,0.4359,0.4425,0.4619,0.4885,0.5226,0.4148,0.3751,0.3825,0.2885,0.2348,0.2147,0.2417,0.2484,0.2216,0.1006,0.0739,0.0741,-0.1346,-0.1412,-0.0739,-0.5238,-0.5195,-0.5182,-0.5078,-0.5265,-0.5364,-0.5265,-0.5338,-0.5394,-0.5394,-0.5332,-0.5291,-0.5422,-0.5428,-0.5428,-0.5428,-0.5428,-0.5428,-0.5428,-0.5428,-0.5428,-0.5428,-0.5428,-0.5428,-0.5428,-0.5428,-0.5428,-0.5428,-0.5428,-0.5428,-0.5362,-0.4957,-0.3951,-0.2547,-0.2213,-0.1745,-0.1076,-0.1076,-0.1076,-0.1076,-0.1076,-0.1076,-0.1076,-0.1076,-0.1076,-0.1076,-0.1076,-0.1076,-0.1076,-0.1076,-0.1076,-0.1076,-0.1076,-0.1076,-0.1076,-0.1076,-0.1076,-0.1008,-0.0538,-0.047,-0.0336,0.0134,0.0202,0.0269,0.0335,0.0268,0.0403,0.0939,0.1341,0.1542,0.1475,0.1811,0.2147,0.2417,0.2551,0.282,0.3496,0.309,0.2751,0.2751,0.2952,0.3218,0.3418,0.3424,0.3426,0.3491,0.2889,0.2354,0.1951,0.2485,0.2485,0.1951,0.2817,0.3149,0.2883,0.4084,0.4755,0.4891,0.5415,0.5749,0.5954,0.5547,0.4885,0.4156,0.3951,0.3282,0.2551,0.3351,0.3355,0.2753,0.1139,0.047,0.027,-0.1078,-0.1346,-0.121,-0.5639,-0.5597,-0.5636,-0.5467,-0.5664,-0.5782,-0.5607,-0.5614,-0.5683,-0.5683,-0.5624,-0.5491,-0.5491,-0.5428,-0.5428,-0.5428,-0.5428,-0.5428,-0.5428,-0.5428,-0.5428,-0.5428,-0.5428,-0.5428,-0.5428,-0.5428,-0.5428,-0.5428,-0.5428,-0.5428,-0.5362,-0.442,-0.3282,-0.2079,-0.1879,-0.1545,-0.1076,-0.1076,-0.1076,-0.1076,-0.1076,-0.1076,-0.1076,-0.1076,-0.1076,-0.1076,-0.1076,-0.1076,-0.1076,-0.1076,-0.1076,-0.1076,-0.1076,-0.1076,-0.1076,-0.1076,-0.1076,-0.1008,-0.047,-0.0134,0.0134,0.0672,0.0941,0.1208,0.1274,0.1275,0.1343,0.1811,0.2146,0.2347,0.2347,0.2347,0.2549,0.3088,0.3088,0.3291,0.3761,0.3825,0.3825,0.3825,0.3825,0.3956,0.4287,0.3959,0.3894,0.4225,0.3892,0.3357,0.2622,0.3155,0.3286,0.2822,0.3685,0.4015,0.3682,0.4683,0.5282,0.5418,0.6017,0.6284,0.642,0.6218,0.555,0.4553,0.4749,0.4217,0.3353,0.4223,0.4295,0.3696,0.1876,0.0671,-0.0067,-0.0674,-0.0875,-0.0874,-0.6404,-0.611,-0.5878,-0.5887,-0.58,-0.5738,-0.5885,-0.5888,-0.5888,-0.5888,-0.5888,-0.5822,-0.5617,-0.5491,-0.5428,-0.5428,-0.5428,-0.5428,-0.5428,-0.5428,-0.5428,-0.5428,-0.5428,-0.5428,-0.5428,-0.5428,-0.5428,-0.5428,-0.5428,-0.5428,-0.5362,-0.3885,-0.2815,-0.2079,-0.1411,-0.1076,-0.1076,-0.1076,-0.1076,-0.1076,-0.1076,-0.1076,-0.1076,-0.1076,-0.1076,-0.1076,-0.1076,-0.1076,-0.1076,-0.1076,-0.1076,-0.1076,-0.1076,-0.1076,-0.1076,-0.1076,-0.1076,-0.1076,-0.1076,-0.0538,0.0,0.0,0.0671,0.1273,0.1273,0.1475,0.1811,0.2551,0.356,0.4231,0.4028,0.4164,0.43,0.43,0.4097,0.3964,0.3904,0.383,0.3825,0.3825,0.3825,0.3956,0.4287,0.4287,0.4417,0.4749,0.4815,0.4417,0.3553,0.3487,0.3754,0.4287,0.5024,0.5362,0.5362,0.5885,0.621,0.621,0.635,0.642,0.635,0.5885,0.5418,0.5087,0.4882,0.4686,0.4625,0.516,0.5376,0.5189,0.3351,0.1608,-0.0067,-0.0403,0.0134,0.0739,-0.6816,-0.6754,-0.671,-0.6498,-0.6474,-0.6478,-0.6478,-0.6412,-0.6416,-0.6288,-0.6152,-0.6083,-0.6013,-0.5818,-0.5756,-0.5756,-0.562,-0.5554,-0.5554,-0.5425,-0.5428,-0.5428,-0.5428,-0.5428,-0.5428,-0.5428,-0.5428,-0.5428,-0.5428,-0.4891,-0.3885,-0.2882,-0.2079,-0.1411,-0.121,-0.1076,-0.1076,-0.1076,-0.1076,-0.1076,-0.1076,-0.1076,-0.1076,-0.1076,-0.1076,-0.1076,-0.1076,-0.0806,-0.0336,-0.0336,-0.0,0.0403,0.0403,-0.0269,-0.1008,-0.047,-0.0739,-0.0739,0.0872,0.0806,0.0671,0.2213,0.2751,0.2887,0.3086,0.3286,0.3489,0.3558,0.3961,0.43,0.4233,0.4233,0.43,0.43,0.4233,0.4167,0.4169,0.4167,0.4164,0.4164,0.4556,0.4885,0.5024,0.5153,0.5216,0.5348,0.5014,0.4683,0.4417,0.4749,0.4818,0.4616,0.555,0.5888,0.5554,0.6083,0.635,0.635,0.6613,0.6749,0.6749,0.635,0.5885,0.5484,0.5749,0.562,0.5226,0.5822,0.5833,0.5316,0.4564,0.3082,0.1409,0.1342,0.1476,0.1476,-0.7409,-0.7363,-0.7256,-0.6929,-0.6863,-0.6868,-0.6806,-0.6745,-0.6745,-0.6618,-0.6548,-0.6478,-0.6478,-0.6284,-0.6086,-0.5892,-0.5686,-0.5617,-0.5617,-0.5488,-0.5428,-0.5428,-0.5428,-0.5428,-0.5428,-0.5428,-0.5428,-0.5428,-0.5093,-0.422,-0.2748,-0.2347,-0.1745,-0.1076,-0.1076,-0.1076,-0.1076,-0.1076,-0.1076,-0.1076,-0.1076,-0.1076,-0.1076,-0.0806,-0.0672,-0.0672,-0.0403,0.0,0.0403,0.0403,0.0739,0.1076,0.1076,0.047,-0.0202,0.0269,0.0067,0.0067,0.1544,0.1544,0.1477,0.2952,0.3493,0.383,0.403,0.4231,0.4233,0.4164,0.4231,0.43,0.43,0.43,0.43,0.43,0.43,0.43,0.43,0.43,0.43,0.43,0.4888,0.5345,0.555,0.5877,0.6141,0.6272,0.5877,0.5613,0.5613,0.5617,0.555,0.5415,0.6083,0.6218,0.5885,0.6218,0.6486,0.6618,0.6815,0.6881,0.6881,0.6552,0.6218,0.5951,0.6284,0.6152,0.5756,0.6086,0.5826,0.5302,0.5239,0.4231,0.2753,0.2549,0.2549,0.2417,-0.8089,-0.7882,-0.7596,-0.7251,-0.7042,-0.6915,-0.6942,-0.6946,-0.6946,-0.6946,-0.6946,-0.6881,-0.6881,-0.6745,-0.6478,-0.5954,-0.5752,-0.5617,-0.5617,-0.5491,-0.5428,-0.5428,-0.5428,-0.5362,-0.5296,-0.5296,-0.5292,-0.5226,-0.4556,-0.3485,-0.2147,-0.208,-0.1679,-0.1076,-0.1076,-0.1076,-0.1076,-0.1076,-0.1076,-0.1076,-0.1076,-0.1076,-0.0941,-0.0269,0.0,0.0134,0.0874,0.1143,0.1143,0.1143,0.121,0.1277,0.1277,0.1277,0.121,0.121,0.1143,0.1143,0.121,0.1813,0.235,0.2484,0.3222,0.4028,0.4233,0.43,0.43,0.43,0.43,0.43,0.43,0.43,0.43,0.43,0.43,0.43,0.43,0.43,0.43,0.4367,0.4954,0.554,0.5935,0.6597,0.7125,0.7456,0.7138,0.6946,0.6946,0.6145,0.5947,0.6416,0.642,0.642,0.6416,0.6416,0.6613,0.6946,0.6946,0.6946,0.6946,0.6618,0.6416,0.6416,0.6416,0.635,0.6214,0.6086,0.5686,0.5223,0.5575,0.5046,0.3904,0.3489,0.3424,0.3429,-0.8431,-0.8156,-0.7802,-0.7456,-0.7386,-0.7386,-0.733,-0.733,-0.733,-0.7138,-0.7138,-0.7007,-0.6806,-0.6741,-0.6609,-0.6288,-0.602,-0.5822,-0.5822,-0.5557,-0.5428,-0.5428,-0.5428,-0.516,-0.4556,-0.4556,-0.4287,-0.3751,-0.3218,-0.2751,-0.2417,-0.1681,-0.128,-0.1078,-0.1078,-0.1078,-0.1076,-0.1078,-0.1078,-0.1076,-0.1076,-0.0739,-0.0269,-0.0067,0.0336,0.0874,0.1008,0.1478,0.1946,0.1946,0.2283,0.2688,0.2688,0.2688,0.2619,0.208,0.1545,0.1344,0.2621,0.242,0.2217,0.3222,0.3758,0.4028,0.4233,0.43,0.43,0.43,0.43,0.43,0.43,0.43,0.43,0.43,0.43,0.43,0.43,0.43,0.4495,0.5017,0.5675,0.6264,0.6662,0.7326,0.7657,0.7521,0.7396,0.733,0.733,0.7129,0.6872,0.642,0.642,0.6552,0.6749,0.6815,0.7073,0.7727,0.7461,0.7461,0.7727,0.7077,0.6815,0.6815,0.6815,0.6749,0.6745,0.7003,0.6741,0.6086,0.6222,0.5561,0.4564,0.4359,0.4092,0.3692,-0.835,-0.8117,-0.7872,-0.7591,-0.7521,-0.7521,-0.7521,-0.7521,-0.7456,-0.7199,-0.7265,-0.7199,-0.6811,-0.6811,-0.6745,-0.6548,-0.6218,-0.6017,-0.6017,-0.569,-0.5488,-0.5488,-0.5425,-0.5024,-0.4287,-0.4287,-0.3818,-0.2883,-0.282,-0.2418,-0.1547,-0.1078,-0.0809,-0.0809,-0.1012,-0.1011,-0.0808,-0.1011,-0.1078,-0.1077,-0.0471,-0.0067,0.0269,0.0873,0.1343,0.1746,0.2083,0.2485,0.282,0.282,0.3025,0.3295,0.3228,0.3295,0.3295,0.2889,0.2418,0.2218,0.3092,0.296,0.2757,0.3625,0.3892,0.4028,0.4164,0.4233,0.43,0.43,0.43,0.43,0.43,0.43,0.43,0.43,0.43,0.43,0.43,0.4561,0.4888,0.5276,0.6264,0.699,0.7125,0.7787,0.8182,0.7987,0.7787,0.7722,0.7722,0.7587,0.733,0.6937,0.6872,0.7007,0.7204,0.7335,0.7596,0.7987,0.7787,0.7722,0.7722,0.7138,0.6881,0.6881,0.6881,0.7012,0.7138,0.7068,0.6745,0.6416,0.6218,0.5557,0.4761,0.4894,0.4561,0.3892,-0.8203,-0.8012,-0.7872,-0.7591,-0.7521,-0.7521,-0.7521,-0.7521,-0.7456,-0.7199,-0.733,-0.733,-0.6946,-0.6881,-0.6811,-0.6675,-0.6412,-0.6214,-0.621,-0.5881,-0.5617,-0.5481,-0.5355,-0.4891,-0.402,-0.3885,-0.3284,-0.2283,-0.2621,-0.2018,-0.0472,-0.0472,-0.0404,-0.0472,-0.0809,-0.0742,-0.0539,-0.0809,-0.0876,-0.0674,0.0336,0.0739,0.0873,0.2013,0.2484,0.2684,0.3293,0.3563,0.3563,0.3563,0.3563,0.3496,0.336,0.3426,0.3563,0.3563,0.3429,0.3293,0.3293,0.3429,0.3563,0.3758,0.3892,0.4028,0.4028,0.4164,0.43,0.43,0.43,0.43,0.43,0.43,0.43,0.43,0.4364,0.4431,0.4498,0.5084,0.5536,0.5668,0.6793,0.7587,0.7717,0.8247,0.8576,0.8576,0.8312,0.8182,0.8306,0.7917,0.7717,0.7847,0.7652,0.7526,0.7591,0.7922,0.8052,0.8052,0.8052,0.7917,0.7591,0.7204,0.7012,0.7012,0.7077,0.7269,0.7526,0.6876,0.6613,0.6548,0.6284,0.562,0.4824,0.5359,0.496,0.4228,-0.85,-0.8218,-0.7872,-0.7591,-0.7521,-0.7521,-0.7521,-0.7521,-0.7456,-0.7199,-0.7199,-0.7134,-0.6741,-0.6741,-0.6675,-0.6482,-0.6416,-0.635,-0.6214,-0.5951,-0.5554,-0.4948,-0.4821,-0.409,-0.275,-0.1946,-0.1478,-0.1344,-0.1077,-0.0809,-0.0472,-0.0202,-0.0067,-0.0067,-0.0135,-0.027,-0.0472,-0.027,0.0202,0.0807,0.0941,0.1545,0.235,0.2551,0.3019,0.3625,0.3692,0.3758,0.3758,0.3758,0.3758,0.3758,0.3692,0.3758,0.3758,0.3758,0.3758,0.3692,0.3692,0.3758,0.3758,0.3961,0.3961,0.4028,0.4233,0.43,0.43,0.43,0.43,0.43,0.43,0.43,0.43,0.43,0.4758,0.5216,0.5352,0.5873,0.6593,0.7502,0.7642,0.7972,0.8694,0.8888,0.8888,0.8888,0.8765,0.8952,0.964,0.9017,0.8888,0.9454,0.8166,0.7657,0.7922,0.8252,0.8452,0.8452,0.8452,0.8252,0.7922,0.7857,0.7661,0.7396,0.7722,0.7852,0.7922,0.7792,0.7591,0.733,0.726,0.6605,0.5756,0.609,0.5822,0.5163,-0.8355,-0.8117,-0.7872,-0.7591,-0.7521,-0.7521,-0.7521,-0.7521,-0.7456,-0.7199,-0.7265,-0.7199,-0.6741,-0.6474,-0.6145,-0.5752,-0.5348,-0.5014,-0.4875,-0.5216,-0.5087,-0.4287,-0.409,-0.342,-0.2281,-0.148,-0.1078,-0.1078,-0.0944,-0.0742,-0.0472,-0.0135,0.0,0.0,0.0,-0.0067,-0.0202,-0.0067,0.1078,0.2831,0.2827,0.3027,0.3362,0.3357,0.3625,0.3892,0.3892,0.3892,0.3892,0.3892,0.3892,0.3892,0.3825,0.3825,0.3892,0.3892,0.3825,0.3825,0.3825,0.3825,0.3825,0.3892,0.3961,0.4028,0.4097,0.4233,0.43,0.43,0.4561,0.4821,0.4821,0.5282,0.5613,0.5613,0.5939,0.6199,0.6268,0.6854,0.7442,0.7962,0.8226,0.856,0.8952,0.9017,0.9017,0.9017,0.8958,0.9145,0.9703,0.9204,0.9081,0.9524,0.8565,0.8117,0.8252,0.8452,0.8576,0.8646,0.8646,0.8441,0.8112,0.8112,0.8042,0.7912,0.7982,0.8182,0.8376,0.8117,0.7922,0.7722,0.7591,0.6937,0.6218,0.635,0.5954,0.5362,-0.8361,-0.8161,-0.8012,-0.7666,-0.7526,-0.7521,-0.7521,-0.7521,-0.7456,-0.7199,-0.7199,-0.7064,-0.6474,-0.5939,-0.5408,-0.4885,-0.4281,-0.3813,-0.348,-0.4151,-0.4223,-0.3556,-0.322,-0.2616,-0.1879,-0.1346,-0.1078,-0.1078,-0.1079,-0.0944,-0.0607,-0.0404,-0.0202,-0.0067,0.0337,0.0337,0.0,0.0337,0.1751,0.3847,0.4177,0.4175,0.3971,0.403,0.4097,0.4097,0.4097,0.4097,0.4097,0.4097,0.4097,0.4028,0.3961,0.3961,0.4097,0.4097,0.4028,0.3959,0.3961,0.3892,0.3892,0.3892,0.3961,0.4097,0.4097,0.4231,0.4431,0.4498,0.502,0.5474,0.5606,0.626,0.6719,0.6719,0.6985,0.7186,0.7186,0.7772,0.8291,0.8355,0.8753,0.9081,0.9087,0.9087,0.9087,0.9087,0.9081,0.9268,0.9646,0.9268,0.9145,0.9274,0.8829,0.8641,0.8829,0.8829,0.8952,0.9081,0.9081,0.8759,0.8236,0.8301,0.8301,0.8172,0.8177,0.8447,0.877,0.8247,0.8052,0.7987,0.7722,0.7134,0.6548,0.6613,0.6218,0.5627,-0.8988,-0.8652,-0.8364,-0.8012,-0.7731,-0.7521,-0.7521,-0.7521,-0.7456,-0.7199,-0.6811,-0.6284,-0.5749,-0.508,-0.4544,-0.4148,-0.388,-0.348,-0.2818,-0.282,-0.282,-0.2753,-0.1949,-0.1344,-0.121,-0.1143,-0.1076,-0.1076,-0.1078,-0.1079,-0.1079,-0.1012,-0.0809,-0.0404,0.1212,0.1212,0.0067,0.1411,0.208,0.235,0.3761,0.4303,0.43,0.43,0.43,0.43,0.43,0.43,0.43,0.43,0.43,0.43,0.4233,0.43,0.43,0.43,0.4431,0.4495,0.4298,0.4233,0.4233,0.4233,0.43,0.43,0.43,0.4431,0.4691,0.5147,0.554,0.6001,0.6523,0.6724,0.6859,0.6859,0.7442,0.7962,0.8102,0.856,0.9017,0.935,0.9344,0.9344,0.9484,0.9484,0.9484,0.9484,0.9344,0.9588,1.0212,0.9652,0.9274,0.9274,0.8958,0.9087,0.9709,0.9831,0.9894,0.9894,0.9894,0.932,0.8236,0.8571,0.8565,0.8236,0.8571,0.877,0.877,0.8371,0.8107,0.7987,0.7987,0.7531,0.6881,0.7265,0.6937,0.6292,-0.9058,-0.8882,-0.8716,-0.8354,-0.8012,-0.7802,-0.7802,-0.7335,-0.6868,-0.6539,-0.6075,-0.5543,-0.4945,-0.4348,-0.3751,-0.3218,-0.2683,-0.2214,-0.1746,-0.1679,-0.1746,-0.1814,-0.1412,-0.1143,-0.1076,-0.1077,-0.1078,-0.1078,-0.1079,-0.1079,-0.1079,-0.1079,-0.0606,0.0269,0.0135,0.1076,0.2693,0.3234,0.3431,0.3491,0.4097,0.43,0.43,0.43,0.43,0.43,0.43,0.43,0.43,0.43,0.43,0.43,0.43,0.43,0.43,0.4431,0.4628,0.4827,0.5219,0.4891,0.4561,0.5024,0.4827,0.4758,0.5683,0.5679,0.5543,0.6199,0.6785,0.7242,0.7437,0.7962,0.8361,0.8361,0.8689,0.8952,0.9022,0.9151,0.935,0.9484,0.9478,0.9414,0.9484,0.9484,0.9484,0.9484,0.9478,0.96,1.0098,1.0218,1.0148,0.9901,1.0212,1.0212,0.9894,0.9958,1.0078,1.0212,0.9831,0.9448,0.9005,0.9139,0.9139,0.9005,0.8952,0.8894,0.8958,0.9011,0.8947,0.8759,0.8554,0.8166,0.7657,0.7265,0.6824,0.6382,-0.9198,-0.9058,-0.8865,-0.8306,-0.7997,-0.7611,-0.7213,-0.6675,-0.6141,-0.5741,-0.5209,-0.4746,-0.4215,-0.3549,-0.2952,-0.2418,-0.1882,-0.148,-0.1143,-0.1076,-0.1143,-0.121,-0.1143,-0.1076,-0.1077,-0.1078,-0.1012,-0.0944,-0.0944,-0.0944,-0.1079,-0.0741,-0.0202,0.0336,0.0202,0.1412,0.35,0.4048,0.4311,0.43,0.43,0.43,0.43,0.43,0.43,0.43,0.43,0.43,0.43,0.43,0.43,0.43,0.43,0.4498,0.4761,0.4891,0.5219,0.5683,0.6071,0.5807,0.5543,0.5943,0.5481,0.5348,0.6597,0.6593,0.6461,0.7116,0.7702,0.8226,0.8355,0.8947,0.9344,0.9344,0.9478,0.9548,0.9484,0.9548,0.9548,0.9484,0.9484,0.9484,0.9484,0.9484,0.9484,0.9484,0.9484,0.967,1.011,1.0528,1.071,1.0773,1.1267,1.1329,1.0954,1.0892,1.0836,1.078,1.0458,1.0021,0.9594,0.9524,0.964,0.9767,0.9402,0.9274,0.9332,0.9652,0.9709,0.957,0.9436,0.9244,0.886,0.828,0.7657,0.7157,-0.9484,-0.9204,-0.8709,-0.7876,-0.7414,-0.6745,-0.5491,-0.5282,-0.5143,-0.4815,-0.4348,-0.3885,-0.3553,-0.2817,-0.2216,-0.1614,-0.1614,-0.148,-0.1143,-0.1076,-0.1076,-0.1076,-0.1076,-0.1077,-0.1079,-0.1079,-0.0877,-0.0472,-0.0472,-0.0674,-0.1079,0.0135,0.0269,-0.0404,0.1945,0.248,0.1748,0.356,0.43,0.43,0.43,0.43,0.43,0.43,0.43,0.43,0.43,0.43,0.43,0.43,0.43,0.43,0.43,0.4894,0.5617,0.5617,0.64,0.7181,0.699,0.7051,0.7181,0.699,0.64,0.6067,0.6793,0.7051,0.7377,0.7897,0.8291,0.8683,0.9204,0.9414,0.9484,0.9484,0.9676,0.974,0.9548,0.9676,0.974,0.9548,0.9484,0.9484,0.9484,0.9484,0.9484,0.9484,0.9484,0.9798,1.0485,1.0528,1.0892,1.1772,1.195,1.2328,1.3009,1.2887,1.2466,1.1802,1.1903,1.1212,0.9804,0.9594,0.9894,1.0451,1.0047,0.9913,1.0021,1.0231,1.0275,1.0292,1.0815,1.0815,1.0481,1.0488,0.9863,0.8715,-0.9484,-0.9058,-0.85,-0.8153,-0.7138,-0.6277,-0.5811,-0.497,-0.4281,-0.3951,-0.3418,-0.2954,-0.2621,-0.2421,-0.2085,-0.1614,-0.1614,-0.148,-0.1143,-0.1076,-0.1076,-0.1076,-0.1076,-0.1077,-0.1079,-0.0809,-0.0742,-0.0944,-0.0404,0.0269,0.1144,0.1278,0.1545,0.1945,0.2213,0.2818,0.356,0.41,0.43,0.43,0.43,0.43,0.43,0.43,0.43,0.43,0.43,0.43,0.43,0.43,0.43,0.4367,0.4821,0.5675,0.6531,0.6531,0.6924,0.7447,0.7902,0.7707,0.7447,0.7712,0.7312,0.7116,0.8431,0.8425,0.8291,0.8952,0.9151,0.928,0.9414,0.9606,0.9676,0.9548,0.9734,0.9862,0.9548,0.9676,0.974,0.9548,0.9484,0.9484,0.9484,0.9612,0.9676,0.9484,1.0104,1.0528,1.0843,1.1764,1.2381,1.2634,1.3139,1.3511,1.37,1.3199,1.2573,1.1958,1.1663,1.0982,0.9926,1.0174,1.0534,1.108,1.1024,1.0961,1.0954,1.1834,1.1826,1.1377,1.1735,1.1789,1.1596,1.1016,1.0279,0.9488,-0.9134,-0.8779,-0.8243,-0.7418,-0.644,-0.5554,-0.4937,-0.4036,-0.3351,-0.3021,-0.2619,-0.2285,-0.2087,-0.2018,-0.1817,-0.148,-0.1412,-0.1344,-0.121,-0.1144,-0.1077,-0.1077,-0.1077,-0.1078,-0.1079,-0.0742,0.0067,0.1481,0.1211,0.1479,0.235,0.2755,0.3159,0.3491,0.322,0.3556,0.43,0.43,0.4364,0.4431,0.43,0.4364,0.4431,0.43,0.43,0.43,0.43,0.43,0.43,0.43,0.4498,0.4821,0.5543,0.6396,0.7251,0.7312,0.7707,0.8231,0.8753,0.856,0.8301,0.863,0.8231,0.8032,0.9221,0.9215,0.9017,0.942,0.9484,0.9548,0.9612,0.974,0.974,0.9612,0.9926,0.9989,0.9548,0.974,0.9804,0.9612,0.9612,0.9734,1.0034,1.0225,1.0351,1.0471,1.1212,1.1703,1.1764,1.2634,1.326,1.3511,1.3761,1.4001,1.4198,1.3932,1.3373,1.2512,1.2336,1.1732,1.0737,1.0982,1.1226,1.1538,1.164,1.1703,1.1772,1.2512,1.2687,1.2557,1.2671,1.2846,1.3028,1.2509,1.1897,1.1246,-0.857,-0.8308,-0.7678,-0.6098,-0.5459,-0.466,-0.337,-0.2893,-0.2554,-0.2221,-0.2018,-0.1884,-0.1884,-0.1681,-0.1547,-0.1344,-0.121,-0.1143,-0.1277,-0.1145,-0.1079,-0.1079,-0.1079,-0.1079,-0.1079,-0.0674,0.1413,0.5279,0.3701,0.2952,0.288,0.43,0.4782,0.4381,0.4564,0.4495,0.4367,0.43,0.4431,0.4561,0.4364,0.4431,0.4561,0.4367,0.43,0.43,0.43,0.43,0.43,0.43,0.4758,0.554,0.6199,0.7051,0.7837,0.8027,0.8678,0.9274,0.9478,0.9484,0.9484,0.9484,0.9017,0.8753,0.935,0.9484,0.9484,0.9484,0.9484,0.9548,0.974,0.9804,0.9804,0.9804,1.0053,1.011,0.9612,0.9798,0.9989,0.9798,0.9862,1.0231,1.0954,1.108,1.1329,1.2012,1.2696,1.307,1.307,1.3321,1.37,1.4327,1.4001,1.4061,1.4565,1.4862,1.4419,1.3329,1.3631,1.3078,1.1864,1.1841,1.1903,1.1988,1.2081,1.2258,1.2512,1.2634,1.3166,1.3888,1.3674,1.4043,1.4697,1.4588,1.4172,1.3502,-0.7881,-0.675,-0.5745,-0.5519,-0.4375,-0.3362,-0.3228,-0.269,-0.222,-0.2018,-0.1951,-0.1817,-0.1681,-0.1614,-0.1547,-0.1344,-0.121,-0.1143,-0.1143,-0.1145,-0.1079,-0.1079,-0.0809,-0.0809,-0.1079,0.0337,0.2223,0.4532,0.473,0.4651,0.43,0.4779,0.4913,0.47,0.4764,0.4764,0.4697,0.4561,0.4558,0.4561,0.4364,0.43,0.4367,0.43,0.43,0.43,0.43,0.43,0.43,0.43,0.5153,0.6199,0.6334,0.7386,0.8571,0.8753,0.8947,0.9151,0.9414,0.9414,0.9344,0.9484,0.9414,0.935,0.9484,0.9484,0.9484,0.9484,0.9484,0.9484,0.9548,0.9676,0.974,0.9612,0.9862,0.9989,0.974,0.9862,0.9989,0.9989,1.0408,1.0836,1.0954,1.1454,1.195,1.2389,1.2992,1.3425,1.3563,1.424,1.4675,1.4852,1.4784,1.4793,1.4921,1.497,1.4547,1.3631,1.3855,1.3425,1.2512,1.2266,1.2696,1.3494,1.3252,1.3494,1.4043,1.4043,1.4551,1.5284,1.4569,1.5089,1.612,1.5459,1.4824,1.4103,-0.6727,-0.5912,-0.5204,-0.49,-0.3893,-0.3074,-0.3017,-0.246,-0.1951,-0.1817,-0.1681,-0.1547,-0.148,-0.1412,-0.1344,-0.121,-0.1144,-0.1078,-0.1078,-0.1078,-0.1079,-0.1079,0.0741,0.1684,0.1482,0.2421,0.3364,0.4322,0.4314,0.4506,0.49,0.4967,0.5033,0.4957,0.4957,0.4894,0.4764,0.4694,0.4758,0.4824,0.4631,0.4564,0.4694,0.4564,0.4564,0.4498,0.4498,0.4364,0.4434,0.509,0.5873,0.6658,0.7316,0.8172,0.8894,0.8952,0.9081,0.921,0.9344,0.9408,0.9414,0.9484,0.9484,0.9484,0.9484,0.9484,0.9484,0.9484,0.9484,0.9548,0.9734,0.9798,0.9862,0.9862,1.0117,1.018,0.9926,1.0047,1.011,1.011,1.0724,1.1461,1.2197,1.287,1.3425,1.3674,1.4034,1.4222,1.43,1.4725,1.497,1.497,1.5039,1.5039,1.497,1.5137,1.4951,1.4419,1.4529,1.4163,1.3416,1.3648,1.3939,1.4186,1.466,1.5129,1.5525,1.5525,1.6079,1.6791,1.6012,1.6409,1.7269,1.6824,1.5985,1.4963,-0.5512,-0.5191,-0.4897,-0.4268,-0.361,-0.3115,-0.287,-0.229,-0.1873,-0.1613,-0.1412,-0.1277,-0.1278,-0.1144,-0.1076,-0.1076,-0.1078,-0.1079,-0.1012,-0.0741,-0.0606,-0.0606,0.229,0.4051,0.4325,0.4308,0.4306,0.4311,0.3692,0.4018,0.5024,0.509,0.5087,0.5156,0.5156,0.509,0.4897,0.4894,0.4957,0.509,0.4894,0.4894,0.502,0.4827,0.4764,0.4761,0.4628,0.4561,0.4761,0.6071,0.6658,0.7111,0.8301,0.8823,0.9017,0.9017,0.9145,0.9274,0.9338,0.9408,0.9478,0.9484,0.9484,0.9484,0.9484,0.9484,0.9484,0.9484,0.9548,0.9612,0.9926,0.9989,1.0047,1.0244,1.0371,1.0371,1.011,1.018,1.0308,1.0364,1.1052,1.2158,1.3752,1.4419,1.4843,1.497,1.5029,1.5029,1.5029,1.5088,1.5088,1.5088,1.5205,1.5205,1.5088,1.5303,1.5362,1.5264,1.5323,1.5128,1.456,1.5138,1.5177,1.4925,1.5908,1.6532,1.6869,1.6802,1.7346,1.8174,1.7368,1.7641,1.8377,1.8354,1.7575,1.6367,-0.4838,-0.4039,-0.3527,-0.3811,-0.3293,-0.283,-0.2795,-0.2454,-0.1963,-0.1408,-0.1344,-0.1278,-0.1146,-0.1079,-0.1079,-0.1079,-0.1079,-0.0944,-0.0607,0.0539,0.1211,0.1211,0.2016,0.3025,0.4247,0.4306,0.43,0.4303,0.4361,0.4558,0.4831,0.5024,0.5223,0.5359,0.5359,0.5362,0.5296,0.5156,0.509,0.509,0.4894,0.4761,0.4691,0.4628,0.4625,0.4625,0.4625,0.5084,0.5807,0.6597,0.7246,0.7827,0.8027,0.849,0.9017,0.921,0.9145,0.9081,0.9414,0.9408,0.9344,0.9478,0.9484,0.9484,0.9484,0.9484,0.9484,0.9484,0.9612,0.9804,0.9804,0.9926,0.9983,1.0047,1.0047,1.011,1.0238,1.0308,1.0371,1.0561,1.1787,1.3199,1.4666,1.4911,1.497,1.497,1.5098,1.5156,1.5156,1.5313,1.5362,1.5362,1.5352,1.5352,1.5362,1.5352,1.541,1.5362,1.5921,1.6083,1.6016,1.5603,1.5938,1.6789,1.6711,1.6991,1.7457,1.717,1.787,1.8996,1.7641,1.8307,1.9952,1.9712,1.951,1.9076,-0.4095,-0.3697,-0.3469,-0.3641,-0.3302,-0.2913,-0.255,-0.2271,-0.1878,-0.1247,-0.1133,-0.1146,-0.1079,-0.0877,-0.0742,-0.0742,-0.0944,-0.0606,0.0606,0.2223,0.3301,0.3701,0.3493,0.3897,0.5049,0.477,0.4697,0.4897,0.4564,0.4564,0.4831,0.4894,0.5093,0.5428,0.5428,0.5428,0.5362,0.5292,0.5292,0.5292,0.516,0.5093,0.5027,0.5027,0.4957,0.4888,0.5216,0.5807,0.6593,0.7246,0.7767,0.8161,0.8619,0.9011,0.928,0.9274,0.928,0.9285,0.9344,0.9408,0.9414,0.9484,0.9484,0.9548,0.9612,0.9676,0.9676,0.9676,0.974,0.9868,1.0053,1.0117,1.0174,1.0301,1.0371,1.0364,1.0555,1.0555,1.0926,1.1849,1.2818,1.3923,1.5029,1.5205,1.5245,1.5245,1.5439,1.5566,1.5508,1.5614,1.572,1.5884,1.5884,1.5999,1.6171,1.6171,1.6171,1.6171,1.6549,1.6539,1.6301,1.6743,1.7191,1.7699,1.807,1.8436,1.8821,1.8838,1.9322,2.0042,1.9362,1.9915,2.0975,2.0744,2.0642,2.0434]}]]